[[{"header":{"parameterUnit":"m.s-1","parameterCategory":1,"la1":30.6,"la2":28.766,"lo1":-90.7593,"lo2":-88.6598,"dy":0.0162,"dx":0.0183,"nx":116,"ny":114,"refTime":"2024-04-16T12:00:00:Z","depth":0,"parameterNumber":2,"parameterNumberName":"U-component_of_WINDS"},"data":[0.0,0.0,0.0,0.0,0.0,0.0,0.0,0.0,0.0,0.0,0.0,0.0,0.0,0.0,0.0,0.0,0.0,0.0,0.0,0.0,0.0,0.0,0.0,0.0,0.0,0.0,0.0,0.0,0.0,0.0,0.0,0.0,0.0,0.0,0.0,0.0,0.0,0.0,0.0,0.0,0.0,0.0,0.0,0.0,0.0,0.0,0.0,0.0,0.0,0.0,0.0,0.0,0.0,0.0,0.0,0.0,0.0,0.0,0.0,0.0,0.0,0.0,0.0,0.0,0.0,0.0,0.0,0.0,0.0,0.0,0.0,0.0,0.0,0.0,0.0,0.0,0.0,0.0,0.0,0.0,0.0,0.0,0.0,0.0,0.0,0.0,0.0,0.0,0.0,0.0,0.0,0.0,0.0,0.0,0.0,0.0,0.0,0.0,0.0,0.0,0.0,0.0,0.0,0.0,0.0,0.0,0.0,0.0,0.0,0.0,0.0,0.0,0.0,0.0,0.0,0.0,0.0,0.0,0.0,0.0,0.0,0.0,0.0,0.0,0.0,0.0,0.0,0.0,0.0,0.0,0.0,0.0,0.0,0.0,0.0,0.0,0.0,0.0,0.0,0.0,0.0,0.0,0.0,0.0,0.0,0.0,0.0,0.0,0.0,0.0,0.0,0.0,0.0,0.0,0.0,0.0,0.0,0.0,0.0,0.0,0.0,0.0,0.0,0.0,0.0,0.0,0.0,0.0,0.0,0.0,0.0,0.0,0.0,0.0,0.0,0.0,0.0,0.0,0.0,0.0,0.0,0.0,0.0,0.0,0.0,0.0,0.0,0.0,0.0,0.0,0.0,0.0,0.0,0.0,0.0,0.0,0.0,0.0,0.0,0.0,0.0,0.0,0.0,0.0,0.0,0.0,0.0,0.0,0.0,0.0,0.0,0.0,0.0,0.0,0.0,0.0,0.0,0.0,0.0,0.0,0.0,0.0,0.0,0.0,0.0,0.0,0.0,0.0,0.0,0.0,0.0,0.0,0.0,0.0,0.0,0.0,0.0,0.0,0.0,0.0,0.0,0.0,0.0,0.0,0.0,0.0,0.0,0.0,0.0,0.0,0.0,0.0,0.0,0.0,0.0,0.0,0.0,0.0,0.0,0.0,0.0,0.0,0.0,0.0,0.0,0.0,0.0,0.0,0.0,0.0,0.0,0.0,0.0,0.0,0.0,0.0,0.0,0.0,0.0,0.0,0.0,0.0,0.0,0.0,0.0,0.0,0.0,0.0,0.0,0.0,0.0,0.0,0.0,0.0,0.0,0.0,0.0,0.0,0.0,0.0,0.0,0.0,0.0,0.0,0.0,0.0,0.0,0.0,0.0,0.0,0.0,0.0,0.0,0.0,0.0,0.0,0.0,0.0,0.0,0.0,0.0,0.0,0.0,0.0,0.0,0.0,0.0,0.0,0.0,0.0,0.0,0.0,0.0,0.0,0.0,0.0,0.0,0.0,0.0,0.0,0.0,0.0,0.0,0.0,0.0,0.0,0.0,0.0,0.0,0.0,0.0,0.0,0.0,0.0,0.0,0.0,0.0,0.0,0.0,0.0,0.0,0.0,0.0,0.0,0.0,0.0,0.0,0.0,0.0,0.0,0.0,0.0,0.0,0.0,0.0,0.0,0.0,0.0,0.0,0.0,0.0,0.0,0.0,0.0,0.0,0.0,0.0,0.0,0.0,0.0,0.0,0.0,0.0,0.0,0.0,0.0,0.0,0.0,0.0,0.0,0.0,0.0,0.0,0.0,0.0,0.0,0.0,0.0,0.0,0.0,0.0,0.0,0.0,0.0,0.0,0.0,0.0,0.0,0.0,0.0,0.0,0.0,0.0,0.0,0.0,0.0,0.0,0.0,0.0,0.0,0.0,0.0,0.0,0.0,0.0,0.0,0.0,0.0,0.0,0.0,0.0,0.0,0.0,0.0,0.0,0.0,0.0,0.0,0.0,0.0,0.0,0.0,0.0,0.0,0.0,0.0,0.0,0.0,0.0,0.0,0.0,0.0,0.0,0.0,0.0,0.0,0.0,0.0,0.0,0.0,0.0,0.0,0.0,0.0,0.0,0.0,0.0,0.0,0.0,0.0,0.0,0.0,0.0,0.0,0.0,0.0,0.0,0.0,0.0,0.0,0.0,0.0,0.0,0.0,0.0,0.0,0.0,0.0,0.0,0.0,0.0,0.0,0.0,0.0,0.0,0.0,0.0,0.0,0.0,0.0,0.0,0.0,0.0,0.0,0.0,0.0,0.0,0.0,0.0,0.0,0.0,0.0,0.0,0.0,0.0,0.0,0.0,0.0,0.0,0.0,0.0,0.0,0.0,0.0,0.0,0.0,0.0,0.0,0.0,0.0,0.0,0.0,0.0,0.0,0.0,0.0,0.0,0.0,0.0,0.0,0.0,0.0,0.0,0.0,0.0,0.0,0.0,0.0,0.0,0.0,0.0,0.0,0.0,0.0,0.0,0.0,0.0,0.0,0.0,0.0,0.0,0.0,0.0,0.0,0.0,0.0,0.0,0.0,0.0,0.0,0.0,0.0,0.0,0.0,0.0,0.0,0.0,0.0,0.0,0.0,0.0,0.0,0.0,0.0,0.0,0.0,0.0,0.0,0.0,0.0,0.0,0.0,0.0,0.0,0.0,0.0,0.0,0.0,0.0,0.0,0.0,0.0,0.0,0.0,0.0,0.0,0.0,0.0,0.0,0.0,0.0,0.0,0.0,0.0,0.0,0.0,0.0,0.0,0.0,0.0,0.0,0.0,0.0,0.0,0.0,0.0,0.0,0.0,0.0,0.0,0.0,0.0,0.0,0.0,0.0,0.0,0.0,0.0,0.0,0.0,0.0,0.0,0.0,0.0,0.0,0.0,0.0,0.0,0.0,0.0,0.0,0.0,0.0,0.0,0.0,0.0,0.0,0.0,0.0,0.0,0.0,0.0,0.0,0.0,0.0,0.0,0.0,0.0,0.0,0.0,0.0,0.0,0.0,0.0,0.0,0.0,0.0,0.0,0.0,0.0,0.0,0.0,0.0,0.0,0.0,0.0,0.0,0.0,0.0,0.0,0.0,0.0,0.0,0.0,0.0,0.0,0.0,0.0,0.0,0.0,0.0,0.0,0.0,0.0,0.0,0.0,0.0,0.0,0.0,0.0,0.0,0.0,0.0,0.0,0.0,0.0,0.0,0.0,0.0,0.0,0.0,0.0,0.0,0.0,0.0,0.0,0.0,0.0,0.0,0.0,0.0,0.0,0.0,0.0,0.0,0.0,0.0,0.0,0.0,0.0,0.0,0.0,0.0,0.0,0.0,0.0,0.0,0.0,0.0,0.0,0.0,0.0,0.0,0.0,0.0,0.0,0.0,0.0,0.0,0.0,0.0,0.0,0.0,0.0,0.0,0.0,0.0,0.0,0.0,0.0,0.0,0.0,0.0,0.0,0.0,0.0,0.0,0.0,0.0,0.0,0.0,0.0,0.0,0.0,0.0,0.0,0.0,0.0,0.0,0.0,0.0,0.0,0.0,0.0,0.0,0.0,0.0,0.0,0.0,0.0,0.0,0.0,0.0,0.0,0.0,0.0,0.0,0.0,0.0,0.0,0.0,0.0,0.0,0.0,0.0,0.0,0.0,0.0,0.0,0.0,0.0,0.0,0.0,0.0,0.0,0.0,0.0,0.0,0.0,0.0,0.0,0.0,0.0,0.0,0.0,0.0,0.0,0.0,0.0,0.0,0.0,0.0,0.0,0.0,0.0,0.0,0.0,0.0,0.0,0.0,0.0,0.0,0.0,0.0,0.0,0.0,0.0,0.0,0.0,0.0,0.0,0.0,0.0,0.0,0.0,0.0,0.0,0.0,0.0,0.0,0.0,0.0,0.0,0.0,0.0,0.0,0.0,0.0,0.0,0.0,0.0,0.0,0.0,0.0,0.0,0.0,0.0,0.0,0.0,0.0,0.0,0.0,0.0,0.0,0.0,0.0,0.0,0.0,0.0,0.0,0.0,0.0,0.0,0.0,0.0,0.0,0.0,0.0,0.0,0.0,0.0,0.0,0.0,0.0,0.0,0.0,0.0,0.0,0.0,0.0,0.0,0.0,0.0,0.0,0.0,0.0,0.0,0.0,0.0,0.0,0.0,0.0,0.0,0.0,0.0,0.0,0.0,0.0,0.0,0.0,0.0,0.0,0.0,0.0,0.0,0.0,0.0,0.0,0.0,0.0,0.0,0.0,0.0,0.0,0.0,0.0,0.0,0.0,0.0,0.0,0.0,0.0,0.0,0.0,0.0,0.0,0.0,0.0,0.0,0.0,0.0,0.0,0.0,0.0,0.0,0.0,0.0,0.0,0.0,0.0,0.0,0.0,0.0,0.0,0.0,0.0,0.0,0.0,0.0,0.0,0.0,0.0,0.0,0.0,0.0,0.0,0.0,0.0,0.0,0.0,0.0,0.0,0.0,0.0,0.0,0.0,0.0,0.0,0.0,0.0,0.0,0.0,0.0,0.0,0.0,0.0,0.0,0.0,0.0,0.0,0.0,0.0,0.0,0.0,0.0,0.0,0.0,0.0,0.0,0.0,0.0,0.0,0.0,0.0,0.0,0.0,0.0,0.0,0.0,0.0,0.0,0.0,0.0,0.0,0.0,0.0,0.0,0.0,0.0,0.0,0.0,0.0,0.0,0.0,0.0,0.0,0.0,0.0,0.0,0.0,0.0,0.0,0.0,0.0,0.0,0.0,0.0,0.0,0.0,0.0,0.0,0.0,0.0,0.0,0.0,0.0,0.0,0.0,0.0,0.0,0.0,0.0,0.0,0.0,0.0,0.0,0.0,0.0,0.0,0.0,0.0,0.0,0.0,0.0,0.0,0.0,0.0,0.0,0.0,0.0,0.0,0.0,0.0,0.0,0.0,0.0,0.0,0.0,0.0,0.0,0.0,0.0,0.0,0.0,0.0,0.0,0.0,0.0,0.0,0.0,0.0,0.0,0.0,0.0,0.0,0.0,0.0,0.0,0.0,0.0,0.0,0.0,0.0,0.0,0.0,0.0,0.0,0.0,0.0,0.0,0.0,0.0,0.0,0.0,0.0,0.0,0.0,0.0,0.0,0.0,0.0,0.0,0.0,0.0,0.0,0.0,0.0,0.0,0.0,0.0,0.0,0.0,0.0,0.0,0.0,0.0,0.0,0.0,0.0,0.0,0.0,0.0,0.0,0.0,0.0,0.0,0.0,0.0,0.0,0.0,0.0,0.0,0.0,0.0,0.0,0.0,0.0,0.0,0.0,0.0,0.0,0.0,0.0,0.0,0.0,0.0,0.0,0.0,0.0,0.0,0.0,0.0,0.0,0.0,0.0,0.0,0.0,0.0,0.0,0.0,0.0,0.0,0.0,0.0,0.0,0.0,0.0,0.0,0.0,0.0,0.0,0.0,0.0,0.0,0.0,0.0,0.0,0.0,0.0,0.0,0.0,0.0,0.0,0.0,0.0,0.0,0.0,0.0,0.0,0.0,0.0,0.0,0.0,0.0,0.0,0.0,0.0,0.0,0.0,0.0,0.0,0.0,0.0,0.0,0.0,0.0,0.0,0.0,0.0,0.0,0.0,0.0,0.0,0.0,0.0,0.0,0.0,0.0,0.0,0.0,0.0,0.0,0.0,0.0,0.0,0.0,0.0,0.0,0.0,0.0,0.0,0.0,0.0,0.0,0.0,0.0,0.0,0.0,0.0,0.0,0.0,0.0,0.0,0.0,0.0,0.0,0.0,0.0,0.0,0.0,0.0,0.0,0.0,0.0,0.0,0.0,0.0,0.0,0.0,0.0,0.0,0.0,0.0,0.0,0.0,0.0,0.0,0.0,0.0,0.0,0.0,0.0,0.0,0.0,0.0,0.0,0.0,0.0,0.0,0.0,0.0,0.0,0.0,0.0,0.0,0.0,0.0,0.0,0.0,0.0,0.0,0.0,0.0,0.0,0.0,0.0,0.0,0.0,0.0,0.0,0.0,0.0,0.0,0.0,0.0,0.0,0.0,0.0,0.0,0.0,0.0,0.0,0.0,0.0,0.0,0.0,0.0,0.0,0.0,0.0,-4.2727,0.0,0.0,0.0,0.0,0.0,0.0,0.0,0.0,0.0,0.0,0.0,0.0,0.0,0.0,0.0,0.0,0.0,0.0,0.0,0.0,0.0,0.0,0.0,0.0,-4.9018,-4.9018,-4.9018,-4.9018,-4.9018,-4.9018,-4.9018,0.0,0.0,0.0,0.0,-4.9018,-4.9018,-4.9526,-5.0642,-4.9965,-4.9424,-4.9018,-5.0168,-5.0473,-5.0168,0.0,0.0,0.0,0.0,0.0,0.0,0.0,0.0,0.0,0.0,0.0,0.0,0.0,0.0,0.0,0.0,0.0,0.0,0.0,0.0,0.0,0.0,0.0,0.0,0.0,0.0,0.0,0.0,0.0,0.0,0.0,0.0,0.0,0.0,0.0,0.0,0.0,0.0,0.0,0.0,0.0,0.0,0.0,0.0,0.0,0.0,0.0,0.0,0.0,0.0,0.0,0.0,0.0,0.0,0.0,0.0,0.0,0.0,0.0,0.0,0.0,0.0,0.0,0.0,0.0,0.0,0.0,0.0,0.0,0.0,0.0,-4.3754,0.0,0.0,0.0,0.0,0.0,0.0,0.0,0.0,0.0,0.0,0.0,0.0,0.0,0.0,0.0,0.0,0.0,0.0,0.0,0.0,0.0,-4.8917,-4.9154,-4.9187,-4.9255,-4.939,-4.9255,-4.9187,-4.9187,-4.9086,-4.9018,-4.9018,-4.9018,-4.9018,-4.9018,-4.912,-4.9661,-5.061,-4.868,-4.8173,-4.9018,-4.9898,-4.9965,-4.9424,-5.0238,0.0,0.0,0.0,0.0,0.0,0.0,0.0,0.0,0.0,0.0,0.0,0.0,0.0,0.0,0.0,0.0,0.0,0.0,0.0,0.0,0.0,0.0,0.0,0.0,0.0,0.0,0.0,0.0,0.0,0.0,0.0,0.0,0.0,0.0,0.0,0.0,0.0,0.0,0.0,0.0,0.0,0.0,0.0,0.0,0.0,0.0,0.0,0.0,0.0,0.0,0.0,0.0,0.0,0.0,0.0,0.0,0.0,0.0,0.0,0.0,0.0,0.0,0.0,-4.915,-4.9884,-5.0802,-5.0949,-5.0251,-4.8874,-4.7531,-4.5736,-4.3851,-4.5224,0.0,0.0,0.0,0.0,0.0,0.0,0.0,0.0,0.0,0.0,0.0,0.0,0.0,0.0,0.0,0.0,0.0,0.0,0.0,-4.8545,-4.9796,-4.9932,-5.0202,-5.0879,-5.0338,-4.9965,-4.9932,-4.9357,-4.9018,-4.9018,-4.9018,-4.9018,-4.9018,-4.9627,-4.9424,-4.8311,-4.7394,-4.7665,-4.9052,-5.0405,-5.1014,-5.0813,-4.9089,-4.9763,-5.1995,0.0,0.0,0.0,0.0,0.0,0.0,0.0,0.0,0.0,0.0,0.0,0.0,0.0,0.0,0.0,0.0,0.0,0.0,0.0,0.0,0.0,0.0,0.0,0.0,0.0,0.0,0.0,0.0,0.0,0.0,0.0,0.0,0.0,0.0,0.0,0.0,0.0,0.0,0.0,0.0,0.0,-4.2396,-4.3094,0.0,0.0,0.0,0.0,0.0,0.0,0.0,0.0,0.0,0.0,0.0,0.0,0.0,-4.8416,-4.9994,-5.1389,-5.1536,-5.0508,-5.2601,-5.2601,-5.0839,-5.1499,-5.172,-5.1516,-5.1288,0.0,-4.4851,-4.5167,0.0,0.0,0.0,0.0,0.0,0.0,0.0,0.0,0.0,0.0,0.0,0.0,0.0,0.0,0.0,0.0,0.0,0.0,0.0,0.0,0.0,-5.0101,-5.0236,-5.0541,-5.1826,-5.1725,-4.9627,-5.0777,-5.0777,-4.9086,-4.9018,-4.9018,-4.9018,-4.8511,-4.7733,-4.6684,-4.8003,-4.8984,-4.9627,-5.071,-5.142,-5.1726,-4.9757,-5.0158,-5.2131,-4.9593,0.0,0.0,0.0,0.0,0.0,0.0,0.0,0.0,0.0,0.0,0.0,0.0,0.0,0.0,0.0,0.0,0.0,0.0,0.0,0.0,0.0,0.0,0.0,0.0,0.0,0.0,0.0,0.0,0.0,0.0,0.0,0.0,0.0,0.0,0.0,0.0,0.0,0.0,0.0,-4.3627,-4.4635,-4.3608,-4.5002,-4.5553,0.0,0.0,0.0,0.0,0.0,0.0,0.0,0.0,0.0,-4.9131,-4.9517,-5.0508,-5.2123,-5.2417,-5.3078,-5.4179,-5.4803,-5.4987,-5.4876,-5.5207,-5.5176,-5.4771,-5.4749,-5.2645,-4.9058,-4.7737,-4.6232,-4.4634,0.0,0.0,0.0,0.0,-4.2818,-4.3266,0.0,0.0,0.0,0.0,0.0,0.0,0.0,0.0,0.0,0.0,0.0,0.0,-5.0135,-5.0371,-5.0608,-5.1183,-5.2942,-5.2909,-5.0338,-5.1352,-5.1251,-4.9357,-4.9086,-4.9018,-4.9018,-4.7733,-4.709,-4.7124,-4.912,-5.027,-5.0676,-5.1826,-5.2638,-5.3112,-5.1959,-5.1858,-5.2337,-4.9684,-4.8778,-4.9078,0.0,0.0,0.0,0.0,0.0,0.0,0.0,0.0,0.0,0.0,0.0,0.0,0.0,0.0,0.0,0.0,0.0,0.0,0.0,0.0,0.0,0.0,0.0,0.0,0.0,0.0,0.0,0.0,0.0,0.0,0.0,0.0,0.0,0.0,0.0,0.0,0.0,-4.5315,-4.6342,-4.4342,-4.6617,-4.748,0.0,0.0,0.0,0.0,0.0,0.0,-4.9187,-5.0251,-5.1279,-5.2307,-5.2527,-5.3408,-5.5023,-5.4252,-5.517,-5.7703,-5.6895,-5.7152,-5.8327,-5.8327,-5.7789,-5.6887,-5.6668,-5.5198,-5.2756,-5.0134,-4.8118,-4.6463,-4.4222,-4.3768,-4.4408,-4.3989,-4.4079,-4.45,0.0,0.0,0.0,0.0,0.0,0.0,0.0,0.0,0.0,0.0,0.0,-4.638,-5.071,-5.115,-5.2029,-5.416,-5.3179,-5.2672,-5.3247,-5.0101,-4.8748,-4.9965,-4.9357,-4.9018,-4.9018,-4.824,-4.8852,-5.0914,-5.0371,-5.0811,-5.2232,-5.4465,-5.5478,-5.5546,-5.6153,-5.5149,-5.2719,-4.8952,-4.8262,-4.9651,-4.9851,0.0,0.0,0.0,0.0,0.0,0.0,0.0,0.0,0.0,0.0,0.0,0.0,0.0,0.0,0.0,0.0,0.0,0.0,0.0,0.0,0.0,0.0,0.0,0.0,0.0,0.0,0.0,0.0,0.0,0.0,0.0,0.0,0.0,0.0,0.0,0.0,0.0,0.0,-4.5883,-4.9297,0.0,0.0,0.0,0.0,-4.8196,-5.0325,-5.172,-5.1793,-5.3298,-5.4876,-5.6455,-5.7226,-5.84,-6.0015,-5.9221,-5.9318,-6.0199,-5.9404,-5.9038,-5.9148,-5.9148,-5.8337,-5.6861,-5.6087,-5.5285,-5.4256,-5.1263,-4.9171,-4.7619,-4.5377,-4.497,-4.5416,-4.3959,-4.3925,-4.4473,0.0,0.0,0.0,0.0,0.0,-4.018,-4.0451,-4.1508,-4.2929,-4.4756,-4.6007,-4.824,-5.2232,-5.3112,-5.4093,-5.5852,-5.5953,-5.5209,-5.3619,-5.1758,-5.0541,-5.0101,-4.8951,-4.8308,-4.8308,-4.8007,-4.8781,-5.0473,-5.1183,-5.2536,-5.4532,-5.5309,-5.6224,-5.7101,-5.6612,-5.5696,-5.4274,-5.1159,-4.9856,-4.9787,-4.7983,-4.7665,0.0,0.0,0.0,0.0,0.0,0.0,0.0,0.0,0.0,0.0,0.0,0.0,0.0,0.0,0.0,0.0,0.0,0.0,0.0,0.0,0.0,0.0,0.0,0.0,0.0,0.0,0.0,0.0,0.0,0.0,0.0,0.0,0.0,0.0,0.0,0.0,0.0,-5.205,-5.4326,0.0,-5.238,-5.2013,-5.2013,-5.2197,-5.3518,-5.4766,-5.5794,-5.6895,-5.7997,-5.9098,-5.9391,-6.0089,-6.1153,-6.0382,-6.0126,-6.0382,-5.9588,-5.8927,-5.8414,-5.7935,-5.7139,-5.6059,-5.532,-5.4575,-5.3813,-5.2721,-5.1371,-4.9799,-4.7597,-4.6887,-4.7027,-4.6486,-4.6481,-4.6752,0.0,0.0,0.0,0.0,0.0,-3.9808,-4.0079,-4.1365,-4.2658,-4.3701,-4.5771,-4.8578,-5.2334,-5.3619,-5.5006,-5.7002,-5.6697,-5.5683,-5.3991,-5.1725,-5.0338,-5.0101,-4.8951,-4.8142,-4.7906,-4.8615,-4.9627,-5.0845,-5.2097,-5.3619,-5.5344,-5.5546,-5.6359,-5.7507,-5.7014,-5.6545,-5.6058,-5.3953,-5.2033,-5.0189,-4.8321,-4.8748,-5.0236,0.0,0.0,0.0,0.0,0.0,0.0,0.0,0.0,0.0,0.0,0.0,0.0,0.0,0.0,0.0,0.0,0.0,0.0,0.0,0.0,0.0,0.0,0.0,0.0,0.0,0.0,0.0,0.0,0.0,0.0,0.0,0.0,0.0,0.0,-5.1767,-5.4478,-5.5845,-5.7896,-5.847,-5.6579,-5.6198,-5.6161,-5.6418,-5.7409,-5.8474,-5.9575,-6.0102,-6.0652,-6.119,-6.1227,-6.1337,-6.1594,-6.0786,-6.0419,-6.0382,-5.9588,-5.8914,-5.8377,-5.7651,-5.6698,-5.5667,-5.4939,-5.4168,-5.3484,-5.3213,-5.2503,-5.1454,-4.9965,-4.9224,-4.8954,-4.8748,-4.8477,-4.8308,0.0,0.0,0.0,0.0,0.0,-3.9217,-3.9977,-4.1365,-4.2286,-4.2286,-4.435,-4.7192,-5.0813,-5.2672,-5.4769,-5.7679,-5.5175,-5.3788,-5.4499,-4.9627,-4.7699,-4.9898,-4.9289,-4.8612,-4.8007,-5.0101,-5.1555,-5.2334,-5.3112,-5.389,-5.4634,-5.5378,-5.6122,-5.69,-5.7611,-5.7949,-5.7915,-5.7171,-5.4649,-5.1105,-5.1195,-5.2164,-5.3247,0.0,0.0,0.0,0.0,0.0,0.0,0.0,0.0,0.0,0.0,0.0,0.0,0.0,0.0,0.0,0.0,0.0,0.0,0.0,0.0,0.0,0.0,0.0,0.0,0.0,0.0,0.0,0.0,0.0,0.0,0.0,0.0,0.0,-4.9647,-5.3152,-5.5955,-5.6914,-5.9735,-6.0738,-5.8477,-6.0346,-6.1374,-6.0603,-6.1998,-6.2879,-6.2842,-6.2842,-6.2817,-6.278,-6.278,-6.2401,-6.1594,-6.0823,-6.0419,-6.0346,-5.9551,-5.9184,-5.91,-5.8352,-5.7164,-5.5638,-5.4878,-5.4171,-5.345,-5.2638,-5.23,-5.23,-5.2266,-5.1826,-5.1082,-5.0371,-4.9627,-4.8883,0.0,0.0,0.0,-3.9167,-3.9108,-3.8994,-3.9269,-4.1001,-4.2286,-4.2286,-4.5669,-4.9086,-5.1725,-5.4329,-5.6664,-5.8524,-5.5006,-5.301,-5.3754,-4.8409,-4.594,-4.7631,-4.6989,-4.7767,-5.0238,-5.0371,-5.1319,-5.3179,-5.3382,-5.416,-5.5412,-5.5615,-5.6664,-5.8423,-5.8626,-5.8998,-5.9438,-5.8727,-5.8073,-5.7248,-5.3484,-5.2604,-5.3247,0.0,0.0,0.0,0.0,0.0,0.0,0.0,0.0,0.0,0.0,0.0,0.0,0.0,0.0,0.0,0.0,0.0,0.0,0.0,0.0,0.0,0.0,0.0,0.0,0.0,0.0,0.0,0.0,0.0,0.0,0.0,-5.0158,-5.2344,-5.376,-5.6333,-5.9118,-6.1777,-6.3285,-6.4126,-6.416,-6.4237,-6.42,-6.398,-6.4383,-6.4383,-6.3759,-6.3723,-6.3466,-6.2817,-6.278,-6.2401,-6.1594,-6.1374,-6.0676,-5.9515,-5.9294,-5.8616,-5.7529,-5.6716,-5.585,-5.4878,-5.4139,-5.3684,-5.345,-5.2638,-5.23,-5.2266,-5.1725,-5.1048,-5.0371,-5.0168,-4.9627,-4.8883,0.0,0.0,0.0,-3.8304,-3.7979,-3.779,-3.8421,-3.9857,-4.0746,-4.0481,-4.4522,-4.8001,-4.9591,-5.2761,-5.5214,-5.6385,-5.3382,-5.1488,-5.1623,-4.8071,-4.6075,-4.6312,-4.7124,-4.8545,-5.071,-5.0913,-5.1826,-5.3518,-5.3822,-5.4566,-5.5681,-5.6325,-5.7476,-5.9032,-5.9336,-5.9708,-6.008,-5.9641,-5.9911,-6.0317,-5.6934,-5.6224,-5.6833,-5.3315,-5.3145,-5.4532,-5.2536,-5.3213,-5.4668,-5.2198,0.0,0.0,0.0,0.0,0.0,0.0,0.0,0.0,0.0,0.0,0.0,0.0,0.0,0.0,0.0,0.0,0.0,0.0,0.0,0.0,0.0,0.0,0.0,0.0,-5.3261,-5.55,-5.7776,-5.8941,-6.0675,-6.3675,-6.4642,-6.555,-6.691,-6.6586,-6.6329,-6.6329,-6.5999,-6.5448,-6.464,-6.4273,-6.3686,-6.2817,-6.278,-6.2254,-6.1117,-6.108,-6.0309,-5.8671,-5.8373,-5.7763,-5.6861,-5.5724,-5.5029,0.0,-5.3849,-5.3518,-5.3416,-5.23,-5.186,0.0,0.0,0.0,0.0,0.0,-4.9357,-4.8883,0.0,0.0,0.0,-3.7308,-3.6545,-3.6143,-3.7473,-3.8363,-3.8616,-3.779,-4.1917,-4.519,-4.5778,-4.9197,-5.1759,-5.263,-5.0793,-4.9323,-4.868,-4.7936,-4.7158,-4.6244,-4.8781,-5.0236,-5.0338,-5.1792,-5.2909,-5.3619,-5.4262,-5.5006,-5.5852,-5.7239,-5.8321,-5.9167,-5.9979,-6.0351,-6.0351,-6.0351,-6.0757,-6.1366,-6.0554,-6.0994,-6.1637,-5.6867,-5.7476,-6.0351,-5.6934,-5.5952,-5.619,-5.5074,0.0,0.0,0.0,0.0,0.0,0.0,0.0,0.0,0.0,0.0,0.0,0.0,0.0,0.0,0.0,0.0,0.0,0.0,0.0,0.0,0.0,0.0,0.0,0.0,-5.6415,-5.8137,-6.1166,-6.0955,-6.1376,-6.3863,-6.4653,-6.5712,-6.7515,-6.7614,-6.7577,-6.7687,-6.688,-6.6035,-6.5338,0.0,0.0,0.0,0.0,-6.1961,-6.0419,-6.0309,-5.9501,-5.7997,-5.7277,-5.6861,-5.6695,-5.5267,-5.4575,-5.4419,-5.3783,-5.3518,-5.3382,-5.1928,-5.1251,-5.1082,-5.098,-5.0541,-4.9898,-4.9255,-4.9018,-4.8883,0.0,0.0,0.0,-3.5851,-3.5834,-3.5925,-3.6784,-3.8043,-3.8424,-3.7142,-4.0858,-4.3493,-4.3202,-4.6353,-4.9094,-5.0554,-4.8149,-4.6481,-4.6346,-4.5635,-4.6413,-4.912,-5.0371,-5.1285,-5.186,-5.3348,-5.4228,-5.4397,-5.4532,-5.5277,-5.6596,-5.7476,-5.8592,-5.9945,-6.1332,-6.1941,-6.1941,-6.1941,-6.2042,-6.211,-6.1366,-6.0858,-6.0351,-5.8761,-5.7949,-5.7509,-5.619,-5.7645,-5.9742,-5.6562,-5.7103,-5.8558,-5.5243,-5.2131,0.0,0.0,0.0,0.0,0.0,0.0,0.0,0.0,0.0,0.0,0.0,0.0,0.0,0.0,0.0,0.0,0.0,0.0,0.0,-5.5049,-5.7416,-5.9408,-6.1353,-6.1952,-6.2939,-6.4829,-6.5028,-6.5712,-6.7515,-6.71,-6.699,-6.7677,-6.6366,-6.5485,-6.5301,-6.453,-6.3686,-6.2817,-6.2181,-6.1374,-6.0419,-5.9735,-5.8951,-5.7997,0.0,0.0,-5.5893,-5.5029,-5.4264,-5.3684,-5.3551,-5.3518,-5.345,-5.2469,-5.1386,-5.0236,-4.9661,-4.9357,-4.9187,-4.9052,-4.9018,-4.8815,0.0,0.0,0.0,-3.4411,-3.4906,-3.5383,-3.6046,-3.7046,-3.7485,-3.6792,-3.944,-4.1307,-4.1053,-4.3941,-4.6085,-4.6526,-4.5307,-4.4891,-4.5669,-4.638,-4.8105,-5.1082,-5.23,-5.3247,-5.3991,-5.4769,-5.5141,-5.5141,-5.5513,-5.6258,-5.7374,-5.849,-5.9607,-6.0757,-6.1873,-6.2584,-6.2922,-6.255,-6.2618,-6.2888,-6.2144,-6.1603,-6.1129,-5.9979,-5.9336,-5.8896,-5.778,-5.8321,-5.9302,-5.7442,-5.7306,-5.7543,-5.531,-5.3044,-5.1048,0.0,0.0,0.0,0.0,0.0,0.0,0.0,0.0,0.0,0.0,0.0,0.0,0.0,0.0,-4.7797,-4.9677,0.0,-5.4448,-5.7982,-5.9231,-6.0304,-6.1916,-6.2133,-6.2557,-6.3884,-6.4302,-6.5136,-6.6919,-6.6366,-6.6402,-6.7614,-6.6586,-6.5742,-6.5338,-6.4934,-6.3943,-6.2254,-6.1814,-6.1006,-5.9832,-5.9404,-5.8804,-5.7997,-5.685,-5.6087,-5.5667,-5.4544,-5.3848,-5.3518,-5.3518,-5.3518,-5.3416,-5.2232,-5.1082,-5.0033,-4.9289,-4.9018,-4.9018,-4.9018,-4.9018,-4.8849,0.0,0.0,0.0,-3.3633,-3.4379,-3.5094,-3.572,-3.6406,-3.6812,-3.6656,-3.8278,-3.9399,-3.9311,-4.1687,-4.3169,-4.2891,-4.3355,-4.4418,-4.621,-4.8139,-5.027,-5.2638,-5.4329,-5.5446,-5.5919,-5.6055,-5.6224,-5.6324,-5.6799,-5.7442,-5.8355,-5.9708,-6.0757,-6.1535,-6.2415,-6.3159,-6.3666,-6.3091,-6.3091,-6.3463,-6.2685,-6.2313,-6.2009,-6.0622,-6.0588,-6.1095,-5.9573,-5.8355,-5.7509,-5.778,-5.6427,-5.4532,-5.4228,-5.3416,-5.2164,-5.0202,-4.9763,0.0,0.0,0.0,0.0,0.0,0.0,0.0,0.0,-4.6549,-4.7192,-4.7936,-4.9255,-5.1238,-5.4264,-5.5531,-5.7272,-6.0854,-6.0924,-6.1096,-6.2723,-6.2266,-6.1914,-6.2474,-6.3357,-6.4496,-6.6103,-6.5558,-6.5742,-6.7357,-6.6402,-6.5632,-6.5338,-6.5007,-6.3833,-6.1667,-6.1594,-6.0823,-5.9221,-5.9184,-5.8804,-5.7973,-5.6438,-5.5724,-5.5667,-5.4171,-5.3518,-5.3518,-5.3518,-5.3518,-5.3382,-5.1995,-5.098,-5.0236,-4.9492,-4.912,-4.9018,-4.9018,-4.9018,-4.8883,0.0,0.0,0.0,0.0,0.0,-3.5796,-3.6469,-3.7199,-3.7451,-3.6869,-3.7995,-3.871,-3.8243,-3.9494,-4.0917,-4.2267,-4.3652,-4.5635,-4.8443,-4.9492,-5.1285,-5.4194,-5.6393,-5.7239,-5.6697,-5.7306,-5.7983,-5.866,-5.8051,-5.849,-5.9877,-6.0757,-6.1569,-6.2347,-6.3734,-6.441,-6.4478,-6.4377,-6.4038,-6.3463,-6.2685,-6.2009,-6.1332,-6.0452,-6.0588,-6.1095,-5.9573,-5.7712,-5.6156,-5.7442,-5.6427,-5.4803,-5.6055,-5.5006,-5.3179,-5.2198,-5.0608,-4.8951,-4.8007,-4.6819,-4.6109,-4.7229,-4.7158,-4.7597,0.0,-5.1488,-5.1792,-5.2604,-5.3923,-5.5074,-5.5482,-5.6704,-5.853,-6.1168,-6.1417,-6.192,-6.37,-6.3139,-6.2338,-6.1798,-6.3012,-6.4279,-6.5333,-6.4714,-6.4897,-6.6512,-6.453,-6.3807,-6.5228,-6.3906,-6.2622,-6.163,-6.1594,-6.0823,-5.9221,-5.9184,-5.8804,-5.7973,-5.6438,-5.5724,-5.5667,-5.4171,-5.3518,-5.3518,-5.3518,-5.3518,-5.345,-5.2536,-5.1758,-5.1014,-5.027,-4.956,-4.9018,-4.9018,-4.9018,-4.8883,0.0,0.0,0.0,0.0,0.0,-3.6417,-3.671,-3.7726,-3.8344,-3.8046,-3.8507,-3.8781,-3.8546,-3.9415,-4.046,-4.155,-4.2252,-4.4248,-4.8105,-4.9864,-5.2266,-5.5716,-5.7983,-5.9032,-5.8727,-5.9032,-5.9336,-5.9641,-5.9336,-5.9742,-6.0825,-6.1569,-6.2313,-6.3091,-6.414,-6.485,-6.5189,-6.4343,-6.4038,-6.4038,-6.2854,-6.1941,-6.1163,-5.9945,-5.8592,-5.7374,-5.7171,-5.6224,0.0,-5.5277,-5.5006,-5.4702,-5.531,-5.46,-5.3348,-5.2536,-5.1352,-4.9864,-4.78,-4.7767,-4.8206,-4.7939,-4.9323,-5.1319,-5.3754,-5.4634,-5.5277,-5.6461,-5.7915,-5.8964,-5.8964,-5.981,-6.1044,-6.2544,-6.2405,-6.2533,-6.3824,-6.2855,-6.1779,-6.1007,-6.1467,-6.2402,-6.3709,-6.3135,-6.3503,-6.5632,-6.442,-6.387,-6.4567,-6.3943,-6.2952,-6.163,-6.1594,-6.1043,-5.9905,-5.9404,-5.8835,-5.803,-5.6437,-5.5495,-5.4994,-5.3979,-5.3518,-5.3518,-5.3518,-5.3518,-5.345,-5.2638,-5.2131,-5.1725,-5.0541,-4.9898,-4.9593,-4.9154,-4.9018,-4.8883,0.0,0.0,0.0,0.0,0.0,-3.6862,-3.7062,-3.8332,-3.9236,-3.9236,-3.9236,-3.9236,-3.9236,-3.974,-4.0417,-4.1136,-4.1407,-4.3166,-4.7056,-4.956,-5.2401,-5.575,-5.8186,-5.9573,-5.981,-6.0013,-6.0216,-6.0419,-6.0419,-6.0825,-6.1603,-6.2144,-6.2888,-6.3835,-6.4377,-6.5121,-6.5899,-6.4444,-6.4005,-6.4174,-6.2685,-6.14,-6.0182,-5.8457,-5.619,-5.4025,-5.4566,-5.3653,-5.2198,-5.2469,-5.2503,-5.257,-5.3416,-5.3315,-5.2706,-5.1928,-5.1048,-4.9932,-4.8173,-4.8883,-5.0033,-4.983,-5.2097,-5.4871,-5.6528,-5.7509,-5.8355,-5.9438,-6.052,-6.1163,-6.0757,-6.1264,-6.2127,-6.3274,-6.2996,-6.299,-6.4123,-6.2727,-6.1199,-6.0176,-5.9685,-5.9942,-6.1337,-6.1337,-6.2218,-6.4457,-6.387,-6.3613,-6.4053,-6.387,-6.3062,-6.163,-6.1814,-6.1337,-6.0089,-5.9698,-5.8969,-5.7742,-5.6372,-5.532,-5.4575,-5.3849,-5.3518,-5.3518,-5.3518,-5.3518,-5.345,-5.2875,-5.2503,-5.2198,-5.1116,-5.0439,-5.0033,-4.9492,-4.9187,-4.8917,0.0,0.0,0.0,0.0,0.0,-3.7019,-3.7763,-3.9116,-4.0054,-4.0054,-4.0054,-4.0054,-4.0054,-4.0087,-4.0417,-4.1136,-4.1847,-4.3267,-4.5602,-4.8511,-5.115,-5.3518,-5.6393,-5.8287,-5.9032,-5.9742,-6.0486,-6.1264,-6.1264,-6.1637,-6.2347,-6.2381,-6.3159,-6.458,-6.458,-6.5425,-6.6677,-6.5189,-6.4174,-6.3429,-6.1941,-5.9979,-5.7746,-5.5547,-5.3754,-5.2367,-5.2401,-4.9627,-4.6413,-4.9255,-4.8781,-4.753,-5.0405,-5.1286,-5.115,-5.0371,-4.9154,-4.8277,-4.9627,-5.0033,-5.0777,-5.3687,-5.5547,-5.7273,-5.9471,-6.0588,-6.1197,-6.1231,-6.1264,-6.0858,-5.937,-5.9674,-6.075,-6.2543,-6.2712,-6.3225,-6.4994,-6.3103,-6.0928,-5.9443,-5.7863,-5.7226,0.0,-5.9538,-6.1117,-6.2743,-6.2144,-6.2365,-6.4016,-6.3319,-6.2475,-6.163,-6.2365,-6.1606,-5.9258,-6.0015,-5.9225,-5.6923,-5.6122,-5.532,-5.4575,-5.3849,-5.3518,-5.3518,-5.3518,-5.3518,-5.3518,-5.3484,-5.301,-5.23,-5.2266,-5.1352,-5.0101,-5.0067,-4.9593,-4.9018,0.0,0.0,0.0,0.0,0.0,0.0,-3.7134,-3.8396,-3.9571,-4.0045,-4.0113,0.0,0.0,0.0,0.0,0.0,-4.0967,-4.2042,-4.479,-4.7259,-4.9661,-5.1894,-5.531,-5.7306,-5.7543,-5.8761,-5.9505,-5.9776,-6.025,-6.0622,-6.0892,-6.1434,-6.1941,-6.2448,-6.2922,-6.37,-6.4512,-6.3057,-6.2279,-6.1873,-5.9844,-5.7983,-5.6258,-5.4532,-5.1995,-4.9297,0.0,-4.7943,-4.7158,-4.7192,-4.6989,-4.6887,-4.7394,-4.7902,-4.824,-4.797,-4.824,-4.8849,-4.983,-5.1928,-5.4431,-5.69,-5.9032,-6.096,-6.2685,-6.2922,-6.2482,-6.1501,-6.008,-5.8592,-5.7103,-5.7036,-5.8117,-6.0909,-6.211,-6.3333,-6.5065,-6.4579,-6.2819,-5.9564,-5.9184,-5.8657,-5.7336,0.0,0.0,-6.1851,-6.1741,-6.2071,-6.3172,-6.2989,-6.2695,-6.2401,-6.2658,-6.2144,-6.0823,-6.0529,-5.9219,-5.6898,-5.5061,-5.4106,-5.3848,-5.3618,-5.3518,-5.3518,-5.3518,-5.3518,-5.3518,-5.3518,-5.3348,-5.3044,-5.2503,-5.1691,-5.0777,-5.027,-4.9627,-4.9018,0.0,0.0,0.0,0.0,0.0,0.0,0.0,0.0,0.0,0.0,0.0,0.0,0.0,0.0,0.0,0.0,0.0,-4.1027,-4.3234,-4.5229,-4.7162,-4.9154,-5.2063,-5.3754,-5.4025,-5.5209,-5.5953,-5.6224,-5.7184,-5.7829,-5.8152,-5.8882,-5.9392,-5.9708,-6.0452,-6.1197,-6.1839,-6.0588,-5.9945,-5.9505,-5.7239,-5.5446,-5.389,-5.186,-4.9627,0.0,-4.5609,-4.5757,-4.6524,-4.5282,-4.5336,-4.5906,-4.5466,-4.5805,-4.6549,-4.7361,-4.8646,-5.0304,-5.2638,-5.5243,-5.7949,-6.0723,-6.2313,-6.3429,-6.4377,-6.3632,-6.2144,-6.0114,-5.7881,-5.5716,-5.3687,-5.3244,-5.437,-5.796,-5.9484,-6.1394,-6.4815,-6.431,-6.2805,-6.0725,-6.0199,-5.9355,-5.779,-5.8143,0.0,-6.0639,-6.1263,-6.1814,-6.2365,-6.2658,-6.278,-6.278,-6.278,-6.2291,-6.119,-6.0676,-5.9081,-5.6432,-5.4441,-5.3518,-5.3518,-5.3518,-5.3518,-5.3518,-5.3518,-5.3518,-5.3518,-5.3518,-5.3518,-5.345,-5.2942,-5.2266,-5.1555,-5.1048,-5.0236,-4.9357,0.0,0.0,0.0,0.0,0.0,0.0,0.0,0.0,0.0,0.0,0.0,0.0,0.0,0.0,0.0,0.0,0.0,0.0,-4.1102,-4.2496,-4.4012,-4.5466,-4.6959,-4.8139,-4.8815,-4.9593,-5.0338,-5.1016,-5.2426,-5.3492,-5.433,-5.4929,-5.565,-5.6462,-5.7243,-5.7952,-5.8595,-5.7848,-5.7137,-5.6325,-5.416,-5.2367,-5.0744,-4.7868,-4.6722,-4.63,-4.3297,-4.3202,-4.4355,-4.3562,-4.3923,-4.4716,-4.4682,-4.5196,-4.6312,-4.8511,-5.027,-5.2638,-5.778,-5.981,-6.1298,-6.4884,-6.5222,-6.4613,-6.4512,-6.2685,-6.0182,-5.7171,-5.4735,-5.2232,-4.9323,-4.8685,-4.9944,-5.4071,-5.5346,-5.8042,-6.4464,-6.2768,-6.1374,-6.2768,-6.0946,-5.9515,-5.9404,-5.9404,0.0,-5.9368,0.0,-6.163,-6.1667,-6.2438,-6.2879,-6.278,-6.278,-6.2071,-6.0493,-6.0347,-5.8725,-5.5674,-5.4237,-5.3551,-5.3518,-5.3518,-5.3518,-5.3518,-5.3518,-5.3518,-5.3518,-5.3518,-5.3518,-5.3518,-5.3518,-5.301,-5.23,-5.23,-5.1352,-4.9999,0.0,0.0,0.0,0.0,0.0,0.0,0.0,0.0,0.0,0.0,0.0,0.0,0.0,0.0,0.0,0.0,0.0,0.0,-4.0383,-4.1745,-4.276,-4.3132,-4.5162,-4.6346,-4.6549,-4.78,-4.8578,-4.8717,-4.9644,-5.0221,-5.0439,-5.1055,-5.1438,-5.1668,-5.2423,-5.3178,-5.3834,-5.3175,-5.2807,-5.2503,-5.0845,-4.9593,-4.8582,-4.7293,-4.6059,-4.4821,-4.3359,-4.278,-4.2738,-4.3169,-4.459,-4.6143,-4.5602,-4.6684,-4.8612,-5.0811,-5.3315,-5.6292,-6.0419,-6.326,-6.5459,-6.6948,-6.6373,-6.4986,-6.3328,-5.9945,-5.6427,-5.3957,-5.0371,-4.7293,-4.594,-4.6593,-4.8759,-5.3318,-5.6577,-6.0308,-6.5474,-6.6512,-6.6219,-6.4824,-6.464,-6.3906,-6.2046,-6.2475,-6.2585,0.0,-6.1704,-6.1851,-6.2475,-6.3282,-6.3466,-6.2817,-6.278,-6.2328,-6.13,-5.9574,-5.7652,-5.5719,-5.4766,-5.4025,-5.3518,-5.3518,-5.3518,-5.3518,-5.3518,-5.3518,-5.3518,-5.3518,-5.3518,-5.3518,-5.3518,-5.301,-5.23,-5.23,-5.1352,-5.0067,0.0,0.0,0.0,0.0,0.0,0.0,0.0,0.0,0.0,0.0,0.0,0.0,0.0,0.0,0.0,0.0,0.0,0.0,0.0,-4.0891,-4.1331,-4.1331,-4.2557,-4.3234,-4.3234,-4.4045,-4.4654,-4.4959,-4.5676,-4.6187,-4.6549,-4.7196,-4.7507,-4.7609,-4.867,-4.9389,-4.9774,-4.9783,-4.9731,0.0,0.0,-4.7293,-4.6794,-4.5693,-4.4704,-4.376,-4.2492,-4.204,-4.2206,-4.3735,-4.5387,-4.6989,-4.8206,-4.9898,-5.2029,-5.4871,-5.7408,-6.008,-6.3802,-6.6271,-6.7929,-6.8335,-6.6576,-6.3971,-6.1061,-5.7205,-5.3315,-5.0067,-4.665,-4.3978,-4.3234,-4.3416,-4.545,-5.0886,-5.4294,-5.8565,-6.5061,-6.6769,-6.7357,-6.7393,-6.7504,-6.688,-6.5118,-6.5375,-6.5338,0.0,-6.3686,-6.3282,-6.3356,-6.3833,-6.387,-6.3392,-6.3025,-6.2401,-6.1594,-5.9263,-5.7645,-5.6768,-5.5619,-5.4702,-5.3991,-5.3991,-5.3822,-5.3518,0.0,-5.3518,-5.3518,-5.3518,-5.3518,-5.3518,-5.3518,-5.3213,-5.2841,-5.2841,-5.186,-5.0574,0.0,0.0,0.0,0.0,0.0,0.0,0.0,0.0,0.0,0.0,-3.9039,-3.9242,0.0,0.0,0.0,0.0,0.0,0.0,0.0,0.0,-4.0113,-4.0113,-4.0113,-4.0113,-4.0113,-4.0113,-4.0417,-4.1068,-4.1631,-4.2293,-4.2963,-4.3632,-4.4044,-4.4347,-4.5711,-4.6389,-4.6496,-4.7187,-4.7462,-4.7361,-4.6075,-4.5568,-4.538,0.0,-4.3229,-4.2894,-4.1131,-4.11,-4.2238,-4.4754,-4.6493,-4.8139,-5.1522,-5.3923,-5.619,-5.9674,-6.1772,-6.3734,-6.7252,-6.8808,-6.9316,-6.9011,-6.6136,-6.2347,-5.849,-5.4465,-5.0371,-4.6109,-4.3436,-4.1644,-4.0899,-4.028,-4.1904,-4.7959,-5.0892,-5.5438,-6.4067,-6.5579,-6.6953,-7.0036,-6.9816,-6.9045,-6.8238,-6.8054,-6.7687,-6.688,-6.6182,-6.5338,-6.431,-6.4347,-6.4347,-6.4237,-6.3429,-6.2572,-6.1764,-5.9642,-5.8403,-5.8058,-5.6674,-5.555,-5.4735,-5.4735,-5.4397,-5.3788,-5.3788,0.0,-5.3653,-5.3653,-5.3585,-5.3518,-5.3518,-5.3518,-5.3518,-5.3518,-5.2604,-5.1352,0.0,0.0,0.0,0.0,0.0,0.0,0.0,0.0,0.0,0.0,-3.9377,-3.9039,0.0,0.0,0.0,0.0,0.0,0.0,0.0,0.0,0.0,-4.0113,-4.0113,-4.0113,-4.0113,-4.0113,-4.018,-4.0282,-4.0408,-4.0544,-4.0688,-4.1257,-4.1853,-4.2595,-4.3432,-4.4165,-4.4733,-4.5075,-4.5162,-4.5156,-4.4886,-4.4818,-4.4699,-4.3687,0.0,0.0,-4.0239,-4.0248,-4.1629,-4.5105,-4.8563,-5.1757,-5.3619,-5.6934,-6.0622,-6.3091,-6.4884,-6.6609,-6.9113,-7.0364,-7.0466,-6.8571,-6.5324,-6.1434,-5.7103,-5.1758,-4.6819,-4.3572,-4.1102,-3.9343,-3.8599,-3.9824,-4.2518,-4.7405,-5.1131,-5.6196,-6.4178,-6.703,-6.9229,-7.1798,-7.1945,-7.1578,-7.077,-7.0073,-6.9339,0.0,-6.8348,-6.7357,-6.5228,-6.5705,-6.5778,-6.5118,-6.431,-6.3466,-6.2593,-6.1512,-5.9983,-5.8022,-5.773,-5.685,-5.5513,-5.5513,-5.5446,-5.5344,-5.5344,0.0,-5.4397,-5.4397,-5.4059,-5.3518,-5.3518,-5.3518,-5.3518,-5.3518,-5.2909,-5.2131,0.0,0.0,0.0,0.0,0.0,0.0,0.0,-3.7449,-3.8759,-4.0959,-4.1636,-4.1441,-4.0257,-3.9783,-3.9537,0.0,0.0,0.0,0.0,0.0,0.0,0.0,-4.0113,-4.0113,-4.0113,-4.0113,-4.0113,-4.0113,0.0,-4.0113,-4.0113,-4.0368,-4.0901,-4.1663,-4.2381,-4.3134,-4.3833,-4.3946,-4.3978,-4.3978,-4.3978,-4.3978,-4.39,0.0,0.0,0.0,-3.8917,-3.9714,-4.1885,-4.4422,-4.8199,-5.2367,-5.5818,-5.9471,-6.2956,-6.5561,-6.6812,-6.7861,-7.0161,-7.1041,-7.077,-6.847,-6.4512,-5.9911,-5.504,-4.9627,-4.4818,-4.1771,-3.9681,-3.843,-3.8464,-3.9039,-4.0864,-4.4997,-4.7924,-5.2633,-6.1136,-6.4075,-6.7149,-7.1916,-7.2496,-7.2496,-7.2569,-7.1835,-7.0844,-6.9633,-6.9522,-6.8641,-6.6659,-6.6512,-6.6145,-6.5338,-6.4934,-6.4339,-6.3483,-6.2227,-6.0823,-5.9243,-5.8357,-5.736,-5.6292,-5.6292,-5.6089,-5.5647,-5.531,0.0,-5.4566,-5.4194,-5.3822,-5.3518,-5.3518,-5.3518,-5.3518,-5.3518,-5.2976,-5.23,0.0,0.0,0.0,0.0,0.0,0.0,-3.755,-3.8667,-4.0087,-4.2455,-4.387,-4.3842,-4.188,-4.0629,-3.9681,0.0,0.0,0.0,0.0,0.0,0.0,0.0,0.0,0.0,0.0,0.0,0.0,-4.035,-4.018,0.0,0.0,0.0,0.0,0.0,-4.2219,-4.2963,-4.3673,-4.3673,-4.3673,0.0,0.0,-4.3673,0.0,0.0,0.0,0.0,0.0,-3.9482,-4.1821,-4.3525,-4.6944,-5.1252,-5.5716,-5.9844,-6.3531,-6.6,-6.7286,-6.8368,-7.05,-7.1176,-7.0737,-6.8267,-6.3734,-5.849,-5.3281,-4.8071,-4.3464,-4.0282,-3.87,-3.799,-3.8227,-3.7956,-3.884,-4.2417,-4.4481,-4.8776,-5.7834,-6.1117,-6.4977,-7.1484,-7.2863,-7.3377,-7.367,-7.312,0.0,-7.0477,-7.0036,-6.9229,-6.776,-6.71,-6.6476,-6.5852,-6.5668,-6.5264,-6.4604,-6.2803,-6.1463,-6.0614,-5.8978,-5.7759,-5.7036,-5.7036,-5.6731,-5.6156,-5.5547,0.0,0.0,-5.4228,-5.3788,-5.3518,-5.3518,-5.3518,-5.3518,-5.3518,-5.3112,-5.257,0.0,0.0,0.0,0.0,0.0,0.0,-3.7449,-3.9082,-4.1068,-4.4005,-4.4513,-4.4215,-4.3301,-4.3071,-4.1914,0.0,0.0,0.0,0.0,0.0,0.0,0.0,0.0,0.0,0.0,0.0,0.0,-4.1102,-4.0451,0.0,0.0,0.0,0.0,0.0,0.0,-4.3741,-4.4513,-4.4513,0.0,0.0,0.0,0.0,0.0,0.0,0.0,0.0,0.0,-3.972,-4.0408,-4.2661,-4.556,-4.8514,-5.0338,-5.5784,-6.1704,-6.2618,-6.5256,-6.8233,-6.9857,-7.0804,-7.0601,-6.7658,-6.299,-5.7746,-5.2503,-4.7229,-4.2462,-3.887,-3.799,-3.7516,-3.614,-3.6434,-3.7902,-4.09,-4.326,-4.7688,-5.6237,-6.1268,-6.5912,-7.0832,-7.4001,-7.5212,-7.3817,-7.3634,-7.2936,-7.1321,-6.9853,0.0,-6.7724,-6.7614,-6.754,-6.7467,-6.6769,-6.6366,-6.6292,-6.3864,-6.2289,-6.1455,-5.979,-5.8564,-5.778,-5.778,-5.7746,-5.7679,-5.7611,0.0,0.0,-5.5547,-5.4735,-5.3518,-5.3518,-5.3518,-5.3518,-5.3518,-5.345,-5.3382,0.0,0.0,0.0,0.0,0.0,0.0,-3.7449,-3.9149,-4.1313,-4.479,-4.6413,-4.6616,-4.4959,-4.5196,-4.3707,-3.9377,0.0,0.0,0.0,0.0,0.0,0.0,0.0,0.0,0.0,0.0,-4.0485,-4.1204,-4.0899,0.0,0.0,0.0,0.0,0.0,0.0,-4.3842,-4.4581,-4.4079,0.0,0.0,0.0,0.0,0.0,0.0,0.0,0.0,0.0,0.0,-4.0649,-4.1194,-4.3084,-4.5229,-4.5365,-4.868,-5.3585,-5.8829,-6.2042,-6.4647,-6.7929,-7.0026,-7.0601,-6.7557,-6.2212,-5.6562,-5.2165,-4.6481,-4.1542,-3.9614,-3.8531,-3.7719,-3.7087,-3.6502,-3.6876,-3.9294,-4.0089,-4.2975,-5.0485,-5.3647,-5.8113,-6.6207,-6.9107,-7.1304,-7.3494,0.0,-7.3046,-7.1403,-7.0257,0.0,-6.8458,-6.7944,-6.7687,-6.7687,-6.7393,-6.6769,-6.5778,-6.3812,-6.2149,-6.0857,-5.9183,-5.8209,-5.7881,-5.7881,-5.7881,-5.7848,-5.6968,0.0,0.0,-5.4735,-5.4025,-5.3518,-5.3518,-5.3518,-5.3518,-5.3518,-5.3518,-5.3518,0.0,0.0,0.0,0.0,0.0,-3.4336,-3.7144,-3.9005,-4.1204,-4.4282,-4.665,-4.7428,-4.5872,-4.5771,-4.4316,-4.0629,-4.0155,0.0,0.0,0.0,0.0,0.0,0.0,0.0,0.0,0.0,-4.0587,-4.1542,-4.1305,-4.1711,0.0,0.0,-4.2895,-4.3409,0.0,0.0,0.0,0.0,0.0,0.0,0.0,0.0,0.0,0.0,0.0,0.0,0.0,0.0,0.0,0.0,0.0,-4.2658,-4.2151,-4.3436,-4.6549,-5.3653,-5.7746,-6.0791,-6.458,-6.759,-6.8977,-6.6203,-6.0791,-5.5175,-5.142,-4.5703,-4.0933,-3.9977,-3.8937,-3.8091,-3.7652,-3.6705,-3.6469,-3.8083,-3.8296,-4.0425,-4.6542,-4.9103,-5.3408,-6.1625,-6.4548,-6.7603,-7.188,-7.312,-7.312,-7.1762,-7.0917,0.0,-6.9302,-6.8495,-6.7944,-6.7714,-6.7687,-6.6946,-6.5304,-6.3615,-6.1994,-6.0375,-5.8701,-5.7881,-5.7881,-5.7881,-5.7881,-5.7814,-5.6799,0.0,0.0,-5.46,-5.389,-5.3518,-5.3518,-5.3518,-5.3518,-5.3518,-5.3518,-5.3518,0.0,0.0,0.0,0.0,0.0,-3.4167,-3.6457,-3.8691,-4.0654,-4.2117,-4.4316,-4.5737,-4.5703,-4.435,-4.3409,-4.3341,-4.1339,0.0,0.0,0.0,0.0,0.0,0.0,0.0,0.0,0.0,-4.0823,-4.2286,-4.1576,-4.1948,-4.3375,-4.3375,-4.3375,-4.3409,0.0,0.0,0.0,0.0,0.0,0.0,0.0,0.0,-4.3323,0.0,0.0,0.0,0.0,0.0,0.0,0.0,0.0,0.0,0.0,-4.1238,-4.2151,-4.6718,-5.2232,-5.734,-5.9573,-6.2888,-6.5222,-6.299,-5.849,-5.3619,-4.9864,-4.4959,-4.0798,-3.9309,-3.9005,-3.8531,-3.71,-3.6795,-3.6945,-3.7431,-3.8807,-4.1347,-4.5858,-5.0462,-5.458,-5.7959,-6.1744,-6.5411,-6.8641,-7.1835,-7.334,-7.2569,-7.1762,0.0,-7.011,-6.9339,-6.8531,-6.7724,-6.7687,-6.6912,-6.5229,-6.3622,-6.1988,-6.0391,-5.8692,-5.7881,-5.7881,-5.7881,-5.7881,0.0,0.0,0.0,0.0,-5.5647,-5.4837,-5.3518,-5.3518,-5.3518,-5.3518,-5.3518,-5.3518,-5.3518,0.0,0.0,0.0,0.0,0.0,0.0,-3.5723,-3.7043,-3.8556,-4.0553,-4.2286,-4.3775,-4.4823,-4.3572,-4.2861,-4.3341,-4.1373,0.0,0.0,0.0,0.0,0.0,0.0,0.0,0.0,-4.0595,-4.1576,-4.3064,-4.3369,-4.4012,-4.4993,-4.55,-4.5466,-4.4993,-4.5229,-4.5365,0.0,0.0,0.0,0.0,0.0,-4.4108,-4.3378,0.0,0.0,0.0,0.0,0.0,0.0,0.0,0.0,0.0,0.0,0.0,0.0,-4.2151,-4.6447,-5.1319,-5.4025,-5.6765,-5.8457,-5.6731,-5.3145,-4.9458,-4.7259,-4.347,-4.0316,-3.9876,-3.9368,-3.87,-3.7719,-3.7144,-3.7478,-3.9548,-4.0262,-4.1917,-4.5882,-4.9564,-5.3661,-5.8417,-6.5767,-7.1144,0.0,0.0,-7.3377,-7.2569,0.0,0.0,-7.0183,-6.9853,-6.9082,-6.7724,-6.7687,-6.6628,-6.4405,-6.3853,-6.2244,-5.9526,-5.8944,-5.8458,-5.7881,-5.7881,-5.7881,0.0,0.0,0.0,0.0,-5.4634,-5.3923,-5.3518,-5.3518,-5.3518,-5.3518,-5.3518,-5.3518,-5.3518,0.0,0.0,0.0,0.0,0.0,0.0,-3.5047,-3.6096,-3.7405,-3.9039,-4.029,-4.1847,-4.391,-4.2523,-4.1982,-4.3274,-4.1373,0.0,0.0,0.0,0.0,0.0,0.0,0.0,-4.0113,-4.0832,-4.2083,-4.3842,-4.4891,-4.5805,-4.6549,-4.7293,-4.6955,-4.5703,-4.6007,-4.5805,0.0,0.0,0.0,0.0,-4.4479,-4.3944,-4.3031,0.0,0.0,0.0,0.0,0.0,0.0,0.0,0.0,0.0,0.0,0.0,0.0,0.0,-4.2388,-4.5669,-4.8951,-5.1657,-5.3315,-5.2097,-4.9424,-4.6684,-4.5196,-4.2388,-4.0011,-3.974,-3.9512,-3.9005,-3.7719,-3.7347,-3.7659,-3.9029,-3.973,-4.1163,-4.4307,-4.8198,-5.3064,-5.941,-6.7559,0.0,0.0,-7.356,-7.3707,-7.2569,0.0,0.0,-7.0183,-6.9522,-6.8715,-6.7724,-6.7076,-6.5581,-6.3137,-6.3072,-6.16,-5.8668,-5.8942,-5.8703,-5.7881,-5.7881,-5.7881,0.0,0.0,0.0,0.0,-5.4397,-5.3754,-5.3518,-5.3518,-5.3518,-5.3518,-5.3518,-5.3518,-5.3518,0.0,0.0,0.0,0.0,0.0,0.0,0.0,-3.5791,-3.6975,-3.7787,-3.8497,-4.002,-4.2861,-4.1271,-4.0865,-4.297,-4.1238,0.0,0.0,0.0,0.0,0.0,0.0,0.0,-4.0113,-4.0865,-4.2354,-4.4615,-4.6109,-4.7259,-4.7973,-4.8815,-4.797,-4.5906,-4.6583,-4.6007,-4.4615,-4.4615,-4.4147,-4.3572,-4.4215,-4.3667,0.0,0.0,0.0,0.0,0.0,0.0,0.0,0.0,0.0,0.0,0.0,0.0,0.0,0.0,0.0,0.0,0.0,-4.7293,-4.9221,-4.8545,-4.6819,-4.4925,-4.3504,-4.1576,0.0,-3.914,-3.9605,-3.9436,-3.7269,-3.753,-3.775,-3.687,-3.8023,-3.9834,-4.2178,-4.7228,-5.3469,-6.103,-6.7524,0.0,-6.9146,-7.2467,-7.4111,0.0,0.0,0.0,-7.0073,-6.8531,-6.7614,-6.745,-6.5807,-6.395,-6.1792,-6.1628,-6.0375,-5.7991,-5.8737,-5.8703,-5.7881,-5.7881,-5.7848,0.0,0.0,0.0,0.0,-5.4837,-5.4126,-5.3518,-5.3518,-5.3518,-5.3518,-5.3518,-5.3518,-5.3518,0.0,0.0,0.0,0.0,0.0,0.0,0.0,0.0,0.0,0.0,-3.8058,-3.8836,-4.0663,-3.991,-3.9706,0.0,0.0,0.0,0.0,0.0,0.0,0.0,0.0,0.0,-4.0113,-4.1399,-4.2861,-4.4615,-4.665,-4.8037,-4.8781,-5.0067,-4.9526,-4.7365,-4.7564,-4.6515,-4.4615,-4.4615,-4.4513,-4.4282,-4.3842,-4.347,0.0,0.0,0.0,0.0,-4.0544,-4.0248,0.0,0.0,0.0,0.0,0.0,0.0,0.0,0.0,-4.0113,-4.0282,-4.1196,0.0,-4.2414,-4.2245,-4.1805,-4.1331,0.0,-4.0485,-3.991,-3.914,-3.9605,-3.9605,-3.7956,-3.8561,-3.9525,-3.9997,-4.1243,-4.3332,-4.6797,-5.3737,-6.0129,-6.4684,-6.9151,-7.1316,-6.9926,-7.1772,-7.2642,0.0,0.0,-7.0036,-6.9229,-6.8238,-6.6848,-6.4916,-6.3293,-6.276,-6.3428,-6.222,-6.0633,-5.8806,-5.901,-5.8703,-5.7881,-5.7881,-5.7577,0.0,0.0,0.0,-5.4803,-5.4059,-5.3653,-5.3518,-5.3518,-5.3518,-5.3518,-5.3518,-5.3518,-5.3518,0.0,0.0,0.0,0.0,0.0,0.0,0.0,0.0,0.0,0.0,-3.7922,-3.8464,-3.9943,-3.9436,-3.93,0.0,0.0,0.0,0.0,0.0,0.0,0.0,0.0,-4.0113,-4.0113,-4.1568,-4.3369,-4.5602,-4.7834,-4.9458,-5.0541,-5.1352,-5.0371,-4.7838,-4.6853,-4.5906,-4.506,-4.475,-4.4412,-4.4045,-4.3978,0.0,0.0,0.0,0.0,0.0,-4.0121,-3.9876,0.0,-3.9978,-4.0113,-4.0113,0.0,0.0,0.0,0.0,-4.0113,-4.0113,-4.0113,-4.0113,-4.0113,-4.0113,-4.0113,-4.0113,-4.0113,-4.0113,-3.991,-3.914,-3.9605,-3.9673,-3.8159,-3.8751,-3.9587,-4.0104,-4.1375,-4.4242,-4.982,-5.6547,-6.2277,-6.5878,-6.9785,-7.1932,0.0,0.0,0.0,0.0,0.0,-6.9192,-6.8385,-6.7247,-6.5788,-6.4043,-6.2062,-6.1273,-6.1756,-6.0896,-5.9828,-5.8564,-5.8943,-5.8703,-5.7881,-5.7881,-5.7476,0.0,0.0,0.0,-5.4532,-5.3788,-5.3518,-5.3518,-5.3518,-5.3518,-5.3518,-5.3518,-5.3518,-5.3518,0.0,0.0,0.0,0.0,0.0,0.0,0.0,0.0,0.0,0.0,0.0,0.0,0.0,0.0,0.0,0.0,0.0,0.0,0.0,0.0,0.0,0.0,-4.0045,-4.0214,-4.0451,-4.1542,-4.3606,-4.6616,-4.8849,-5.0676,-5.2131,-5.2503,-5.1014,-4.7973,-4.5872,-4.5162,-4.55,-4.4886,-4.4215,-4.3639,-4.4045,0.0,0.0,0.0,0.0,0.0,0.0,0.0,0.0,-3.9876,-4.0113,-4.0113,-4.0113,0.0,0.0,0.0,0.0,0.0,-4.0248,-4.0451,-4.0519,-4.018,-4.0113,-4.0113,-4.0113,-4.0113,-3.991,-3.914,-3.9605,-3.9673,-3.8328,-3.8909,-3.9636,-3.9673,-4.1477,-4.5371,-5.2399,-5.7872,-6.2395,-6.5676,-6.9777,0.0,-7.1625,0.0,0.0,0.0,0.0,-6.8238,-6.754,-6.5999,-6.4675,-6.3653,-6.1628,-5.9984,-5.877,-5.8874,-5.8633,-5.8101,-5.8668,-5.8564,-5.7881,-5.778,-5.734,-5.6596,0.0,0.0,-5.4363,-5.3754,-5.3518,-5.3518,-5.3518,-5.3518,-5.3518,-5.3518,-5.3518,-5.3518,0.0,0.0,0.0,0.0,0.0,0.0,0.0,0.0,0.0,0.0,0.0,0.0,0.0,0.0,0.0,0.0,0.0,0.0,0.0,0.0,0.0,-3.9174,-3.9774,-4.0688,-4.1941,-4.1576,-4.2861,-4.5872,-4.8071,-4.9932,-5.1388,-5.3348,-5.23,-4.8781,-4.7158,-4.5805,-4.4784,-4.4649,-4.4547,-4.431,-4.3132,0.0,0.0,0.0,0.0,0.0,0.0,0.0,0.0,-4.0062,-4.0113,-4.0113,-4.0113,0.0,0.0,0.0,0.0,0.0,-4.0865,-4.1948,-4.2455,-4.0587,-4.0113,-4.0113,-4.0113,-4.0113,-3.991,-3.914,-3.9605,-3.9842,-3.8971,-4.0866,-4.2593,-4.2705,-4.7158,-5.2135,-5.6472,0.0,-6.3714,-6.4984,0.0,-7.0563,0.0,0.0,0.0,0.0,0.0,-6.6806,-6.6696,-6.5154,-6.3584,-6.2022,-6.1608,-6.0043,-5.7184,-5.7759,-5.8388,-5.8909,-5.8352,-5.8027,-5.7881,-5.7239,-5.6562,0.0,0.0,-5.4329,-5.3653,-5.3551,-5.3518,-5.3518,-5.3518,-5.3518,-5.3518,-5.3518,-5.3518,-5.3518,0.0,0.0,0.0,0.0,0.0,0.0,0.0,0.0,0.0,0.0,0.0,0.0,0.0,0.0,0.0,0.0,0.0,0.0,0.0,0.0,-3.8937,-4.0121,-4.0121,-4.0798,-4.2252,-4.276,-4.4688,-4.8071,-5.0338,-5.1995,-5.301,-5.2029,-5.0439,-4.8342,-4.6447,-4.5258,-4.4615,-4.4615,-4.4378,-4.3876,0.0,0.0,0.0,0.0,0.0,0.0,0.0,0.0,0.0,0.0,-4.0113,-4.0113,-4.0113,0.0,0.0,0.0,0.0,0.0,-4.0493,-4.1102,-4.1542,-4.1339,-4.1941,-4.2211,-4.0967,-4.1001,-4.1196,-4.0832,-4.073,-4.0696,-4.0764,-4.2176,-4.4402,-4.7661,-5.1877,-5.5621,-5.8121,-6.1116,-6.317,0.0,0.0,0.0,0.0,0.0,0.0,0.0,0.0,0.0,-6.5888,-6.4751,-6.313,-6.1025,-6.0576,-5.9425,-5.741,-5.6934,-5.708,-5.7842,-5.7895,-5.7679,-5.7273,-5.6934,-5.619,-5.5108,0.0,-5.416,-5.3518,-5.3518,-5.3518,-5.3518,-5.3518,-5.3518,-5.3518,-5.3518,-5.3518,-5.3518,0.0,0.0,0.0,0.0,0.0,0.0,0.0,0.0,0.0,0.0,0.0,0.0,0.0,0.0,0.0,0.0,0.0,0.0,0.0,-3.755,-3.8497,-4.0358,-4.0197,-4.1178,-4.3572,-4.4418,-4.6752,-5.0608,-5.2536,-5.3957,-5.4769,-5.1183,-4.8951,-4.7804,-4.5568,-4.4513,-4.4316,-4.4316,-4.4079,-4.3673,0.0,0.0,0.0,0.0,0.0,0.0,0.0,0.0,0.0,0.0,0.0,0.0,0.0,0.0,0.0,-4.0113,-4.0113,-4.0113,-4.0113,-4.035,-4.0823,-4.1602,-4.2685,-4.3362,-4.2658,-4.2658,-4.2963,-4.3504,-4.3031,-4.2591,-4.2794,-4.3876,-4.6515,-5.1961,-5.5513,-5.8084,-5.9607,-6.1824,-6.3324,-6.3222,-6.5756,0.0,0.0,0.0,0.0,0.0,0.0,0.0,-6.5044,-6.4237,-6.2767,-6.0463,-6.0042,-5.9061,-5.741,-5.6605,-5.6435,-5.6799,-5.7374,-5.7273,-5.6562,-5.6562,-5.5818,-5.4566,-5.4397,-5.4025,-5.3518,-5.3518,-5.3518,-5.3518,-5.3518,-5.3518,-5.3518,-5.3518,-5.3518,-5.3518,0.0,0.0,0.0,0.0,0.0,0.0,0.0,0.0,0.0,0.0,0.0,0.0,0.0,0.0,0.0,0.0,0.0,0.0,0.0,-3.6468,-3.7246,-3.8091,-3.9386,-4.2429,-4.7365,-4.6278,-4.7767,-5.2131,-5.3044,-5.4228,-5.5581,-5.247,-4.99,-4.7804,-4.5568,-4.4181,-4.3504,-4.3504,-4.3876,-4.4412,-4.2963,0.0,0.0,0.0,0.0,0.0,0.0,0.0,0.0,0.0,0.0,0.0,0.0,0.0,-4.0113,-4.0113,-4.0113,-4.0113,-4.0113,-4.1094,-4.1813,-4.0587,-4.035,-4.1467,-4.5466,-4.5365,-4.4993,-4.709,-4.6921,-4.5974,-4.4682,-4.6718,-4.9864,-5.3788,-5.7476,-6.0385,-6.1941,0.0,-6.5766,-6.5726,0.0,0.0,0.0,0.0,0.0,0.0,0.0,0.0,-6.42,-6.3356,-6.2122,-6.0427,-6.1077,-5.9618,-5.5886,-5.7191,-5.75,-5.6799,-5.6867,-5.6494,-5.5784,-5.5784,-5.5344,-5.4566,-5.389,-5.3551,-5.3518,-5.3518,-5.3518,-5.3518,-5.3518,-5.3518,-5.3518,-5.3518,-5.3518,-5.3518,0.0,0.0,0.0,0.0,0.0,0.0,0.0,0.0,0.0,0.0,0.0,0.0,0.0,0.0,0.0,0.0,0.0,0.0,0.0,-3.5893,-3.6806,-3.8497,-3.9106,-4.1441,-4.5737,-4.665,-4.9052,-5.3044,-5.3348,-5.4025,-5.4905,-5.0507,-4.8037,-4.709,-4.4384,-4.3267,-4.3375,-4.2929,-4.3166,-4.3707,-4.2219,-4.161,0.0,0.0,0.0,0.0,0.0,0.0,0.0,0.0,-4.0113,-4.0113,-4.0113,-4.0113,-4.0113,-4.0113,-3.9774,-3.9436,-3.9436,-4.0832,-4.2049,-4.1035,-4.1873,-4.3599,-4.6177,-4.7056,-4.7834,-4.9562,-5.0101,-4.9763,-4.8274,-4.9661,-5.2266,-5.6021,-5.8998,-6.1535,-6.3497,-6.4534,-6.4811,0.0,0.0,0.0,0.0,0.0,0.0,0.0,0.0,0.0,-6.3319,-6.2058,-6.0638,-5.9011,-5.8335,-5.7251,-5.5716,-5.5383,-5.5281,-5.5446,-5.5919,-5.575,-5.5006,-5.5006,-5.46,-5.389,-5.3619,-5.3518,-5.3518,-5.3518,-5.3518,-5.3518,-5.3518,-5.3518,-5.3518,-5.3518,-5.3518,-5.3518,0.0,0.0,0.0,0.0,0.0,0.0,0.0,0.0,0.0,0.0,0.0,0.0,0.0,0.0,0.0,0.0,0.0,0.0,-3.56,-3.56,-3.6411,-3.8227,-3.8531,-4.029,-4.3802,-4.5838,-4.8815,-5.2773,-5.3281,-5.3518,-5.3416,-4.9154,-4.7158,-4.7022,-4.3978,-4.32,-4.4045,-4.2828,-4.2726,-4.3274,-4.1813,-4.1204,0.0,0.0,0.0,0.0,0.0,0.0,0.0,0.0,-3.9774,-3.9774,-3.9774,-3.9774,-3.9774,-3.9774,-3.9377,-3.8903,-3.843,-3.958,-4.0899,-4.0865,-4.2354,-4.4756,-4.8139,-4.9323,-5.0473,-5.3112,-5.2942,-5.2063,-5.1319,-5.1589,-5.3112,0.0,-5.9505,-6.1738,-6.299,-6.3599,0.0,0.0,0.0,0.0,0.0,0.0,0.0,0.0,0.0,0.0,0.0,-6.084,-5.9498,-5.8161,-5.6811,-5.5881,-5.5344,-5.4363,-5.3991,-5.4262,-5.4769,-5.4735,-5.4262,-5.4465,-5.4194,-5.3518,-5.3518,-5.3518,-5.3518,-5.3518,-5.3518,-5.3518,-5.3518,-5.3518,-5.3518,-5.3518,-5.3518,-5.3518,0.0,0.0,0.0,0.0,0.0,0.0,0.0,0.0,-3.3694,-3.4404,-3.5148,0.0,0.0,0.0,0.0,0.0,0.0,0.0,-3.56,-3.56,-3.596,-3.6761,-3.7483,-3.9276,-4.2185,-4.3768,-4.6718,-5.1183,-5.2706,-5.2672,-5.1083,-4.8886,-4.7872,-4.7703,-4.4728,-4.422,-4.5534,-4.3234,-4.2726,-4.3274,-4.1813,-4.1204,-4.1136,0.0,0.0,0.0,0.0,0.0,0.0,0.0,-3.9005,-3.8971,-3.9005,-3.9005,-3.9005,-3.9005,-3.9005,-3.8667,-3.7202,-3.7347,-3.8294,-3.9774,-4.1264,-4.4316,-5.1792,-5.2334,-5.2672,-5.7949,-5.5446,-5.2604,-5.3382,-5.23,-5.2199,-5.5243,-5.8863,-6.0994,-6.0216,0.0,0.0,0.0,0.0,0.0,0.0,0.0,0.0,0.0,0.0,0.0,0.0,-5.9652,-5.8923,-5.8096,-5.73,-5.6122,-5.4601,-5.4566,-5.4228,-5.3518,-5.3518,-5.3518,-5.3518,-5.4262,-5.4194,-5.3518,-5.3518,-5.3518,-5.3518,-5.3518,-5.3518,-5.3518,-5.3518,-5.3518,-5.3518,-5.3518,-5.3518,-5.3518,0.0,0.0,0.0,0.0,0.0,0.0,0.0,0.0,-3.4438,-3.5182,-3.5464,0.0,0.0,0.0,0.0,0.0,0.0,0.0,-3.56,-3.56,-3.5701,-3.596,-3.6705,-3.754,-3.842,-4.0417,-4.3876,-4.8852,-4.9357,-4.8815,-4.7297,-4.5387,-4.4582,-4.4666,-4.3122,-4.2745,-4.3234,-4.2016,-4.2252,-4.3206,-4.1238,-4.106,-4.1847,0.0,0.0,0.0,0.0,0.0,0.0,0.0,0.0,0.0,-3.8836,-3.9005,-3.9005,-3.9005,-3.9005,-3.8667,-3.7202,-3.886,-4.0967,-4.0899,-4.435,-4.8781,-5.2638,-5.3145,-5.416,-5.8829,-5.7476,-5.5547,-5.5784,-5.504,-5.4837,-5.6258,-5.7848,-5.9201,0.0,0.0,0.0,0.0,0.0,0.0,0.0,0.0,0.0,0.0,0.0,0.0,0.0,-5.7246,-5.6465,-5.5667,-5.4888,-5.4261,-5.3822,-5.3822,-5.3721,-5.3518,-5.3518,-5.3518,-5.3518,-5.3721,-5.3721,-5.3518,-5.3518,-5.3518,-5.3518,-5.3518,-5.3518,-5.3518,-5.3518,-5.3518,-5.3518,-5.3518,-5.3518,-5.3518,0.0,0.0,0.0,0.0,0.0,0.0,0.0,0.0,-3.4776,-3.5498,-3.56,-3.56,0.0,0.0,0.0,0.0,0.0,0.0,-3.56,-3.56,-3.56,-3.56,-3.6062,-3.6603,-3.7212,-3.9377,-4.1948,-4.479,-4.5674,-4.564,-4.4761,-4.4641,-4.4604,-4.4761,-4.4775,-4.4532,-4.4012,-4.2997,-4.2557,-4.2422,-4.1068,-4.0865,-4.1339,0.0,0.0,0.0,0.0,0.0,0.0,0.0,0.0,0.0,-3.8328,-3.8565,-3.8633,-3.8903,-3.8802,-3.8362,-3.7483,-3.9276,-4.1677,-4.2726,-4.6786,-5.1285,-5.416,-5.5953,-5.7712,-6.008,-5.8795,-5.7239,-5.7239,-5.6156,0.0,-5.663,-5.7645,-5.8457,0.0,0.0,0.0,0.0,0.0,0.0,0.0,0.0,0.0,0.0,0.0,0.0,0.0,-5.5724,-5.5088,-5.4606,-5.3881,-5.3518,-5.3518,-5.3518,-5.3518,-5.3518,-5.3518,-5.3518,-5.3518,-5.3518,-5.3518,-5.3518,-5.3518,-5.3518,-5.3518,-5.3518,-5.3518,-5.3518,-5.3518,-5.3518,-5.3518,-5.3518,-5.3518,-5.3518,0.0,0.0,-3.2395,-3.2395,0.0,0.0,0.0,0.0,-3.4844,-3.5498,-3.56,-3.56,0.0,0.0,0.0,0.0,0.0,0.0,0.0,-3.56,-3.56,-3.56,-3.5667,-3.6377,-3.7889,-3.9884,-4.0595,-4.0011,-4.2151,-4.3172,-4.3139,-4.5414,-4.649,-4.6549,-4.7946,-4.7808,-4.638,-4.4919,-4.3098,-4.1204,-4.1136,-4.073,-4.0282,-4.0865,0.0,0.0,0.0,0.0,0.0,0.0,0.0,0.0,-3.7686,-3.7922,-3.8024,-3.8633,-3.8362,-3.7922,-3.799,-3.914,-4.1212,-4.5128,-4.9052,-5.2841,-5.6393,-5.9742,-6.1873,-6.1129,-5.9438,-5.8084,-5.8017,-5.6359,-5.5378,-5.6596,-5.7915,0.0,0.0,0.0,0.0,0.0,0.0,0.0,0.0,0.0,0.0,0.0,0.0,0.0,0.0,-5.4878,-5.4513,-5.4513,-5.3848,-5.3518,-5.3518,-5.3518,-5.3518,0.0,-5.3518,-5.3518,-5.3518,-5.3518,-5.3518,-5.3518,-5.3518,-5.3518,-5.3518,-5.3518,-5.3518,-5.3518,-5.3518,-5.3518,-5.3518,-5.3518,-5.3518,-5.3518,0.0,0.0,-3.3152,-3.3152,0.0,0.0,0.0,0.0,0.0,-3.5566,-3.56,0.0,0.0,0.0,0.0,0.0,0.0,0.0,0.0,-3.56,-3.56,-3.56,-3.6197,-3.6975,-3.7889,-3.8362,-3.8802,-3.9242,-4.0865,-4.1373,-4.0865,-4.2932,-4.3989,-4.4187,-4.493,-4.4886,-4.4045,-4.2557,-4.1644,-4.117,-4.0561,-4.0595,-4.0933,-4.0519,-4.0248,0.0,0.0,0.0,0.0,0.0,0.0,0.0,-3.7686,-3.7922,-3.7821,-3.7405,-3.755,-3.8024,-3.8599,-4.0257,-4.2997,-4.7936,-5.3281,-5.7848,-5.9877,-6.0013,-5.9539,-5.8761,-5.9167,-5.9438,-5.8863,-5.8389,-5.778,-5.6934,-5.707,0.0,0.0,0.0,0.0,0.0,0.0,0.0,0.0,0.0,0.0,0.0,0.0,0.0,-5.3979,-5.3849,-5.375,-5.375,-5.3584,-5.3518,-5.3518,-5.3518,-5.3518,0.0,-5.3518,-5.3518,-5.3518,-5.3518,-5.3518,-5.3518,-5.3518,-5.3518,-5.3518,-5.3518,-5.3518,-5.3518,-5.3518,-5.3518,-5.3518,-5.3518,-5.3518,-5.3518,0.0,0.0,0.0,0.0,0.0,0.0,0.0,0.0,0.0,0.0,0.0,0.0,0.0,0.0,0.0,0.0,0.0,0.0,0.0,-3.56,-3.56,-3.56,-3.6366,-3.6772,-3.6783,-3.7178,-3.7719,-3.8464,-3.9242,-3.9986,-4.0663,-4.2791,-4.4059,-4.4559,-4.557,-4.5261,-4.391,-4.276,-4.1644,-4.0663,-4.0629,-4.0629,-4.0663,-4.0629,-4.0417,-4.0113,-4.0113,0.0,0.0,0.0,0.0,0.0,0.0,0.0,-3.7889,-3.7855,-3.7618,-3.7618,-3.87,-4.0865,-4.4418,-5.1116,-5.5919,-5.9133,-5.9573,-5.9066,-5.8152,-5.707,-5.7746,-5.8287,-5.7577,-5.7442,-5.7171,-5.6427,0.0,0.0,0.0,0.0,0.0,0.0,0.0,0.0,0.0,0.0,0.0,0.0,0.0,-5.3348,-5.2942,-5.2942,-5.2942,-5.2942,-5.2942,-5.3112,-5.3518,-5.3518,-5.3518,-5.3518,-5.3518,-5.3518,-5.3518,-5.3518,-5.3518,-5.3518,-5.3518,-5.3518,-5.3518,-5.3518,-5.3518,-5.3518,-5.3518,-5.3518,-5.3518,-5.3518,-5.3518,-5.3518,0.0,0.0,0.0,0.0,0.0,0.0,0.0,0.0,0.0,0.0,0.0,0.0,0.0,0.0,0.0,0.0,0.0,0.0,0.0,0.0,0.0,-3.5802,-3.6299,-3.64,-3.6005,-3.6772,-3.7506,-3.8091,-3.8227,-3.9478,-4.1847,-4.3707,-4.506,-4.594,-4.6921,-4.6312,-4.4513,-4.3335,-4.1779,-4.0146,-4.0764,-4.0629,-4.018,-4.0764,-4.0629,-4.0113,-4.0113,-3.9639,-3.9005,-3.914,0.0,0.0,0.0,0.0,-3.799,-3.8464,-3.7652,-3.6965,-3.8565,-4.1711,-4.6278,-5.3382,-5.69,-5.8457,-5.7848,-5.7509,-5.6968,-5.5784,-5.6122,-5.6427,-5.5818,-5.5681,-5.5683,0.0,0.0,0.0,0.0,0.0,0.0,0.0,0.0,0.0,0.0,0.0,0.0,0.0,0.0,-5.2807,-5.2164,-5.2131,-5.2164,-5.23,-5.2198,-5.2503,-5.3281,-5.3179,-5.3179,-5.3281,-5.345,-5.3518,-5.3518,-5.3518,-5.3518,-5.3518,-5.3518,-5.3518,-5.3518,-5.3518,-5.3518,-5.3518,-5.3518,-5.3518,-5.3518,-5.3518,-5.3518,-5.3518,0.0,0.0,0.0,0.0,0.0,0.0,0.0,0.0,0.0,0.0,-3.56,-3.56,0.0,0.0,0.0,0.0,0.0,0.0,-3.4641,0.0,0.0,-3.6592,-3.6062,-3.6343,-3.7584,-3.8328,-3.8734,-3.8836,-3.9503,-4.1297,-4.4175,-4.4479,-4.5331,-4.6616,-4.55,-4.4886,-4.4412,-4.1704,-4.0383,-4.0113,-4.0214,-4.018,-4.0113,-4.0214,-4.018,-4.0113,-4.0113,-3.9639,-3.9073,-3.974,-3.9469,0.0,0.0,0.0,-3.7787,-3.7246,-3.6468,-3.6208,-3.8396,-4.3978,-4.9796,-5.2198,-5.4972,-5.707,-5.6968,-5.5953,-5.4972,-5.4769,-5.5344,-5.5818,-5.575,-5.5681,-5.5513,0.0,0.0,0.0,0.0,0.0,0.0,0.0,0.0,0.0,0.0,0.0,0.0,0.0,-5.1522,-5.1455,-5.1352,-5.1352,-5.1657,-5.2266,-5.1691,-5.1725,-5.2469,-5.1826,-5.1826,-5.2469,-5.3179,-5.3518,-5.3518,-5.3518,-5.3518,-5.3518,-5.3518,-5.3518,-5.3518,-5.3518,-5.3518,-5.3518,-5.3518,-5.3518,-5.3518,-5.3518,-5.3518,-5.3518,0.0,0.0,0.0,0.0,0.0,0.0,0.0,0.0,0.0,0.0,0.0,-3.56,0.0,0.0,0.0,-3.5148,-3.4742,-3.4506,-3.4506,-3.4878,-3.5419,-3.6096,-3.5769,-3.5904,-3.658,-3.6941,-3.7516,-3.8396,-3.87,-4.1035,-4.5229,-4.6075,-4.7225,-4.8545,-4.6244,-4.5196,-4.4993,-4.1568,-4.0113,-4.0113,-4.0113,-4.062,-4.1238,-4.0417,-4.062,-4.123,-4.0417,-3.991,-3.9673,-4.0011,-3.9876,-3.9639,-3.9639,0.0,0.0,0.0,-3.6569,-3.6377,-3.9884,-4.3538,-4.7225,-5.0845,-5.2706,-5.3788,-5.4194,-5.3788,-5.3179,-5.2773,-5.2976,-5.345,-5.4329,-5.4465,0.0,0.0,0.0,0.0,0.0,0.0,0.0,0.0,0.0,0.0,0.0,0.0,0.0,0.0,-5.1185,-5.1048,-5.0608,-5.0574,-5.0744,-5.1048,-5.0744,-5.0947,-5.1691,-5.1386,-5.1386,-5.1691,-5.2063,-5.2435,-5.2841,-5.2841,-5.3078,-5.3518,-5.3518,-5.3518,-5.3518,-5.3518,-5.3518,-5.3518,-5.3518,-5.3518,-5.3518,-5.3518,-5.3518,-5.3518,0.0,0.0,0.0,0.0,0.0,0.0,0.0,0.0,0.0,0.0,0.0,0.0,0.0,0.0,0.0,0.0,-3.4539,-3.4201,-3.4201,-3.4912,-3.5397,-3.56,-3.543,-3.5397,-3.56,-3.5802,-3.6468,-3.7618,-3.799,-4.0764,-4.5737,-4.7022,-4.8815,-5.0845,-4.824,-4.6684,-4.5771,-4.2354,-4.106,-4.1196,-4.0417,-4.0891,-4.1914,-4.1027,-4.1365,-4.2178,-4.106,-4.0553,-4.035,-4.018,-4.0113,-4.0113,-4.0113,-3.9208,0.0,0.0,0.0,-3.6377,-3.9918,-4.1711,-4.3606,-4.7868,-4.939,-5.0067,-5.098,-5.1319,-5.1319,0.0,-5.0811,-5.1217,-5.2198,0.0,0.0,0.0,0.0,0.0,0.0,0.0,0.0,0.0,0.0,0.0,0.0,0.0,0.0,0.0,-5.0642,-5.0405,-4.983,-4.983,-4.9898,-5.0067,-4.9898,-5.0168,-5.0913,-5.0913,-5.0913,-5.0913,-5.1116,-5.1589,-5.23,-5.23,-5.2739,-5.3518,-5.3518,-5.3518,-5.3518,-5.3518,-5.3518,-5.3518,-5.3518,-5.3518,-5.3518,-5.3518,-5.3518,-5.3518,0.0,0.0,0.0,0.0,0.0,0.0,0.0,0.0,0.0,0.0,0.0,0.0,-3.56,-3.56,-3.5025,-3.366,-3.3491,-3.3457,-3.3457,-3.4134,-3.4878,-3.5566,-3.4945,0.0,-3.5566,-3.6332,-3.6795,-3.6863,-3.8285,-4.1271,-4.5737,-4.6481,-4.9154,-5.3247,-5.1657,-4.9357,-4.6583,-4.4248,-4.3673,-4.4141,-4.1264,-4.0561,-4.1339,-4.1948,-4.2219,-4.2286,-4.2185,-4.1745,-4.1035,-4.035,-4.0113,-4.0113,-4.0113,-3.9571,-3.8802,0.0,0.0,0.0,-3.6829,-3.8657,-4.0688,-4.2347,-4.4384,-4.638,-4.7804,-4.868,-4.9154,-4.912,-4.9661,-4.9965,-4.9357,0.0,0.0,0.0,0.0,0.0,0.0,0.0,0.0,0.0,0.0,0.0,0.0,0.0,0.0,0.0,-4.912,-4.912,-4.9052,-4.9052,-4.939,-5.0067,-4.9424,-4.9424,-5.0135,-5.0135,-5.0135,-5.0168,-5.0879,-5.1589,-5.23,-5.23,-5.2739,-5.3518,-5.3518,-5.3518,-5.3518,-5.3518,-5.3518,-5.3518,-5.3518,-5.3518,-5.3518,-5.3518,-5.3518,-5.3518,0.0,0.0,0.0,0.0,0.0,0.0,0.0,0.0,0.0,0.0,0.0,0.0,0.0,-3.56,-3.5397,-3.4856,-3.4788,-3.4585,-3.4134,-3.481,-3.5295,-3.56,-3.5329,-3.5329,-3.56,-3.5893,-3.6502,-3.7516,-3.8024,-4.0324,-4.4254,-4.5974,-4.7394,-4.8511,-4.8409,-4.8037,-4.7225,-4.3064,-4.1711,-4.2286,-4.0722,-4.0857,-4.1813,-4.1162,-4.1779,-4.2895,-4.1948,-4.1407,-4.117,-4.0899,-4.0493,-4.0113,-4.0113,-3.9276,-3.8058,-3.6783,-3.6039,-3.587,-3.7178,-3.7743,-3.8556,-4.1001,-4.2219,-4.32,-4.466,-4.5635,-4.6177,-4.6177,-4.6752,-4.7192,0.0,0.0,0.0,0.0,0.0,0.0,0.0,0.0,0.0,0.0,0.0,0.0,0.0,0.0,0.0,0.0,0.0,-4.8511,-4.8984,-4.9018,-4.912,-4.939,-4.9154,-4.912,-4.939,-4.939,-4.939,-4.939,-4.9661,-5.0439,-5.1589,-5.1589,-5.23,-5.3518,-5.3518,-5.3518,-5.3518,-5.3518,-5.3518,-5.3518,-5.3518,-5.3518,-5.3518,-5.3518,-5.3518,-5.3518,0.0,0.0,0.0,-3.56,0.0,-3.56,-3.56,-3.56,-3.56,-3.56,0.0,0.0,0.0,0.0,-3.5791,-3.5284,-3.5228,-3.5148,-3.4878,-3.5588,-3.6129,-3.6343,-3.6377,-3.6265,-3.6028,-3.6242,-3.6772,-3.7516,-3.8024,-3.9918,-4.3064,-4.4823,-4.5805,-4.6075,-4.5771,-4.6515,-4.7669,-4.4181,-4.2861,-4.2963,-4.1441,-4.188,-4.3369,-4.2895,-4.3775,-4.5162,-4.4181,-4.3166,-4.2219,-4.1474,-4.0696,-4.0113,-4.0113,-3.9242,-3.8058,-3.7043,-3.6569,-3.658,-3.7618,-3.7347,-3.7405,-3.9851,-4.0087,-4.0189,-4.1888,-4.2692,-4.3159,-4.343,-4.4045,-4.4553,0.0,0.0,0.0,0.0,0.0,0.0,0.0,0.0,0.0,0.0,0.0,0.0,0.0,0.0,0.0,0.0,0.0,0.0,-4.824,-4.8274,-4.8376,-4.8612,-4.8883,-4.9018,-4.9018,-4.9018,-4.9018,-4.9018,-4.9018,-4.9661,-5.0845,-5.0845,-5.1522,-5.2739,-5.2739,-5.3044,-5.3518,-5.3518,-5.3518,-5.3518,-5.3518,-5.3518,-5.3518,-5.3518,-5.3518,-5.3518,-3.56,-3.56,-3.56,-3.5633,-3.5633,-3.5633,-3.5667,-3.5667,-3.5667,-3.5667,0.0,0.0,0.0,0.0,0.0,-3.4742,-3.4607,-3.4945,-3.5633,-3.64,-3.7168,-3.7889,-3.7922,-3.755,-3.6863,-3.7516,-3.755,-3.6863,-3.8294,-4.0087,-4.2252,-4.2997,-4.4553,-4.6549,-4.4384,-4.5032,-4.7736,-4.7703,-4.7327,-4.6447,-4.347,-4.3673,-4.5872,-4.7229,-4.8274,-4.8951,-4.8951,-4.709,-4.4344,-4.2083,-4.0832,-4.018,-4.0113,-3.9605,-3.9005,-3.8971,-3.8464,-3.7922,0.0,0.0,0.0,-3.8565,-3.7879,-3.7381,-3.9521,-4.002,-4.0248,-4.0967,-4.1711,-4.2219,0.0,0.0,0.0,0.0,0.0,0.0,0.0,0.0,0.0,0.0,0.0,0.0,0.0,0.0,0.0,0.0,-4.6786,-4.6786,-4.6786,-4.6819,-4.7158,-4.7872,-4.8612,-4.9018,-4.9018,-4.9018,-4.9018,-4.9018,-4.9018,-4.939,-5.0101,-5.0101,-5.0507,-5.1185,-5.1219,-5.2097,-5.345,-5.345,-5.3484,-5.3518,-5.3518,-5.3518,-5.3518,-5.3518,-5.3518,-5.3518,-3.56,-3.56,-3.5769,-3.6366,-3.6468,-3.6637,-3.7178,-3.7256,-3.7256,0.0,0.0,0.0,-3.7584,-3.8058,-3.8193,-3.7787,-3.7753,-3.7618,-3.7313,-3.7483,-3.7686,-3.7889,-3.7922,-3.7821,-3.7584,-3.7787,-3.8058,-3.8396,-3.8802,-3.958,-4.0722,-4.1474,-4.2422,-4.3538,-4.3436,-4.3849,-4.4525,-4.2929,-4.3403,-4.4987,-4.2489,-4.3504,-4.6346,-4.5128,-4.6114,-4.8139,-4.7597,-4.6887,-4.6007,-4.4857,-4.3572,-4.2219,-4.062,-3.9605,-3.8903,-3.8362,-3.8058,-3.7922,-3.7922,0.0,0.0,0.0,0.0,0.0,-3.7686,-3.8125,-3.8565,-3.8768,-3.9792,-4.073,0.0,0.0,0.0,0.0,0.0,0.0,0.0,0.0,0.0,0.0,0.0,0.0,0.0,0.0,0.0,0.0,-4.6312,-4.6244,-4.6752,-4.7327,-4.7669,-4.7872,-4.8612,-4.9018,-4.9018,-4.9018,-4.9018,-4.9018,-4.9018,-4.939,-5.0101,-5.0101,-5.0507,-5.1219,-5.1758,-5.2232,-5.2638,-5.2638,-5.2976,-5.3518,-5.3518,-5.3518,-5.3518,-5.3518,-5.3518,-5.3518,-3.56,-3.587,-3.6231,-3.6728,-3.7303,-3.7753,-3.7889,-3.8159,-3.8261,0.0,0.0,0.0,-3.8362,-3.9851,-4.0223,-3.8667,-3.8802,-3.8802,-3.8396,-3.8362,-3.8497,-3.8802,-3.8802,-3.8667,-3.8362,-3.8667,-3.887,-3.9005,-3.9309,-3.9673,-4.0113,-4.0527,-4.0967,-4.1399,-4.1813,-4.2016,-4.1948,-4.0654,-4.1467,-4.3633,-4.3234,-4.4756,-4.7259,-4.7158,-4.8409,-5.0202,-4.9763,-4.9187,-4.8376,-4.6718,-4.4722,-4.2625,-4.0722,-3.9808,-3.9368,-3.8937,-3.8802,-3.8802,-3.8802,-3.8599,-3.8328,-3.8217,0.0,0.0,-3.7347,-3.7347,-3.7449,0.0,-3.8125,0.0,0.0,0.0,0.0,0.0,0.0,0.0,0.0,0.0,0.0,0.0,0.0,0.0,0.0,-4.4823,-4.4925,-4.5365,-4.5297,-4.5432,-4.5838,-4.6583,-4.6959,-4.6959,-4.8003,-4.8545,-4.8545,-4.8849,-4.9018,-4.9018,-4.9018,-4.9221,-4.9627,-4.9627,-4.9864,-5.0338,-5.1048,-5.1555,-5.186,-5.2164,-5.2773,-5.3518,-5.3518,-5.3518,-5.3518,-5.3518,-5.3518,-5.3518,0.0,-3.6366,-3.6965,-3.7134,-3.8227,-3.8971,-3.8565,-3.8937,-3.914,0.0,-3.9411,-3.9884,-3.9986,-4.2117,-4.2219,-3.8937,-3.9005,-3.9208,-3.9106,-3.9106,-3.9411,-4.0079,-4.0113,-3.9808,-3.914,-3.9774,-3.9774,-3.9106,-3.9774,-4.0113,-4.0113,-4.0113,-4.0113,-4.0113,-4.0113,-4.0113,-4.0113,-4.0113,-4.0857,-4.2252,-4.4519,-4.6549,-4.8443,-5.098,-5.2604,-5.3484,-5.3416,-5.2503,-5.0879,-4.8003,-4.4993,-4.2185,-4.0891,-4.0316,-4.0113,-4.0113,-4.0113,-4.0113,-4.0113,-3.9639,-3.9242,-3.9842,-3.9039,0.0,-3.7956,-3.7381,-3.6897,-3.6829,-3.6795,0.0,0.0,0.0,0.0,0.0,0.0,0.0,0.0,0.0,0.0,0.0,0.0,0.0,-4.2286,-4.2895,-4.3274,-4.3274,-4.3944,-4.4378,-4.4479,-4.5162,-4.5635,-4.5703,-4.7128,-4.7906,-4.7906,-4.8646,-4.9018,-4.9018,-4.9018,-4.9018,-4.9018,-4.9018,-4.9018,-4.9052,-4.9763,-5.0507,-5.1285,-5.1995,-5.2773,-5.3518,-5.3518,-5.3518,-5.3518,-5.3518,-5.3518,-5.3518,-3.6592,-3.7178,-3.8058,-3.9251,-3.969,-4.0434,-4.2057,-4.1441,-4.161,-4.3876,-4.4823,-4.55,-4.6109,-4.5094,-4.4107,-4.3362,-4.1745,-4.0527,-3.9943,-3.991,-3.9943,-4.0079,-4.0113,-4.0045,-3.991,-4.0045,-4.0045,-3.991,-4.0045,-4.0113,-4.0113,-4.0113,-4.0113,-4.0113,-4.0113,-4.0113,-4.0113,-4.0113,-4.0282,-4.0722,-4.2963,-4.621,-4.9661,-4.9661,-5.1251,-5.3416,-5.2773,-5.2334,-5.1725,-4.9357,-4.6177,-4.3166,-4.2861,-4.1542,-4.0113,-4.0113,-4.0113,-4.0113,-4.0113,-4.0011,-3.9774,-3.9309,-3.9445,0.0,-3.8193,-3.7787,-3.7516,0.0,-3.6795,0.0,0.0,0.0,0.0,0.0,0.0,0.0,0.0,0.0,0.0,0.0,0.0,0.0,-4.2286,-4.2422,-4.2523,-4.2523,-4.2658,-4.2997,-4.3606,-4.4384,-4.5094,-4.5703,-4.7128,-4.7906,-4.7906,-4.8646,-4.9018,-4.9018,-4.9018,-4.9018,-4.9018,-4.9018,-4.9018,-4.9052,-4.9763,-5.0507,-5.1285,-5.1995,-5.2773,-5.3518,-5.3518,-5.3518,-5.3518,-5.3518,-5.3518,-5.3518,-3.6795,-3.7686,-3.8802,-3.9893,-4.073,-4.1711,-4.3172,-4.3098,-4.3572,-4.5466,-4.7293,-4.8037,-4.6921,-4.7106,-4.6408,-4.4175,-4.352,-4.2511,-4.0747,-4.0948,-4.0827,-4.0138,-4.0113,-4.0113,-4.0113,-4.0113,-4.0113,-4.0113,-4.0113,-4.0113,-4.0113,-4.0113,-3.991,-3.9571,-3.9943,-3.991,-3.9571,-3.9943,-4.0316,-4.0865,-4.3504,-4.5906,-4.8105,-4.9965,-5.1352,-5.2367,-5.23,-5.1826,-5.0845,-4.8646,-4.665,-4.4823,-4.3335,-4.2354,-4.1677,0.0,-4.0933,-4.0561,0.0,0.0,0.0,-4.0087,0.0,0.0,0.0,-3.87,-3.8227,-3.7483,-3.7066,-3.6795,-3.6795,0.0,0.0,0.0,0.0,0.0,0.0,0.0,0.0,0.0,0.0,0.0,-4.1162,-4.1542,-4.188,-4.2252,-4.2286,-4.2455,-4.2828,-4.3234,-4.3775,-4.4553,-4.5669,-4.6447,-4.6819,-4.753,-4.8105,-4.8477,-4.8477,-4.8646,-4.9018,-4.9018,-4.9018,-4.9052,-4.9763,-5.0304,-5.0744,-5.186,-5.2536,-5.2942,-5.3348,-5.3518,-5.3518,-5.3518,-5.3518,-5.3518,-3.7235,-3.8319,-3.9445,-4.0164,-4.1305,-4.2388,-4.3274,-4.3842,-4.4621,-4.594,-4.868,-4.9656,-4.7432,-4.8604,-4.8396,-4.5617,-4.4911,-4.4097,-4.2791,-4.2265,-4.1526,-4.0542,-4.0256,-4.0113,-4.0113,-4.0113,-4.0113,-4.0113,-4.0113,-4.0113,-4.0113,-4.0113,-3.9774,-3.9242,-3.9842,-3.9876,-3.9445,-4.0054,-4.073,-4.1644,-4.4384,-4.5568,-4.6143,-5.0135,-5.1386,-5.1082,-5.1826,-5.1217,-4.983,-4.8037,-4.7124,-4.6346,-4.391,-4.3267,0.0,0.0,0.0,0.0,0.0,0.0,0.0,0.0,0.0,-4.0823,0.0,0.0,0.0,0.0,0.0,0.0,0.0,0.0,0.0,0.0,0.0,0.0,0.0,0.0,0.0,0.0,0.0,0.0,0.0,-4.0629,-4.1238,-4.1813,-4.188,-4.1914,-4.2083,-4.2083,-4.2489,-4.3375,-4.4181,-4.4925,-4.5703,-4.6413,-4.709,-4.7669,-4.7804,-4.821,-4.8815,-4.8951,-4.9018,-4.9052,-4.9627,-4.9965,-5.0202,-5.1555,-5.2164,-5.2367,-5.3179,-5.3518,-5.3518,-5.3518,-5.3518,-5.3518,-3.8734,-3.9436,-4.0214,-4.0967,-4.1204,-4.1813,-4.3172,-4.2929,-4.3775,-4.7196,-5.0236,-5.2153,-5.2498,-4.9758,-4.9117,-5.2183,-4.6141,-4.3921,-4.7937,-4.3687,-4.1336,-4.1912,-4.0743,-4.0113,-4.0113,-4.0113,-4.0113,-4.0113,-4.0113,-4.0113,-4.0113,-4.0113,-4.0079,-3.9977,-4.0079,-4.0392,-4.0967,-4.1035,-4.1508,-4.232,-4.4039,-4.5128,-4.5974,-4.8443,-4.9729,-5.0304,-5.1082,-5.0811,-5.0067,0.0,-4.8409,-4.6718,0.0,-4.4959,-4.3511,-4.4147,0.0,0.0,0.0,0.0,0.0,0.0,-4.2658,0.0,0.0,0.0,-3.9783,-3.9039,0.0,0.0,0.0,0.0,0.0,0.0,0.0,0.0,0.0,0.0,0.0,0.0,0.0,0.0,0.0,-4.018,-4.0282,-4.035,-4.035,-4.0654,-4.1305,-4.1339,-4.1982,-4.3341,-4.4181,-4.4925,-4.5703,-4.6413,-4.6819,-4.6921,-4.7597,-4.7939,-4.8041,-4.8714,-4.9018,-4.9018,-4.9086,-4.9492,-5.0135,-5.1014,-5.1725,-5.2367,-5.3179,-5.3518,-5.3518,-5.3518,-5.3518,-5.3518,-3.9005,-3.9605,-4.035,-4.1068,-4.1204,-4.1711,-4.3172,-4.5365,-4.7394,-4.8984,-5.1792,-5.3953,-5.4749,-5.291,-5.2011,-5.2937,-4.9352,-4.6869,-4.65,-4.4139,-4.2614,-4.227,-4.169,-4.117,-4.073,-4.073,-4.0553,-4.0113,-4.0113,-4.0113,-4.0113,-4.0113,-3.9876,-3.9503,-3.991,-4.0045,-3.9986,-4.0832,-4.1644,-4.2388,-4.347,-4.4384,-4.5331,-4.8003,-4.9458,-5.0067,-4.9965,-4.9729,-4.9323,0.0,-4.8139,0.0,0.0,0.0,0.0,-4.5399,0.0,0.0,0.0,0.0,0.0,0.0,0.0,0.0,-4.167,0.0,-4.002,0.0,0.0,0.0,0.0,0.0,0.0,0.0,-3.71,0.0,0.0,0.0,0.0,0.0,0.0,0.0,0.0,0.0,0.0,0.0,0.0,-4.0248,-4.0553,-4.0561,-4.1238,-4.2726,-4.3098,-4.3842,-4.5026,-4.5393,-4.594,-4.6786,-4.7124,-4.7733,-4.8545,-4.8849,-4.9018,-4.9018,-4.9018,-4.9187,-4.956,-5.0744,-5.1386,-5.1792,-5.3044,-5.3518,-5.3518,-5.3518,-5.3518,-5.3518,-3.93,-3.974,-4.0282,-4.0798,-4.0899,-4.1474,-4.3139,-4.6549,-4.9246,-5.0308,-5.252,-5.4552,-5.599,-5.5341,-5.4879,-5.5043,-5.2642,-5.0059,-4.7541,-4.5551,-4.3822,-4.2347,-4.2291,-4.1948,-4.1238,-4.1204,-4.0933,-4.0417,-4.0214,-4.0113,-4.0113,-4.0113,-3.9808,-3.9309,-4.0079,-4.0087,-3.9681,-4.117,-4.2252,-4.2963,-4.3504,-4.4215,-4.5128,-4.7293,-4.868,-4.939,-4.8646,-4.8646,-4.8781,-4.7293,-4.7767,0.0,-4.6887,0.0,-4.7669,0.0,0.0,0.0,-4.4423,0.0,0.0,0.0,0.0,0.0,0.0,0.0,0.0,0.0,0.0,0.0,0.0,0.0,0.0,0.0,0.0,-3.7032,0.0,0.0,0.0,0.0,0.0,0.0,0.0,0.0,0.0,0.0,0.0,0.0,-4.0113,-4.0113,-4.079,-4.2252,-4.2286,-4.3031,-4.4581,-4.4615,-4.5258,-4.6481,-4.6684,-4.7462,-4.8714,-4.8917,-4.9018,-4.9018,-4.9018,-4.9018,-4.912,-5.0608,-5.1185,-5.132,-5.2909,-5.3518,-5.3518,-5.3518,-5.3518,-5.3518,-4.0079,-4.0079,-4.0113,-4.0146,-4.0146,-4.0865,-4.3071,-4.479,-4.7174,-5.0772,-5.1968,-5.3554,-5.6476,-5.6098,-5.7159,-6.0888,-5.5512,-5.2654,-5.4267,-4.8725,-4.4404,-4.2295,-4.227,-4.1948,-4.1238,-4.1204,-4.1204,-4.117,-4.0451,-4.0113,-4.0113,-4.0113,-4.0079,-4.0113,-4.0832,-4.117,-4.1238,-4.2699,-4.3809,-4.4547,-4.4547,-4.4993,-4.5669,0.0,-4.6718,-4.7872,-4.7124,0.0,0.0,-4.7293,-4.7767,0.0,0.0,0.0,0.0,0.0,0.0,0.0,0.0,0.0,0.0,-4.4288,0.0,0.0,0.0,0.0,-4.2868,0.0,0.0,0.0,0.0,0.0,0.0,-3.8937,0.0,0.0,0.0,0.0,0.0,0.0,0.0,0.0,0.0,0.0,0.0,0.0,0.0,0.0,-4.0113,-4.0113,-4.079,-4.2252,-4.2286,-4.3031,-4.4581,-4.4615,-4.4959,-4.5737,-4.6447,-4.7192,-4.7939,-4.868,-4.9018,-4.9018,-4.9018,-4.9018,-4.912,-5.0608,-5.1185,-5.132,-5.2909,-5.3518,-5.3518,-5.3518,-5.3518,-5.3518,-4.0113,-4.0493,-4.0663,-4.018,-4.0493,-4.1576,-4.3842,-4.5872,-4.8937,-5.3823,-5.5966,-5.8808,-6.3568,-6.2875,-6.2185,-6.2474,-5.85,-5.5193,-5.3384,-4.9687,-4.6866,-4.5316,-4.5269,-4.4451,-4.2665,-4.3166,-4.2692,-4.1204,-4.0933,-4.0561,-4.0113,-4.0113,-4.0113,-4.0113,-4.0383,-4.046,-4.0587,-4.2049,-4.2828,-4.3193,-4.4209,-4.5331,-4.638,0.0,-4.6312,-4.7158,-4.6887,-4.7124,0.0,-4.6955,-4.7124,-4.7496,-4.7259,-4.753,-4.7906,-4.7906,-4.8274,0.0,0.0,0.0,-4.8342,-4.5602,0.0,0.0,0.0,0.0,0.0,0.0,0.0,0.0,0.0,0.0,-3.974,-3.974,-3.9106,0.0,0.0,0.0,0.0,0.0,0.0,0.0,0.0,0.0,0.0,0.0,0.0,0.0,0.0,-4.0113,-4.079,-4.2252,-4.2286,-4.3031,-4.4581,-4.4615,-4.5224,-4.6413,-4.6684,-4.7428,-4.8646,-4.8883,-4.9018,-4.9018,-4.9018,-4.9018,-4.9086,-5.0067,-5.0777,-5.1286,-5.2334,-5.3044,-5.3518,-5.3518,-5.3518,-5.3518,-4.0823,-4.1035,-4.1035,-4.0561,-4.1542,-4.3071,-4.507,-4.823,-5.2067,-5.6682,-5.9769,-6.3115,-6.7294,-6.6787,-6.5618,-6.4339,-6.1191,-5.7611,-5.364,-5.1262,-4.8928,-4.651,-4.665,-4.5872,-4.3876,-4.4316,-4.3606,-4.1576,-4.1576,-4.1204,-4.0493,-4.0214,-4.0113,-4.0113,-4.0383,-4.035,-4.0214,-4.1644,-4.2455,-4.2794,-4.4079,-4.4993,0.0,0.0,-4.5602,-4.709,0.0,-4.6346,-4.6718,-4.6177,-4.6346,-4.6786,-4.6786,-4.7327,-4.7906,-4.7906,-4.8443,-4.8781,-4.78,-4.8071,0.0,-4.6515,-4.6075,0.0,-4.4519,0.0,0.0,0.0,0.0,0.0,0.0,0.0,0.0,-4.0493,-3.9851,-3.93,0.0,-3.7956,0.0,0.0,0.0,0.0,0.0,0.0,0.0,0.0,0.0,0.0,0.0,0.0,-4.079,-4.2252,-4.2286,-4.3031,-4.4581,-4.4615,-4.5359,-4.6786,-4.6786,-4.7564,-4.9018,-4.9018,-4.9018,-4.9018,-4.9018,-4.9018,-4.9052,-4.9796,-5.0541,-5.1252,-5.2029,-5.2807,-5.3518,-5.3518,-5.3518,-5.3518,-4.2151,-4.1813,-4.1373,-4.1407,-4.3166,-4.5103,-4.6523,-5.1413,-5.6041,-5.9204,-6.308,-6.6155,-6.7758,-6.7932,-6.7561,-6.6595,-6.3612,-5.9905,-5.5489,-5.3487,-5.0541,-4.621,-4.6616,-4.6244,-4.475,-4.4716,0.0,-4.2354,-4.2354,-4.1982,-4.1238,-4.0519,-4.0146,-4.018,-4.0832,-4.0764,-4.018,-4.1636,-4.2692,-4.3443,-4.4181,-4.4113,-4.3477,-4.2625,-4.4587,-4.753,-4.5297,-4.5466,-4.6481,-4.5089,-4.5529,-4.6684,-4.6786,-4.7293,-4.7838,-4.7906,-4.8477,-4.868,-4.7293,-4.7394,-4.7733,-4.7022,0.0,0.0,0.0,0.0,-4.6244,0.0,0.0,0.0,0.0,0.0,0.0,-4.117,-4.0561,-3.9842,0.0,0.0,0.0,0.0,0.0,0.0,0.0,0.0,0.0,0.0,0.0,0.0,0.0,0.0,-4.0823,-4.2252,-4.232,-4.3091,-4.4581,-4.4615,-4.5359,-4.6786,-4.6786,-4.7564,-4.9018,-4.9018,-4.9018,-4.9018,-4.9018,-4.9018,-4.9052,-4.9796,-5.0541,-5.1252,-5.2029,-5.2807,-5.3518,-5.3518,-5.3518,-5.3518,-4.2252,-4.3064,-4.3876,-4.4451,-4.4553,-4.5281,-4.7287,-5.1157,-5.5897,-6.1492,-6.5506,-6.9149,-7.2662,-7.1977,-7.0466,-6.8438,-6.5243,-6.212,-5.9272,-5.6391,-5.3585,-5.0744,-4.9729,-4.8308,-4.6278,-4.6244,-4.5196,-4.3132,-4.3132,-4.276,-4.1982,-4.1271,-4.0933,-4.0899,-4.0527,-4.0282,-4.018,-4.1068,-4.2219,-4.3375,-4.3031,-4.4113,-4.5669,0.0,-4.3944,-4.6041,-4.4316,-4.435,-4.5122,-4.475,-4.4852,-4.5359,-4.6447,-4.6921,-4.7293,-4.8409,-4.8849,-4.8917,-4.8545,-4.8173,-4.7838,-4.7665,-4.7225,-4.6752,0.0,0.0,0.0,0.0,0.0,0.0,0.0,0.0,0.0,0.0,0.0,0.0,0.0,0.0,0.0,-3.7719,0.0,0.0,0.0,0.0,0.0,0.0,0.0,0.0,0.0,0.0,0.0,-4.2252,-4.2828,-4.3606,-4.4581,-4.4615,-4.5359,-4.6786,-4.6786,-4.7564,-4.9018,-4.9018,-4.9018,-4.9018,-4.9018,-4.9018,-4.9052,-4.9796,-5.0541,-5.1252,-5.2029,-5.2807,-5.3518,-5.3518,-5.3518,-5.3518,-4.3707,-4.5263,-4.6752,-4.7496,-4.8699,-4.9894,-5.0801,-5.3879,-5.8047,-6.343,-6.7168,-7.0089,-7.205,-7.1798,-7.0621,-6.8523,-6.5008,-6.1895,-5.9608,-5.7122,-5.4702,-5.2401,-5.0879,-4.9221,-4.7327,-4.665,0.0,-4.3375,-4.3375,-4.3031,-4.2286,-4.1542,-4.1035,-4.0696,-4.0282,-4.0113,-4.018,-4.1238,-4.2354,-4.3341,-4.2963,-4.3606,0.0,-4.2591,-4.2625,-4.3673,-4.3132,-4.3436,-4.4113,-4.4479,-4.4615,-4.4852,-4.6312,-4.6786,-4.709,-4.8578,-4.8781,-4.8545,-4.8545,-4.8003,-4.7428,-4.7428,-4.7361,-4.7192,-4.6853,-4.7699,-4.8003,0.0,0.0,0.0,0.0,0.0,0.0,0.0,0.0,0.0,0.0,0.0,0.0,0.0,-3.8667,0.0,0.0,0.0,0.0,0.0,0.0,0.0,0.0,0.0,0.0,-4.2286,-4.3673,-4.4485,-4.4615,-4.5534,-4.6278,-4.6786,-4.7124,-4.7902,-4.9018,-4.9018,-4.9018,-4.9018,-4.9018,-4.9187,-4.9492,-4.9932,-5.071,-5.1758,-5.2536,-5.3112,-5.3518,-5.3518,-5.3687,-5.3991,-4.5948,-4.7815,-4.9447,-4.9997,-5.3694,-5.641,-5.5821,-5.8472,-6.1823,-6.533,-6.8604,-7.0296,-6.9439,-6.9816,-6.9417,-6.7764,-6.4107,-6.0889,-5.8572,-5.6816,-5.4871,-5.2706,-5.1082,-4.956,-4.8075,-4.6616,-4.5094,0.0,-4.3572,-4.32,-4.2422,-4.1677,-4.0933,-4.0248,-4.0146,-4.0146,-4.035,-4.161,-4.2625,-4.3375,-4.3274,-4.2997,-4.2489,-4.1677,-4.1407,-4.1576,-4.2219,-4.2861,-4.3511,-4.4344,-4.4615,-4.4852,-4.621,-4.6718,-4.7056,-4.8443,-4.8409,-4.7906,-4.7906,-4.7293,-4.6684,-4.6786,-4.7293,-4.7597,-4.6955,-4.7361,-4.7466,-4.6007,-4.5616,-4.5115,0.0,0.0,0.0,0.0,0.0,0.0,0.0,0.0,0.0,0.0,0.0,0.0,0.0,0.0,0.0,0.0,0.0,0.0,0.0,0.0,0.0,-4.2286,-4.4316,0.0,-4.4886,0.0,-4.7462,-4.709,-4.7665,-4.8308,-4.9018,-4.9018,-4.9018,-4.9018,-4.9018,-4.9357,-4.9965,-5.0135,-5.1116,-5.2536,-5.3247,-5.3518,-5.3518,-5.3518,-5.4025,-5.4735,-4.8204,-4.9717,-5.072,-5.0193,-5.5496,-5.998,-6.0576,-6.3768,-6.6653,-6.8216,-7.0997,-7.2572,-7.1932,-7.0807,-6.943,-6.7817,-6.513,0.0,0.0,0.0,0.0,-5.4262,-5.2164,-5.0338,-4.8849,-4.7361,-4.5872,0.0,0.0,-4.3978,-4.3172,-4.2455,-4.1711,-4.0967,-4.0383,-4.0426,-4.1035,-4.1271,0.0,-4.3341,-4.2726,-4.3166,-4.4039,-4.2625,-4.2489,-4.3003,-4.3139,-4.3274,-4.3511,-4.4344,-4.4615,-4.475,-4.5602,-4.6312,-4.6955,-4.7868,-4.8007,-4.7906,-4.7906,-4.6921,-4.6041,-4.665,-4.6887,-4.6955,-4.6819,-4.7361,-4.7466,-4.6007,-4.5139,-4.4371,-4.3535,0.0,0.0,0.0,0.0,0.0,0.0,0.0,0.0,0.0,0.0,-4.0045,0.0,0.0,0.0,0.0,0.0,0.0,0.0,0.0,0.0,0.0,-4.3301,0.0,0.0,0.0,-4.6955,-4.8612,-4.8139,-4.8308,-4.9018,-4.9018,-4.9018,-4.9018,-4.9018,-4.9086,-4.9289,-5.0507,-5.1928,-5.3315,-5.345,-5.3518,-5.3518,-5.3518,-5.4363,-5.5446,-5.045,-5.1912,-5.3402,-5.4709,-5.9744,-6.4195,-6.5945,-6.9115,-7.076,-6.9216,-6.9479,-6.9733,-6.9403,-6.8715,-6.7735,-6.647,-6.3728,-6.1266,-5.9341,-5.7364,-5.5581,-5.4093,-5.2232,-5.071,-4.9593,-4.7394,-4.5872,-4.5162,0.0,-4.3775,-4.3375,-4.3064,-4.2286,-4.117,-4.0451,-4.0722,0.0,0.0,0.0,-4.3978,-4.3639,-4.3673,-4.391,-4.3166,-4.2861,-4.2895,-4.324,-4.3375,-4.3511,-4.4344,-4.4615,-4.475,-4.5466,-4.594,-4.6447,-4.7567,-4.7631,-4.7327,-4.7327,-4.6549,-4.5703,-4.5669,-4.594,-4.6244,-4.6244,-4.6786,-4.7022,-4.594,-4.5379,-4.4863,-4.4159,-4.3064,0.0,0.0,0.0,0.0,0.0,0.0,0.0,0.0,0.0,0.0,0.0,0.0,0.0,0.0,0.0,0.0,0.0,0.0,0.0,0.0,0.0,0.0,0.0,0.0,0.0,-4.8443,-4.8477,-4.868,-4.9018,-4.9018,-4.9221,-4.956,-4.956,-4.9999,-5.0811,-5.1928,-5.2841,-5.3518,-5.3518,-5.3518,-5.3518,-5.3518,-5.4194,-5.5141,-5.3192,-5.4949,-5.704,-5.9914,-6.4322,-6.8005,-6.9684,-7.2449,-7.3266,-7.0073,-6.8414,-6.7316,-6.679,-6.6586,-6.6052,-6.4996,-6.2147,-5.973,-5.8154,-5.6406,-5.4905,-5.3551,-5.2198,-5.1014,-5.0101,-4.753,-4.6007,0.0,0.0,0.0,0.0,-4.3375,-4.2625,0.0,0.0,0.0,0.0,0.0,-4.3335,-4.4615,-4.4615,-4.4215,-4.3673,-4.3673,-4.3301,-4.2861,-4.3436,-4.3673,-4.3775,-4.4412,-4.4615,-4.4716,-4.5263,-4.5568,-4.594,-4.709,-4.7124,-4.6786,-4.6786,-4.6244,-4.5568,-4.4959,-4.5263,-4.5669,-4.55,-4.6041,-4.6317,-4.5399,-4.5173,-4.4976,-4.4193,-4.3378,0.0,0.0,0.0,0.0,0.0,0.0,0.0,0.0,0.0,0.0,-4.0113,0.0,0.0,0.0,0.0,-4.0113,-4.0113,-4.0629,0.0,0.0,0.0,-4.594,-4.6177,0.0,-4.9052,0.0,-4.8815,-4.9018,-4.9018,-4.9018,-4.939,-5.0101,-5.0101,-5.0947,-5.2367,-5.2976,-5.3348,-5.3518,-5.3518,-5.3518,-5.3518,-5.3687,-5.4194,-5.4938,-5.7052,-5.9474,-6.1609,-6.344,-6.7668,-7.0449,-6.931,-7.1172,-7.2606,-7.2202,-7.1411,-7.0026,-6.7834,-6.6953,-6.5862,-6.4343,-6.1925,-5.9825,-5.8278,-5.6016,-5.4329,-5.3551,-5.2672,-5.1522,-5.0135,-4.8511,-4.7056,0.0,0.0,0.0,0.0,0.0,0.0,0.0,0.0,0.0,0.0,-4.3031,-4.3809,-4.4615,-4.4615,-4.4547,-4.4513,-4.4513,-4.4445,-4.4412,-4.4479,-4.4513,-4.4513,-4.4581,-4.4615,-4.4615,-4.4682,-4.5162,-4.5737,-4.5872,-4.6346,-4.6786,-4.6786,-4.6244,-4.5703,-4.5602,-4.5669,-4.5534,-4.4886,-4.5263,-4.5366,-4.3857,-4.3542,-4.3267,-4.2395,-4.3429,-4.4412,0.0,0.0,0.0,0.0,0.0,-4.2185,-4.2185,0.0,0.0,0.0,-4.0113,0.0,0.0,-4.0113,-4.0113,-4.0113,-4.018,-4.0857,-4.2252,0.0,-4.4316,-4.7635,-4.7293,-4.8037,-4.9864,-4.9289,-4.9018,-4.9018,-4.9018,-4.939,-5.0101,-5.0101,-5.0947,-5.23,-5.2367,-5.2841,-5.3518,-5.3518,-5.3518,-5.3585,-5.4262,-5.4972,-5.5716,0.0,0.0,0.0,0.0,0.0,0.0,0.0,-7.1371,-7.1148,-6.9601,-6.9218,-6.872,-6.7739,-6.6038,-6.4931,-6.4809,-6.1731,-5.9324,-5.8255,-5.591,-5.4262,-5.3551,-5.2739,-5.1826,-5.0777,-4.9323,-4.8071,0.0,0.0,0.0,0.0,0.0,0.0,0.0,0.0,-4.2557,-4.2997,-4.3274,-4.3876,-4.4615,-4.4615,-4.4615,-4.4615,-4.4615,-4.4615,-4.4615,-4.4615,-4.4615,-4.4615,-4.4615,-4.4615,-4.4682,-4.5128,-4.5466,-4.5872,-4.6786,-4.7225,-4.7462,-4.7462,-4.6921,-4.6244,-4.5805,-4.5365,-4.4959,-4.4682,-4.4852,-4.484,-4.4217,-4.4064,-4.3798,-4.2956,-4.3768,-4.4412,0.0,0.0,0.0,0.0,0.0,0.0,-4.2286,0.0,-4.0113,0.0,0.0,0.0,0.0,0.0,-4.0113,-4.0113,-4.0493,0.0,-4.2252,0.0,-4.5263,-4.7225,-4.7834,-4.8545,-4.9424,-4.9154,-4.9018,-4.9018,-4.9458,-5.0304,-5.1454,-5.1928,-5.2469,-5.301,-5.301,-5.3213,-5.3518,-5.3518,-5.3518,-5.3585,-5.4329,-5.4769,-5.5209,-6.2372,0.0,-6.5791,0.0,-7.0485,-7.1063,-7.187,-7.0943,-6.9297,-6.6917,-6.6332,-6.6236,-6.6482,-6.4931,-6.3977,-6.4191,-6.1193,-5.888,-5.7862,-5.5814,-5.4262,-5.3551,-5.2976,0.0,-5.1555,-5.0067,-4.8951,-4.821,-4.7259,0.0,0.0,0.0,0.0,0.0,-4.3098,-4.3132,-4.3409,-4.3673,-4.4079,-4.4615,-4.4615,-4.4615,-4.4615,-4.4615,-4.4615,-4.4615,-4.4615,-4.4615,-4.4615,-4.4615,-4.475,-4.4993,-4.5534,-4.5838,-4.6244,-4.7293,-4.7733,-4.7906,-4.7906,-4.7361,-4.6684,-4.6143,-4.5466,-4.4925,-4.4925,-4.4925,-4.4767,-4.4303,-4.4241,-4.3948,-4.3078,-4.366,-4.399,-4.3112,0.0,0.0,0.0,0.0,0.0,0.0,-4.0891,-4.0113,-4.0113,-4.0113,0.0,0.0,0.0,0.0,0.0,0.0,0.0,0.0,0.0,0.0,0.0,-4.8037,-4.8781,-4.9018,-4.9018,-4.912,-4.9357,-5.0304,-5.1319,-5.2334,-5.3145,-5.3518,-5.3518,-5.3518,-5.3518,-5.3518,-5.3518,-5.3518,-5.3619,-5.4566,-5.4905,-5.5141,-6.4491,-6.7174,-6.9568,-7.2027,-7.2459,-7.2189,-7.1354,-6.9173,-6.6996,-6.5156,-6.3583,-6.299,-6.3853,-6.3892,-6.3307,-6.1776,-6.0195,-5.8637,-5.7022,-5.5449,-5.4262,0.0,0.0,-5.3112,-5.23,-5.0845,-4.9729,-4.8984,0.0,0.0,-4.5703,0.0,-4.4181,-4.3409,-4.4215,-4.4147,-4.3443,-4.4248,-4.4615,-4.4615,-4.4615,-4.4615,-4.4615,-4.4615,-4.4615,-4.4615,-4.4615,-4.4615,-4.4615,-4.4615,-4.506,-4.5703,-4.5703,-4.621,-4.6786,-4.6819,-4.7327,-4.7906,-4.7906,-4.7361,-4.6786,-4.6786,-4.6244,-4.5703,-4.5703,-4.5703,-4.5235,-4.3635,-4.3323,-4.3047,-4.2173,-4.2785,-4.3155,-4.2352,0.0,0.0,0.0,0.0,0.0,-4.1305,-4.0527,-4.0113,-4.0113,-4.0113,0.0,0.0,0.0,0.0,0.0,0.0,0.0,-4.3341,-4.4181,0.0,-4.6786,-4.7564,-4.8277,-4.9018,-4.9018,-4.939,-5.0135,-5.1589,-5.2266,-5.2334,-5.3145,-5.3518,-5.3518,-5.3518,-5.3518,-5.3518,-5.3518,-5.3518,-5.3687,-5.5175,-5.5716,-5.5919,-6.7064,-6.8358,-6.9339,-7.0624,-7.0369,-6.9663,-6.8689,-6.6948,-6.5301,-6.4102,-6.309,-6.2586,-6.2921,-6.2556,-6.229,0.0,-6.0536,-5.8866,0.0,-5.5807,-5.4249,-5.3551,-5.3518,-5.3112,-5.2334,-5.1352,-5.0507,-4.9729,0.0,0.0,0.0,-4.621,-4.5432,-4.4215,-4.4513,-4.4479,-4.4215,-4.4513,-4.4615,-4.4615,-4.4615,-4.4615,-4.4615,-4.4615,-4.4615,-4.4615,-4.4615,-4.4615,-4.4615,-4.4615,-4.5094,-4.5805,-4.6278,-4.6955,-4.7665,-4.8139,-4.8477,-4.8646,-4.8646,-4.8105,-4.7564,-4.7564,-4.6989,-4.6447,-4.6447,-4.6447,-4.6152,-4.5148,-4.4922,-4.4338,-4.2333,-4.2365,-4.2377,-4.1452,-4.1628,0.0,0.0,0.0,0.0,-4.1238,-4.1001,-4.0629,0.0,-4.0527,0.0,0.0,0.0,0.0,0.0,0.0,0.0,0.0,-4.5432,0.0,-4.7564,-4.8274,-4.9018,-4.9729,-4.9255,-4.9661,-5.0879,-5.186,-5.2604,-5.3145,-5.3382,-5.3518,-5.3518,-5.3518,-5.3518,-5.3518,-5.3518,-5.3518,-5.3687,-5.5175,-5.5681,-5.5919,-6.7863,-6.8678,-6.9082,-6.9559,-6.8932,-6.8031,-6.7011,-6.5513,-6.4114,-6.3216,-6.2448,-6.2004,-6.2027,-6.1431,0.0,-6.2236,-6.0716,-5.9274,-5.8249,-5.6213,-5.4667,-5.3946,-5.3651,-5.3281,-5.2773,0.0,0.0,-5.0507,-4.9221,-4.8139,-4.7225,-4.6921,-4.6143,-4.4993,-4.4993,-4.4857,-4.4615,-4.4615,-4.4615,-4.4615,-4.4615,-4.4615,-4.4615,-4.4615,-4.4615,-4.4615,-4.4615,-4.4784,-4.4959,-4.4716,-4.5263,-4.6143,-4.6312,-4.709,-4.8041,-4.8781,-4.9018,-4.9018,-4.9018,-4.8477,-4.7906,-4.7906,-4.7564,-4.7225,-4.7225,-4.7225,-4.6921,-4.5906,-4.5437,-4.4567,-4.2449,-4.1909,-4.153,-4.0645,-4.0898,-4.1264,-4.1456,0.0,0.0,0.0,0.0,0.0,0.0,-4.1339,-4.1305,0.0,0.0,0.0,0.0,0.0,0.0,-4.4959,-4.6447,0.0,-4.7906,-4.8646,-4.9357,-5.0101,-5.0202,-5.0744,-5.1657,-5.2401,-5.301,-5.3518,-5.3518,-5.3518,-5.3518,-5.3518,-5.3518,-5.3518,-5.3518,-5.3518,-5.3687,-5.5175,-5.5681,-5.5919,-6.7195,-6.8311,-6.8825,0.0,-6.8102,0.0,-6.6335,-6.4743,-6.3314,-6.2537,-6.1806,-6.1366,-6.1366,-6.076,-6.0697,-6.151,0.0,0.0,0.0,-5.6663,-5.5435,-5.4606,-5.3881,-5.3484,-5.3416,-5.1961,-5.1151,-5.1082,-4.8954,-4.7939,-4.7872,-4.7192,-4.6481,-4.5771,-4.5771,-4.5399,-4.475,-4.475,-4.4716,-4.4682,-4.4682,-4.4649,-4.4615,-4.4615,-4.4649,-4.4682,-4.4682,-4.5128,-4.5669,-4.4959,-4.5635,-4.6684,-4.6041,-4.679,-4.8007,-4.8714,-4.8951,-4.9018,-4.9018,-4.8511,-4.7973,-4.7973,-4.7973,-4.7973,-4.7973,-4.7973,-4.7567,-4.6143,-4.518,-4.4106,-4.2631,-4.1613,-4.0766,-4.0076,-4.0548,-4.0814,-4.0214,0.0,0.0,0.0,0.0,0.0,0.0,-4.2354,-4.2049,0.0,0.0,0.0,0.0,0.0,-4.506,-4.5771,-4.7158,-4.7906,-4.7973,-4.868,-4.9357,-5.0101,-5.1657,-5.2367,-5.2334,-5.3145,-5.3518,-5.3518,-5.3518,-5.3518,-5.3518,-5.3518,-5.3518,-5.3518,-5.3518,-5.3551,-5.3754,-5.5175,-5.5715,-5.5987,0.0,0.0,-6.8164,-6.8788,-6.7084,-6.5759,-6.6164,-6.4241,-6.262,-6.242,-6.2245,-6.2144,-6.2144,-6.1549,-6.1465,-6.2255,-6.1127,-6.0006,-5.9078,-5.7519,-5.6009,-5.4637,-5.3881,-5.3213,-5.2604,-5.1691,-5.0676,-4.9526,-4.9018,-4.8477,-4.7906,-4.7703,-4.7259,-4.6549,-4.6549,-4.6447,-4.6278,-4.6278,-4.594,-4.5432,-4.5432,-4.5094,-4.4615,-4.4615,-4.4925,-4.5432,-4.5432,-4.5906,-4.6515,-4.6346,-4.6515,-4.6853,-4.7259,-4.7601,-4.7906,-4.8139,-4.8578,-4.9018,-4.9018,-4.8883,-4.8748,-4.8748,-4.8748,-4.8748,-4.8748,-4.8748,-4.8477,-4.7567,-4.6772,-4.5734,-4.4167,-4.2397,-4.1049,-4.0766,-4.0007,-3.9594,-4.0037,-4.0248,0.0,0.0,-4.1711,-4.2117,-4.2286,-4.2828,-4.2828,0.0,0.0,0.0,0.0,-4.5466,-4.6346,-4.6515,-4.7428,-4.8142,-4.8748,-4.8917,-4.9357,-5.0101,-5.2232,-5.2909,-5.2334,-5.3145,-5.3518,-5.3518,-5.3518,-5.3518,-5.3518,-5.3518,-5.3518,-5.3518,-5.3518,-5.3856,-5.4431,-5.5378,-5.6055,-5.6664,-6.7268,-6.7687,-6.7834,-6.8274,-6.6499,-6.5141,-6.5566,-6.3814,-6.2279,-6.1941,-6.2178,-6.2245,-6.1941,-6.1245,-6.1292,-6.2505,-6.0912,-5.9861,-5.9801,-5.7647,-5.5976,-5.5149,-5.4074,-5.3315,-5.2875,-5.2097,-5.098,-4.9492,-4.9187,-4.8815,-4.8409,-4.8409,-4.8003,-4.7293,-4.7293,-4.7124,-4.6786,-4.6786,-4.6549,-4.621,-4.621,-4.594,-4.563,-4.563,-4.5838,-4.621,-4.621,-4.6684,-4.7259,-4.6921,-4.7022,-4.7327,-4.7394,-4.7631,-4.7906,-4.7906,-4.8443,-4.9018,-4.9018,-4.9018,-4.9018,-4.9018,-4.9018,-4.9018,-4.9018,-4.9018,-4.8815,-4.8041,-4.7023,-4.5845,-4.4716,-4.263,-4.1097,-4.1106,-4.0188,-3.961,-4.0062,-4.0383,0.0,-4.161,-4.2354,-4.2963,-4.3301,-4.3707,-4.3639,-4.2861,0.0,0.0,-4.4615,-4.6312,-4.7293,-4.7293,-4.8037,-4.8612,-4.9018,-4.9695,-5.0202,-5.0642,-5.257,-5.3281,-5.2875,-5.3315,-5.3518,-5.3518,-5.3518,-5.3518,-5.3518,-5.3518,-5.3518,-5.3518,-5.3518,-5.3754,-5.4228,-5.531,-5.5953,-5.6461,-6.6996,-6.7433,-6.7497,-6.7496,-6.5971,-6.4799,-6.4799,-6.3358,-6.1975,-6.1231,-6.1772,-6.2009,-6.1366,-6.0588,-6.0718,-6.2277,-6.0333,-5.942,-6.031,-5.7577,-5.5828,-5.5695,-5.4264,-5.345,-5.3315,-5.2536,-5.1522,-5.027,-4.9526,-4.9187,-4.9154,-4.9052,-4.868,-4.8041,-4.8041,-4.7733,-4.7124,-4.7124,-4.7056,-4.6955,-4.6955,-4.6887,-4.6786,-4.6786,-4.6853,-4.6955,-4.6955,-4.7428,-4.797,-4.7327,-4.7564,-4.797,-4.7327,-4.7631,-4.821,-4.8075,-4.8612,-4.9154,-4.9052,-4.9086,-4.9187,-4.9323,-4.9323,-4.9323,-4.9187,-4.9187,-4.8951,-4.824,-4.6879,-4.5666,-4.5076,-4.3075,-4.1521,-4.1403,-4.073,-4.0248,-4.0113,0.0,-4.1508,-4.2354,-4.3132,-4.3944,-4.4852,-4.4953,-4.4654,-4.3978,-4.5128,-4.5635,0.0,-4.6887,-4.7939,-4.8041,-4.868,-4.9052,-4.9154,-5.0541,-5.1285,-5.1386,-5.2841,-5.3518,-5.3518,-5.3518,-5.3518,-5.3518,-5.3518,-5.3518,-5.3518,-5.3518,-5.3585,-5.3687,-5.3687,-5.3788,-5.416,-5.5412,-5.5953,-5.6224,-6.5358,-6.6059,-6.6554,-6.6443,-6.502,-6.39,-6.3971,-6.2538,-6.1197,-6.0385,-6.0994,-6.1434,-6.1332,-6.0588,-6.0495,-6.1502,-5.9448,-5.8733,-6.0298,-5.8074,-5.6418,-5.5731,-5.4264,-5.3179,-5.2503,-5.1758,-5.1285,-5.1048,-5.0304,-4.9932,-4.9898,-4.9289,-4.8951,-4.8849,-4.8849,-4.8781,-4.8646,-4.8646,-4.8308,-4.7733,-4.7733,-4.7361,-4.6786,-4.6786,-4.7192,-4.7733,-4.7733,-4.8206,-4.8815,-4.8714,-4.8748,-4.8815,-4.868,-4.9154,-4.9627,-4.9018,-4.9357,-4.9796,-4.9187,-4.9458,-5.0067,-5.071,-5.0879,-5.071,-5.0067,-4.9932,-4.9729,-4.8984,-4.8149,-4.7312,-4.6616,-4.5144,-4.363,-4.2354,-4.1508,-4.0798,-4.018,0.0,-4.1711,-4.3071,-4.3944,-4.4925,-4.6312,-4.6447,-4.6413,-4.6278,-4.6481,-4.6853,-4.7361,-4.7703,-4.8176,-4.8815,-4.8951,-4.9289,-4.9898,-5.0777,-5.1522,-5.2131,-5.3078,-5.3518,-5.3518,-5.3518,-5.3518,-5.3518,-5.3518,-5.3518,-5.3518,-5.3518,-5.3856,-5.4431,-5.4431,-5.5175,-5.6325,-5.6562,-5.7036,-5.7577,-6.4829,-6.5361,-6.5629,-6.5559,-6.4533,-6.3719,-6.3755,-6.27,-6.1603,-6.0858,-6.14,-6.1738,-6.1332,-6.0588,-6.0455,-6.1327,-5.9218,-5.827,-5.9114,-5.7344,-5.6081,-5.5719,-5.4314,-5.3348,-5.2942,-5.2198,-5.1792,-5.1792,-5.1048,-5.071,-5.0676,-4.9932,-4.9593,-4.956,-4.9187,-4.9018,-4.9018,-4.9018,-4.8815,-4.8511,-4.8511,-4.8308,-4.797,-4.8003,-4.8206,-4.8511,-4.8511,-4.8714,-4.9018,-4.9018,-4.9018,-4.9086,-4.9458,-4.983,-5.0101,-5.0168,-5.0135,-5.0033,-4.9661,-5.0135,-5.0777,-5.115,-5.1185,-5.1014,-5.027,-5.0101,-4.9898,-4.9154,-4.8409,-4.78,-4.7462,-4.5838,-4.4513,-4.4181,-4.2828,0.0,0.0,-4.2185,-4.2794,-4.391,-4.4722,-4.5602,-4.6684,-4.6786,-4.6786,-4.6786,-4.7158,-4.7564,-4.7872,-4.8277,-4.8849,-4.956,-4.9593,-4.9932,-5.0676,-5.142,-5.1961,-5.23,-5.3112,-5.3518,-5.3518,-5.3518,-5.3518,-5.3518,-5.3923,-5.4093,-5.4126,-5.4532,-5.4905,-5.5209,-5.5209,-5.5615,-5.6258,-5.6664,-5.7036,-5.734,-6.3903,-6.4317,-6.442,-6.4426,-6.3829,-6.3319,-6.3147,-6.2544,-6.1873,-6.1129,-6.167,-6.1907,-6.1366,-6.0588,-6.0381,-6.1043,-5.9132,-5.7944,-5.8059,-5.6579,-5.5598,-5.5441,-5.4188,-5.3518,-5.3518,-5.2909,-5.257,-5.257,-5.1826,-5.1488,-5.1454,-5.071,-5.0236,-5.0067,-4.9492,-4.9154,-4.9018,-4.9018,-4.9018,-4.9018,-4.9018,-4.9018,-4.9018,-4.9018,-4.9018,-4.9018,-4.9018,-4.9018,-4.9018,-4.9018,-4.912,-4.9357,-4.9898,-5.0338,-5.0676,-5.1082,-5.0913,-5.0574,-5.0405,-5.0879,-5.1522,-5.1691,-5.1758,-5.1555,-5.0777,-5.0608,-5.0405,-4.9661,-4.9086,-4.8615,-4.8443,-4.6887,-4.5544,-4.5437,0.0,0.0,0.0,-4.3462,-4.4045,-4.5021,-4.5771,-4.6515,-4.7225,-4.7293,-4.7361,-4.753,-4.8105,-4.8511,-4.8649,-4.9221,-4.9864,-5.0574,-5.0439,-5.071,-5.1454,-5.2029,-5.2401,-5.2604,-5.3213,-5.3518,-5.3518,-5.3687,-5.3754,-5.3788,-5.4532,-5.4871,-5.4905,-5.548,-5.5783,-5.5987,-5.5987,-5.6089,-5.6292,-5.6867,-5.707,-5.7171,-6.1544,-6.2208,-6.2744,-6.26,-6.2537,-6.2261,-6.1583,-6.1404,-6.1095,-6.0283,-6.0892,-6.1366,-6.1298,-6.0588,-6.0152,-6.0194,-5.8764,-5.792,-5.7929,-5.6535,-5.5383,-5.4714,-5.3915,-5.3518,-5.3518,-5.345,-5.3416,-5.3416,-5.2604,-5.2232,-5.2198,-5.1488,-5.0744,-5.0101,-5.0033,-4.9627,-4.9018,-4.9018,-4.9018,-4.9018,-4.9018,-4.9018,-4.9018,-4.9018,-4.9018,-4.9018,-4.9018,-4.9018,-4.9018,-4.9018,-4.9458,-5.0033,-5.0067,-5.1048,-5.2029,-5.1386,-5.1657,-5.1995,-5.1319,-5.1657,-5.2401,-5.3145,-5.3348,-5.3112,-5.2334,-5.2131,-5.1928,-5.1217,-5.0982,-5.0777,-5.0067,-4.9255,-4.776,-4.4953,0.0,0.0,-4.2477,-4.359,-4.5055,-4.6447,-4.7293,-4.8037,-4.8781,-4.8849,-4.912,-4.9796,-4.9898,-5.0236,-5.0914,-5.0982,-5.1386,-5.2097,-5.1488,-5.1488,-5.2198,-5.2266,-5.2672,-5.3416,-5.3484,-5.3518,-5.3518,-5.4194,-5.4499,-5.4566,-5.531,-5.5649,-5.5649,-5.5647,-5.6122,-5.6731,-5.6731,-5.7137,-5.7746,-5.778,-5.7814,-5.7915,-6.1138,-6.1163,-6.1313,-6.2222,-6.2009,-6.1772,-6.1941,-6.1975,-6.1873,-6.1569,-6.1772,-6.1806,-6.1366,-6.0588,-5.9911,-5.9471,-5.849,-5.7712,-5.7239,-5.6697,-5.5619,-5.4016,-5.3651,-5.3518,-5.3518,-5.3518,-5.3518,-5.3518,-5.3179,-5.3044,-5.3044,-5.2266,-5.1488,-5.0777,-5.0304,-4.9695,-4.9018,-4.9018,-4.9018,-4.9018,-4.9018,-4.9018,-4.9018,-4.9018,-4.9018,-4.9018,-4.9018,-4.9289,-4.9661,-4.9661,-5.0168,-5.0879,-5.1319,-5.186,-5.2232,-5.1961,-5.2435,-5.2875,-5.2097,-5.2469,-5.3112,-5.3416,-5.3518,-5.3281,-5.2469,-5.23,-5.2097,-5.1352,-5.1185,-5.1083,-5.0845,-4.983,-4.8757,-4.8039,0.0,-4.592,-4.576,-4.5866,-4.6346,-4.7361,-4.7733,-4.8376,-4.956,-4.9661,-4.9999,-5.0744,-5.0777,-5.0913,-5.1217,-5.1657,-5.2029,-5.23,-5.2503,-5.2773,-5.3044,-5.3044,-5.3213,-5.3518,-5.3518,-5.3754,-5.4194,-5.4465,-5.4837,-5.5344,-5.6055,-5.6393,-5.6427,-5.6867,-5.7239,-5.7476,-5.7476,-5.7645,-5.7949,-5.8423,-5.8592,-5.8693,-6.0622,-6.0486,-6.0588,-6.211,-6.1975,-6.1806,-6.2313,-6.2381,-6.2381,-6.2381,-6.2178,-6.1873,-6.1366,-6.0385,-5.9573,-5.9066,-5.8321,-5.7679,-5.7171,-5.6934,-5.5919,-5.3923,-5.3856,-5.3754,-5.3518,-5.3518,-5.3518,-5.3518,-5.3518,-5.3518,-5.3484,-5.2942,-5.2266,-5.1522,-5.1014,-5.0236,-4.9357,-4.9593,-4.956,-4.9357,-4.9593,-4.956,-4.9357,-4.9593,-4.956,-4.939,-4.9627,-5.0033,-5.0439,-5.0439,-5.0947,-5.1657,-5.2131,-5.2469,-5.2672,-5.2672,-5.3078,-5.3382,-5.2841,-5.3078,-5.3518,-5.3518,-5.3518,-5.3382,-5.2807,-5.2672,-5.2536,-5.2029,-5.1928,-5.1928,-5.1928,-5.0913,-5.0071,-5.0018,-4.8593,-4.7642,-4.8104,-4.7784,-4.7868,-4.8818,-4.892,-4.9357,-5.0338,-5.0439,-5.0744,-5.1488,-5.1555,-5.1657,-5.1928,-5.2401,-5.2672,-5.2672,-5.3213,-5.3518,-5.3518,-5.3518,-5.3518,-5.3518,-5.3721,-5.4093,-5.46,-5.5074,-5.5581,-5.6089,-5.6833,-5.7137,-5.7171,-5.7679,-5.7881,-5.7881,-5.7881,-5.7881,-5.7949,-5.8457,-5.866,-5.8795,-5.981,-6.0114,-6.0588,-6.211,-6.2381,-6.2381,-6.2381,-6.2381,-6.2381,-6.2381,-6.1738,-6.1298,-6.1298,-5.9945,-5.9032,-5.8998,-5.8321,-5.7881,-5.7881,-5.7205,-5.6156,-5.4668,-5.46,-5.4262,-5.3518,-5.3518,-5.3518,-5.3518,-5.3518,-5.3518,-5.3518,-5.3518,-5.3078,-5.23,-5.23,-5.1488,-5.0135,-5.0913,-5.0777,-5.0168,-5.0913,-5.0777,-5.0168,-5.0913,-5.0744,-5.0202,-5.0947,-5.1185,-5.1217,-5.1217,-5.1725,-5.23,-5.23,-5.2875,-5.3518,-5.3518,-5.3518,-5.3518,-5.3518,-5.3518,-5.3518,-5.3518,-5.3518,-5.3518,-5.3518,-5.3518,-5.3518,-5.3518,-5.3518,-5.3518,-5.3518,-5.2841,-5.1798,-5.0155,-4.9387,-4.8974,-4.8829,-4.8951,-4.956,-5.1016,-5.1185,-5.1185,-5.1217,-5.1217,-5.1522,-5.2266,-5.23,-5.2672,-5.345,-5.3518,-5.3518,-5.3518,-5.3518,-5.3518,-5.3518,-5.3518,-5.3518,-5.3518,-5.4262,-5.46,-5.4668,-5.6122,-5.6799,-5.6867,-5.7577,-5.7881,-5.7881,-5.7881,-5.7881,-5.7881,-5.7881,-5.7881,-5.7881,-5.7881,-5.7915,-5.8118,-5.981,-5.9674,-5.9979,-6.2042,-6.1975,-6.1806,-6.2313,-6.2381,-6.2212,-6.1704,-6.1434,-6.0892,-5.981,-5.9302,-5.8795,-5.8254,-5.8017,-5.7881,-5.7881,-5.7679,-5.7137,-5.619,-5.5141,-5.4499,-5.4262,-5.3754,-5.3518,-5.3518,-5.3518,-5.3518,-5.3518,-5.3518,-5.3078,-5.23,-5.23,-5.1758,-5.0913,-5.1116,-5.1082,-5.0913,-5.1116,-5.1082,-5.0913,-5.115,-5.1082,-5.0913,-5.115,-5.1555,-5.1961,-5.1961,-5.2503,-5.3145,-5.3145,-5.3315,-5.3518,-5.3518,-5.3518,-5.3518,-5.3518,-5.3518,-5.3518,-5.3518,-5.3518,-5.3518,-5.3518,-5.3518,-5.3518,-5.3518,-5.3518,-5.3518,-5.3518,-5.2841,-5.2166,-5.1664,-5.0988,-5.0512,-5.0488,-5.0516,-5.071,-5.1151,-5.1185,-5.142,-5.1928,-5.1961,-5.23,-5.3078,-5.3145,-5.3247,-5.3484,-5.3518,-5.3518,-5.3518,-5.3518,-5.3518,-5.3518,-5.3518,-5.3754,-5.4262,-5.4465,-5.5141,-5.6156,-5.6596,-5.707,-5.7577,-5.778,-5.7881,-5.7881,-5.7881,-5.7881,-5.7881,-5.7881,-5.7881,-5.7949,-5.849,-5.8693,-5.8896,-5.9877,-6.0013,-6.0452,-6.211,-6.2009,-6.1873,-6.2313,-6.2381,-6.2245,-6.1772,-6.1197,-6.0486,-5.9539,-5.893,-5.8389,-5.7915,-5.8152,-5.8355,-5.8355,-5.8355,-5.8152,-5.7679,-5.6258,-5.5344,-5.504,-5.46,-5.4228,-5.3923,-5.3923,-5.3788,-5.3518,-5.3518,-5.3247,-5.2773,-5.2773,-5.2367,-5.1657,-5.1995,-5.1928,-5.1657,-5.1995,-5.1928,-5.1691,-5.1995,-5.1928,-5.1691,-5.1995,-5.2401,-5.2773,-5.2773,-5.3112,-5.3518,-5.3518,-5.3518,-5.3518,-5.3518,-5.3518,-5.3518,-5.3518,-5.3518,-5.3518,-5.3518,-5.3518,-5.3518,-5.3518,-5.3721,-5.3856,-5.3551,-5.3721,-5.3856,-5.3551,-5.3112,-5.2773,-5.2773,-5.2131,-5.1758,-5.2063,-5.186,-5.1758,-5.2097,-5.2131,-5.23,-5.2739,-5.2773,-5.2976,-5.345,-5.3518,-5.3518,-5.3518,-5.3518,-5.3518,-5.3518,-5.3788,-5.3788,-5.3518,-5.4093,-5.4465,-5.46,-5.5175,-5.5953,-5.6799,-5.7103,-5.7476,-5.7881,-5.7881,-5.7881,-5.7881,-5.7881,-5.7881,-5.7881,-5.7881,-5.7881,-5.7949,-5.8389,-5.8761,-5.9201,-6.0047,-6.0791,-6.1535,-6.2245,-6.2381,-6.2381,-6.2381,-6.2381,-6.2381,-6.2313,-6.1028,-6.008,-6.0013,-5.8795,-5.7983,-5.7983,-5.8693,-5.9137,-5.9211,-5.9137,-5.9137,-5.9211,-5.7782,-5.6697,-5.5986,-5.5783,-5.5344,-5.46,-5.46,-5.4228,-5.3518,-5.3518,-5.3518,-5.3518,-5.3518,-5.3078,-5.2469,-5.3179,-5.3078,-5.2469,-5.3213,-5.3078,-5.2503,-5.3213,-5.3044,-5.2503,-5.3247,-5.3518,-5.3518,-5.3518,-5.3518,-5.3518,-5.3518,-5.3518,-5.3518,-5.3518,-5.3518,-5.3518,-5.3518,-5.3518,-5.3518,-5.3585,-5.3585,-5.3585,-5.3585,-5.416,-5.4499,-5.3856,-5.416,-5.4397,-5.3721,-5.3551,-5.3518,-5.3518,-5.2875,-5.2672,-5.3416,-5.2875,-5.2672,-5.3416,-5.3518,-5.3518,-5.3518,-5.3518,-5.3518,-5.3518,-5.3518,-5.3518,-5.3518,-5.3518,-5.3518,-5.3518,-5.4228,-5.4262,-5.3619,-5.5074,-5.5446,-5.4702,-5.6122,-5.6833,-5.6934,-5.7577,-5.7881,-5.7881,-5.7881,-5.7881,-5.7881,-5.7949,-5.7949,-5.7915,-5.8051,-5.8051,-5.8017,-5.8051,-5.8524,-5.9201,-6.0892,-6.1197,-6.1535,-6.2245,-6.2381,-6.2381,-6.2381,-6.2381,-6.2178,-6.1603,-6.0689,-5.9877,-5.9302,-5.8964,-5.8761,-5.8761,-5.9438,-6.018,-6.0909,-6.0257,-6.0217,-6.0909,-5.9405,-5.8457,-5.8321,-5.6596,-5.5344,-5.46,-5.46,-5.4228,-5.3518,-5.3518,-5.3518,-5.3518,-5.3518,-5.3416,-5.3247,-5.345,-5.3416,-5.3281,-5.345,-5.3416,-5.3281,-5.345,-5.3382,-5.3281,-5.345,-5.3518,-5.3518,-5.3518,-5.3518,-5.3518,-5.3518,-5.3518,-5.3518,-5.3518,-5.3518,-5.3518,-5.3518,-5.3518,-5.3653,-5.4228,-5.4363,-5.4363,-5.4363,-5.4938,-5.5446,-5.5277,-5.4905,-5.4532,-5.4397,-5.389,-5.3518,-5.3518,-5.3348,-5.3315,-5.3484,-5.3348,-5.3315,-5.3484,-5.3518,-5.3518,-5.3518,-5.3518,-5.3518,-5.3518,-5.3518,-5.3518,-5.3518,-5.3518,-5.3518,-5.3518,-5.4228,-5.4499,-5.4363,-5.5818,-5.619,-5.548,-5.6393,-5.7103,-5.7645,-5.7814,-5.7881,-5.7881,-5.7881,-5.7881,-5.7915,-5.8524,-5.8423,-5.8017,-5.9167,-5.9268,-5.8829,-5.9404,-5.9708,-5.9979,-6.1231,-6.1569,-6.1941,-6.2313,-6.2381,-6.2381,-6.2381,-6.2381,-6.2245,-6.1873,-6.1163,-6.052,-6.0148,-5.9776,-5.9539,-5.9539,-6.0216,-6.0883,-6.1336,-6.1302,-6.1336,-6.1373,-6.0617,-5.9816,-5.9032,-5.7881,-5.6765,-5.5649,-5.5649,-5.5277,-5.4566,-5.4194,-5.4025,-5.4025,-5.3653,-5.3518,-5.3518,-5.3518,-5.3518,-5.3518,-5.3518,-5.3518,-5.3518,-5.3518,-5.3518,-5.3518,-5.3518,-5.3518,-5.3518,-5.3518,-5.3518,-5.3518,-5.3518,-5.3518,-5.3518,-5.3518,-5.3518,-5.3585,-5.3923,-5.4025,-5.4194,-5.4938,-5.5378,-5.5547,-5.5209,-5.5716,-5.6122,-5.5749,-5.5683,-5.5547,-5.5209,-5.4803,-5.4566,-5.4566,-5.4566,-5.4431,-5.4059,-5.4025,-5.389,-5.3551,-5.3518,-5.3518,-5.3518,-5.3518,-5.3518,-5.3518,-5.3822,-5.4025,-5.4025,-5.4363,-5.4566,-5.4566,-5.5277,-5.548,-5.5141,-5.6596,-5.6934,-5.6258,-5.6968,-5.7509,-5.7881,-5.7881,-5.8084,-5.8423,-5.8051,-5.8287,-5.893,-5.8998,-5.8998,-5.9032,-5.981,-5.9877,-5.9573,-5.9945,-6.0351,-6.0791,-6.1501,-6.1975,-6.2381,-6.2381,-6.2381,-6.2381,-6.2381,-6.2381,-6.2381,-6.2381,-6.1772,-6.1298,-6.1298,-6.0825,-6.0554,-6.0655,-6.14,-6.1883,-6.1906,-6.2444,-6.2449,-6.1741,-6.1551,-6.0794,-5.9404,-5.9133,-5.8287,-5.6799,-5.6799,-5.6427,-5.5716,-5.5074,-5.4702,-5.4566,-5.3957,-5.3619,-5.3518,-5.3518,-5.3518,-5.3518,-5.3653,-5.3619,-5.3518,-5.3653,-5.3619,-5.3518,-5.3518,-5.3518,-5.3518,-5.3518,-5.3518,-5.3518,-5.3518,-5.3585,-5.3687,-5.3687,-5.3788,-5.4025,-5.4634,-5.4769,-5.4972,-5.5716,-5.6359,-5.6664,-5.619,-5.6562,-5.6799,-5.6224,-5.6461,-5.663,-5.6021,-5.5749,-5.5681,-5.5681,-5.5681,-5.5513,-5.4871,-5.4769,-5.4566,-5.3957,-5.389,-5.3822,-5.3687,-5.3822,-5.3788,-5.3518,-5.4296,-5.4735,-5.46,-5.531,-5.5681,-5.5681,-5.6427,-5.6528,-5.5884,-5.7239,-5.7645,-5.7171,-5.778,-5.8084,-5.8084,-5.822,-5.8592,-5.9167,-5.8524,-5.8964,-6.0047,-5.9607,-5.9674,-6.0114,-6.0385,-6.0419,-6.0317,-6.0452,-6.0926,-6.1569,-6.2245,-6.2313,-6.2381,-6.2381,-6.2381,-6.2381,-6.2381,-6.2381,-6.2381,-6.2381,-6.1772,-6.1298,-6.1298,-6.1772,-6.2347,-6.299,-6.3734,-6.4234,-6.4327,-6.3751,-6.3401,-6.336,-6.2077,-6.1249,-6.0994,-5.9708,-5.8287,-5.6799,-5.6799,-5.6427,-5.5681,-5.5615,-5.5209,-5.46,-5.4499,-5.4093,-5.3518,-5.3518,-5.3518,-5.3551,-5.4194,-5.4059,-5.3585,-5.4194,-5.4059,-5.3518,-5.3518,-5.3518,-5.3518,-5.3518,-5.3518,-5.3518,-5.3518,-5.3923,-5.4431,-5.4431,-5.4905,-5.5411,-5.5547,-5.5581,-5.575,-5.6461,-5.6731,-5.6934,-5.7476,-5.7679,-5.7712,-5.7611,-5.7171,-5.6765,-5.6664,-5.6156,-5.5681,-5.5681,-5.5681,-5.5683,-5.5581,-5.5581,-5.5478,-5.5412,-5.5412,-5.5141,-5.4499,-5.504,-5.4871,-5.3619,-5.4769,-5.5277,-5.4634,-5.531,-5.5681,-5.5681,-5.6427,-5.6765,-5.6664,-5.7476,-5.8152,-5.8727,-5.8829,-5.8863,-5.8896,-5.9505,-5.9844,-5.9945,-5.9844,-5.9911,-6.0148,-6.0757,-6.0655,-6.0216,-6.1569,-6.1704,-6.1231,-6.1839,-6.2144,-6.2245,-6.2381,-6.2381,-6.2516,-6.2956,-6.3024,-6.3159,-6.3565,-6.3294,-6.3024,-6.3024,-6.2381,-6.1907,-6.1907,-6.2584,-6.3328,-6.4072,-6.441,-6.4443,-6.4093,-6.4179,-6.3837,-6.3007,-6.2778,-6.2211,-6.1298,-6.0622,-5.9539,-5.8051,-5.7611,-5.7239,-5.6934,-5.6528,-5.5919,-5.5209,-5.4769,-5.4194,-5.3518,-5.3518,-5.3754,-5.4126,-5.4465,-5.4634,-5.4769,-5.5108,-5.4769,-5.4059,-5.3653,-5.3518,-5.3551,-5.3991,-5.4126,-5.4194,-5.46,-5.4972,-5.5209,-5.5209,-5.5446,-5.5818,-5.6224,-5.6325,-5.6494,-5.7239,-5.7408,-5.7476,-5.7814,-5.7881,-5.7881,-5.7881,-5.7645,-5.7408,-5.7408,-5.7137,-5.6934,-5.6934,-5.6934,-5.6799,-5.6393,-5.6325,-5.6156,-5.5749,-5.5681,-5.5581,-5.5243,-5.5513,-5.5446,-5.4803,-5.5716,-5.619,-5.5852,-5.6528,-5.6934,-5.6934,-5.7645,-5.8051,-5.8051,-5.8761,-5.9302,-5.9641,-6.008,-6.0047,-5.9641,-5.9945,-6.0351,-6.0757,-6.0283,-6.0588,-6.1366,-6.1332,-6.1332,-6.1434,-6.211,-6.2178,-6.1941,-6.2279,-6.2381,-6.2381]},{"header":{"parameterUnit":"m.s-1","parameterCategory":1,"la1":30.6,"la2":28.766,"lo1":-90.7593,"lo2":-88.6598,"dy":0.0162,"dx":0.0183,"nx":116,"ny":114,"refTime":"2024-04-16T12:00:00:Z","depth":0,"parameterNumber":3,"parameterNumberName":"V-component_of_WINDS"},"data":[0.0,0.0,0.0,0.0,0.0,0.0,0.0,0.0,0.0,0.0,0.0,0.0,0.0,0.0,0.0,0.0,0.0,0.0,0.0,0.0,0.0,0.0,0.0,0.0,0.0,0.0,0.0,0.0,0.0,0.0,0.0,0.0,0.0,0.0,0.0,0.0,0.0,0.0,0.0,0.0,0.0,0.0,0.0,0.0,0.0,0.0,0.0,0.0,0.0,0.0,0.0,0.0,0.0,0.0,0.0,0.0,0.0,0.0,0.0,0.0,0.0,0.0,0.0,0.0,0.0,0.0,0.0,0.0,0.0,0.0,0.0,0.0,0.0,0.0,0.0,0.0,0.0,0.0,0.0,0.0,0.0,0.0,0.0,0.0,0.0,0.0,0.0,0.0,0.0,0.0,0.0,0.0,0.0,0.0,0.0,0.0,0.0,0.0,0.0,0.0,0.0,0.0,0.0,0.0,0.0,0.0,0.0,0.0,0.0,0.0,0.0,0.0,0.0,0.0,0.0,0.0,0.0,0.0,0.0,0.0,0.0,0.0,0.0,0.0,0.0,0.0,0.0,0.0,0.0,0.0,0.0,0.0,0.0,0.0,0.0,0.0,0.0,0.0,0.0,0.0,0.0,0.0,0.0,0.0,0.0,0.0,0.0,0.0,0.0,0.0,0.0,0.0,0.0,0.0,0.0,0.0,0.0,0.0,0.0,0.0,0.0,0.0,0.0,0.0,0.0,0.0,0.0,0.0,0.0,0.0,0.0,0.0,0.0,0.0,0.0,0.0,0.0,0.0,0.0,0.0,0.0,0.0,0.0,0.0,0.0,0.0,0.0,0.0,0.0,0.0,0.0,0.0,0.0,0.0,0.0,0.0,0.0,0.0,0.0,0.0,0.0,0.0,0.0,0.0,0.0,0.0,0.0,0.0,0.0,0.0,0.0,0.0,0.0,0.0,0.0,0.0,0.0,0.0,0.0,0.0,0.0,0.0,0.0,0.0,0.0,0.0,0.0,0.0,0.0,0.0,0.0,0.0,0.0,0.0,0.0,0.0,0.0,0.0,0.0,0.0,0.0,0.0,0.0,0.0,0.0,0.0,0.0,0.0,0.0,0.0,0.0,0.0,0.0,0.0,0.0,0.0,0.0,0.0,0.0,0.0,0.0,0.0,0.0,0.0,0.0,0.0,0.0,0.0,0.0,0.0,0.0,0.0,0.0,0.0,0.0,0.0,0.0,0.0,0.0,0.0,0.0,0.0,0.0,0.0,0.0,0.0,0.0,0.0,0.0,0.0,0.0,0.0,0.0,0.0,0.0,0.0,0.0,0.0,0.0,0.0,0.0,0.0,0.0,0.0,0.0,0.0,0.0,0.0,0.0,0.0,0.0,0.0,0.0,0.0,0.0,0.0,0.0,0.0,0.0,0.0,0.0,0.0,0.0,0.0,0.0,0.0,0.0,0.0,0.0,0.0,0.0,0.0,0.0,0.0,0.0,0.0,0.0,0.0,0.0,0.0,0.0,0.0,0.0,0.0,0.0,0.0,0.0,0.0,0.0,0.0,0.0,0.0,0.0,0.0,0.0,0.0,0.0,0.0,0.0,0.0,0.0,0.0,0.0,0.0,0.0,0.0,0.0,0.0,0.0,0.0,0.0,0.0,0.0,0.0,0.0,0.0,0.0,0.0,0.0,0.0,0.0,0.0,0.0,0.0,0.0,0.0,0.0,0.0,0.0,0.0,0.0,0.0,0.0,0.0,0.0,0.0,0.0,0.0,0.0,0.0,0.0,0.0,0.0,0.0,0.0,0.0,0.0,0.0,0.0,0.0,0.0,0.0,0.0,0.0,0.0,0.0,0.0,0.0,0.0,0.0,0.0,0.0,0.0,0.0,0.0,0.0,0.0,0.0,0.0,0.0,0.0,0.0,0.0,0.0,0.0,0.0,0.0,0.0,0.0,0.0,0.0,0.0,0.0,0.0,0.0,0.0,0.0,0.0,0.0,0.0,0.0,0.0,0.0,0.0,0.0,0.0,0.0,0.0,0.0,0.0,0.0,0.0,0.0,0.0,0.0,0.0,0.0,0.0,0.0,0.0,0.0,0.0,0.0,0.0,0.0,0.0,0.0,0.0,0.0,0.0,0.0,0.0,0.0,0.0,0.0,0.0,0.0,0.0,0.0,0.0,0.0,0.0,0.0,0.0,0.0,0.0,0.0,0.0,0.0,0.0,0.0,0.0,0.0,0.0,0.0,0.0,0.0,0.0,0.0,0.0,0.0,0.0,0.0,0.0,0.0,0.0,0.0,0.0,0.0,0.0,0.0,0.0,0.0,0.0,0.0,0.0,0.0,0.0,0.0,0.0,0.0,0.0,0.0,0.0,0.0,0.0,0.0,0.0,0.0,0.0,0.0,0.0,0.0,0.0,0.0,0.0,0.0,0.0,0.0,0.0,0.0,0.0,0.0,0.0,0.0,0.0,0.0,0.0,0.0,0.0,0.0,0.0,0.0,0.0,0.0,0.0,0.0,0.0,0.0,0.0,0.0,0.0,0.0,0.0,0.0,0.0,0.0,0.0,0.0,0.0,0.0,0.0,0.0,0.0,0.0,0.0,0.0,0.0,0.0,0.0,0.0,0.0,0.0,0.0,0.0,0.0,0.0,0.0,0.0,0.0,0.0,0.0,0.0,0.0,0.0,0.0,0.0,0.0,0.0,0.0,0.0,0.0,0.0,0.0,0.0,0.0,0.0,0.0,0.0,0.0,0.0,0.0,0.0,0.0,0.0,0.0,0.0,0.0,0.0,0.0,0.0,0.0,0.0,0.0,0.0,0.0,0.0,0.0,0.0,0.0,0.0,0.0,0.0,0.0,0.0,0.0,0.0,0.0,0.0,0.0,0.0,0.0,0.0,0.0,0.0,0.0,0.0,0.0,0.0,0.0,0.0,0.0,0.0,0.0,0.0,0.0,0.0,0.0,0.0,0.0,0.0,0.0,0.0,0.0,0.0,0.0,0.0,0.0,0.0,0.0,0.0,0.0,0.0,0.0,0.0,0.0,0.0,0.0,0.0,0.0,0.0,0.0,0.0,0.0,0.0,0.0,0.0,0.0,0.0,0.0,0.0,0.0,0.0,0.0,0.0,0.0,0.0,0.0,0.0,0.0,0.0,0.0,0.0,0.0,0.0,0.0,0.0,0.0,0.0,0.0,0.0,0.0,0.0,0.0,0.0,0.0,0.0,0.0,0.0,0.0,0.0,0.0,0.0,0.0,0.0,0.0,0.0,0.0,0.0,0.0,0.0,0.0,0.0,0.0,0.0,0.0,0.0,0.0,0.0,0.0,0.0,0.0,0.0,0.0,0.0,0.0,0.0,0.0,0.0,0.0,0.0,0.0,0.0,0.0,0.0,0.0,0.0,0.0,0.0,0.0,0.0,0.0,0.0,0.0,0.0,0.0,0.0,0.0,0.0,0.0,0.0,0.0,0.0,0.0,0.0,0.0,0.0,0.0,0.0,0.0,0.0,0.0,0.0,0.0,0.0,0.0,0.0,0.0,0.0,0.0,0.0,0.0,0.0,0.0,0.0,0.0,0.0,0.0,0.0,0.0,0.0,0.0,0.0,0.0,0.0,0.0,0.0,0.0,0.0,0.0,0.0,0.0,0.0,0.0,0.0,0.0,0.0,0.0,0.0,0.0,0.0,0.0,0.0,0.0,0.0,0.0,0.0,0.0,0.0,0.0,0.0,0.0,0.0,0.0,0.0,0.0,0.0,0.0,0.0,0.0,0.0,0.0,0.0,0.0,0.0,0.0,0.0,0.0,0.0,0.0,0.0,0.0,0.0,0.0,0.0,0.0,0.0,0.0,0.0,0.0,0.0,0.0,0.0,0.0,0.0,0.0,0.0,0.0,0.0,0.0,0.0,0.0,0.0,0.0,0.0,0.0,0.0,0.0,0.0,0.0,0.0,0.0,0.0,0.0,0.0,0.0,0.0,0.0,0.0,0.0,0.0,0.0,0.0,0.0,0.0,0.0,0.0,0.0,0.0,0.0,0.0,0.0,0.0,0.0,0.0,0.0,0.0,0.0,0.0,0.0,0.0,0.0,0.0,0.0,0.0,0.0,0.0,0.0,0.0,0.0,0.0,0.0,0.0,0.0,0.0,0.0,0.0,0.0,0.0,0.0,0.0,0.0,0.0,0.0,0.0,0.0,0.0,0.0,0.0,0.0,0.0,0.0,0.0,0.0,0.0,0.0,0.0,0.0,0.0,0.0,0.0,0.0,0.0,0.0,0.0,0.0,0.0,0.0,0.0,0.0,0.0,0.0,0.0,0.0,0.0,0.0,0.0,0.0,0.0,0.0,0.0,0.0,0.0,0.0,0.0,0.0,0.0,0.0,0.0,0.0,0.0,0.0,0.0,0.0,0.0,0.0,0.0,0.0,0.0,0.0,0.0,0.0,0.0,0.0,0.0,0.0,0.0,0.0,0.0,0.0,0.0,0.0,0.0,0.0,0.0,0.0,0.0,0.0,0.0,0.0,0.0,0.0,0.0,0.0,0.0,0.0,0.0,0.0,0.0,0.0,0.0,0.0,0.0,0.0,0.0,0.0,0.0,0.0,0.0,0.0,0.0,0.0,0.0,0.0,0.0,0.0,0.0,0.0,0.0,0.0,0.0,0.0,0.0,0.0,0.0,0.0,0.0,0.0,0.0,0.0,0.0,0.0,0.0,0.0,0.0,0.0,0.0,0.0,0.0,0.0,0.0,0.0,0.0,0.0,0.0,0.0,0.0,0.0,0.0,0.0,0.0,0.0,0.0,0.0,0.0,0.0,0.0,0.0,0.0,0.0,0.0,0.0,0.0,0.0,0.0,0.0,0.0,0.0,0.0,0.0,0.0,0.0,0.0,0.0,0.0,0.0,0.0,0.0,0.0,0.0,0.0,0.0,0.0,0.0,0.0,0.0,0.0,0.0,0.0,0.0,0.0,0.0,0.0,0.0,0.0,0.0,0.0,0.0,0.0,0.0,0.0,0.0,0.0,0.0,0.0,0.0,0.0,0.0,0.0,0.0,0.0,0.0,0.0,0.0,0.0,0.0,0.0,0.0,0.0,0.0,0.0,0.0,0.0,0.0,0.0,0.0,0.0,0.0,0.0,0.0,0.0,0.0,0.0,0.0,0.0,0.0,0.0,0.0,0.0,0.0,0.0,0.0,0.0,0.0,0.0,0.0,0.0,0.0,0.0,0.0,0.0,0.0,0.0,0.0,0.0,0.0,0.0,0.0,0.0,0.0,0.0,0.0,0.0,0.0,0.0,0.0,0.0,0.0,0.0,0.0,0.0,0.0,0.0,0.0,0.0,0.0,0.0,0.0,0.0,0.0,0.0,0.0,0.0,0.0,0.0,0.0,0.0,0.0,0.0,0.0,0.0,0.0,0.0,0.0,0.0,0.0,0.0,0.0,0.0,0.0,0.0,0.0,0.0,0.0,0.0,0.0,0.0,0.0,0.0,0.0,0.0,0.0,0.0,0.0,0.0,0.0,0.0,0.0,0.0,0.0,0.0,0.0,0.0,0.0,0.0,0.0,0.0,0.0,0.0,0.0,0.0,0.0,0.0,0.0,0.0,0.0,0.0,0.0,0.0,0.0,0.0,0.0,0.0,0.0,0.0,0.0,0.0,0.0,0.0,0.0,0.0,0.0,0.0,0.0,0.0,0.0,0.0,0.0,0.0,0.0,0.0,0.0,0.0,0.0,0.0,0.0,0.0,0.0,0.0,0.0,0.0,0.0,0.0,0.0,0.0,0.0,0.0,0.0,0.0,0.0,0.0,0.0,0.0,0.0,0.0,0.0,0.0,0.0,0.0,0.0,0.0,0.0,0.0,0.0,0.0,0.0,0.0,0.0,0.0,0.0,0.0,0.0,0.0,0.0,0.0,0.0,0.0,0.0,0.0,0.0,0.0,0.0,0.0,0.0,0.0,0.0,0.0,0.0,0.0,0.0,0.0,0.0,0.0,0.0,0.0,0.0,0.0,0.0,0.0,0.0,0.0,0.0,0.0,0.0,0.0,0.0,0.0,0.0,0.0,0.0,0.0,0.0,0.0,0.0,0.0,0.0,0.0,0.0,0.0,0.0,1.5551,0.0,0.0,0.0,0.0,0.0,0.0,0.0,0.0,0.0,0.0,0.0,0.0,0.0,0.0,0.0,0.0,0.0,0.0,0.0,0.0,0.0,0.0,0.0,0.0,2.8301,2.8301,2.8301,2.8301,2.8301,2.8301,2.8301,0.0,0.0,0.0,0.0,2.8301,2.8301,2.8594,2.9238,2.8848,2.8535,2.8301,2.8965,2.9141,2.8965,0.0,0.0,0.0,0.0,0.0,0.0,0.0,0.0,0.0,0.0,0.0,0.0,0.0,0.0,0.0,0.0,0.0,0.0,0.0,0.0,0.0,0.0,0.0,0.0,0.0,0.0,0.0,0.0,0.0,0.0,0.0,0.0,0.0,0.0,0.0,0.0,0.0,0.0,0.0,0.0,0.0,0.0,0.0,0.0,0.0,0.0,0.0,0.0,0.0,0.0,0.0,0.0,0.0,0.0,0.0,0.0,0.0,0.0,0.0,0.0,0.0,0.0,0.0,0.0,0.0,0.0,0.0,0.0,0.0,0.0,0.0,1.5925,0.0,0.0,0.0,0.0,0.0,0.0,0.0,0.0,0.0,0.0,0.0,0.0,0.0,0.0,0.0,0.0,0.0,0.0,0.0,0.0,0.0,2.8242,2.8379,2.8398,2.8437,2.8516,2.8437,2.8398,2.8398,2.834,2.8301,2.8301,2.8301,2.8301,2.8301,2.8359,2.8672,2.9293,2.8105,2.7812,2.8301,2.8809,2.8848,2.8535,2.9078,0.0,0.0,0.0,0.0,0.0,0.0,0.0,0.0,0.0,0.0,0.0,0.0,0.0,0.0,0.0,0.0,0.0,0.0,0.0,0.0,0.0,0.0,0.0,0.0,0.0,0.0,0.0,0.0,0.0,0.0,0.0,0.0,0.0,0.0,0.0,0.0,0.0,0.0,0.0,0.0,0.0,0.0,0.0,0.0,0.0,0.0,0.0,0.0,0.0,0.0,0.0,0.0,0.0,0.0,0.0,0.0,0.0,0.0,0.0,0.0,0.0,0.0,0.0,1.7889,1.8156,1.849,1.8544,1.829,1.7849,1.7653,1.71,1.6341,1.6796,0.0,0.0,0.0,0.0,0.0,0.0,0.0,0.0,0.0,0.0,0.0,0.0,0.0,0.0,0.0,0.0,0.0,0.0,0.0,2.8027,2.875,2.8828,2.8984,2.9375,2.9062,2.8848,2.8828,2.8496,2.8301,2.8301,2.8301,2.8301,2.8301,2.8652,2.8535,2.7963,2.7363,2.7519,2.832,2.9101,2.9453,2.9411,2.8413,2.873,3.0019,0.0,0.0,0.0,0.0,0.0,0.0,0.0,0.0,0.0,0.0,0.0,0.0,0.0,0.0,0.0,0.0,0.0,0.0,0.0,0.0,0.0,0.0,0.0,0.0,0.0,0.0,0.0,0.0,0.0,0.0,0.0,0.0,0.0,0.0,0.0,0.0,0.0,0.0,0.0,0.0,0.0,1.5431,1.5685,0.0,0.0,0.0,0.0,0.0,0.0,0.0,0.0,0.0,0.0,0.0,0.0,0.0,1.7622,1.8196,1.8704,1.8758,1.8384,1.9145,1.9145,1.8504,1.8744,1.8824,1.8814,2.0397,0.0,1.8292,1.8134,0.0,0.0,0.0,0.0,0.0,0.0,0.0,0.0,0.0,0.0,0.0,0.0,0.0,0.0,0.0,0.0,0.0,0.0,0.0,0.0,0.0,2.8926,2.9004,2.918,2.9922,2.9863,2.8652,2.9316,2.9316,2.834,2.8301,2.8301,2.8301,2.8008,2.7559,2.6953,2.7715,2.8281,2.8652,2.9277,2.9687,2.9939,3.0045,3.0138,3.0098,2.8633,0.0,0.0,0.0,0.0,0.0,0.0,0.0,0.0,0.0,0.0,0.0,0.0,0.0,0.0,0.0,0.0,0.0,0.0,0.0,0.0,0.0,0.0,0.0,0.0,0.0,0.0,0.0,0.0,0.0,0.0,0.0,0.0,0.0,0.0,0.0,0.0,0.0,0.0,0.0,1.5933,1.6246,1.5872,1.638,1.658,0.0,0.0,0.0,0.0,0.0,0.0,0.0,0.0,0.0,1.7943,1.8023,1.8384,1.8971,1.9078,1.9319,1.972,1.9947,2.0013,1.9973,2.0094,2.0629,2.1575,2.2468,2.3027,2.3268,2.1567,2.1008,2.111,0.0,0.0,0.0,0.0,2.0653,2.169,0.0,0.0,0.0,0.0,0.0,0.0,0.0,0.0,0.0,0.0,0.0,0.0,2.8945,2.9082,2.9219,2.9551,3.0566,3.0547,2.9062,2.9648,2.959,2.8496,2.834,2.8301,2.8301,2.7559,2.7187,2.7207,2.8359,2.9023,2.9258,2.9922,3.0391,3.0741,3.1763,3.1778,3.0983,2.9559,2.902,2.9126,0.0,0.0,0.0,0.0,0.0,0.0,0.0,0.0,0.0,0.0,0.0,0.0,0.0,0.0,0.0,0.0,0.0,0.0,0.0,0.0,0.0,0.0,0.0,0.0,0.0,0.0,0.0,0.0,0.0,0.0,0.0,0.0,0.0,0.0,0.0,0.0,0.0,1.6549,1.6924,1.6139,1.6967,1.734,0.0,0.0,0.0,0.0,0.0,0.0,1.7903,1.829,1.8664,1.9038,1.9118,1.9439,2.0027,1.9746,2.008,2.1002,2.0708,2.0802,2.1229,2.1229,2.2111,2.3636,2.4054,2.5447,2.7244,2.4723,2.3599,2.3419,2.2048,2.1822,2.2201,2.1992,2.2763,2.3973,0.0,0.0,0.0,0.0,0.0,0.0,0.0,0.0,0.0,0.0,0.0,2.6777,2.9277,2.9531,3.0039,3.1269,3.0703,3.041,3.0742,2.8926,2.8144,2.8848,2.8496,2.8301,2.8301,2.7851,2.8276,2.947,2.9082,2.9336,3.0156,3.1445,3.2111,3.215,3.2583,3.3055,3.3424,3.1412,3.0969,3.1479,2.9585,0.0,0.0,0.0,0.0,0.0,0.0,0.0,0.0,0.0,0.0,0.0,0.0,0.0,0.0,0.0,0.0,0.0,0.0,0.0,0.0,0.0,0.0,0.0,0.0,0.0,0.0,0.0,0.0,0.0,0.0,0.0,0.0,0.0,0.0,0.0,0.0,0.0,0.0,1.67,1.7943,0.0,0.0,0.0,0.0,1.7542,1.8317,1.8824,1.8851,1.9399,1.9973,2.0548,2.0828,2.1256,2.1844,2.1628,2.159,2.1911,2.1695,2.1561,2.1601,2.1601,2.232,2.3698,2.5192,2.6815,2.8169,2.6473,2.6421,2.7286,2.5935,2.5702,2.6023,2.5188,2.5169,2.5548,0.0,0.0,0.0,0.0,0.0,2.314,2.3296,2.3965,2.4785,2.584,2.6562,2.7851,3.0156,3.0664,3.123,3.2246,3.2305,3.1875,3.0957,2.9883,2.918,2.8926,2.8262,2.7891,2.7891,2.7787,2.8164,2.9141,2.9551,3.0332,3.1484,3.2013,3.2461,3.3051,3.4184,3.4634,3.4327,3.1274,2.9957,2.9768,2.7983,2.7519,0.0,0.0,0.0,0.0,0.0,0.0,0.0,0.0,0.0,0.0,0.0,0.0,0.0,0.0,0.0,0.0,0.0,0.0,0.0,0.0,0.0,0.0,0.0,0.0,0.0,0.0,0.0,0.0,0.0,0.0,0.0,0.0,0.0,0.0,0.0,0.0,0.0,1.8945,1.9773,0.0,1.9065,1.8931,1.8931,1.8998,1.9479,1.9933,2.0307,2.0708,2.1109,2.151,2.1617,2.1871,2.2258,2.1977,2.1884,2.1977,2.1762,2.1521,2.1333,2.2384,2.3741,2.5253,2.6832,2.8486,2.9982,2.9374,2.9064,2.8824,2.748,2.707,2.7219,2.6906,2.6836,2.6992,0.0,0.0,0.0,0.0,0.0,2.2925,2.3081,2.3822,2.4629,2.5167,2.6426,2.8047,3.0215,3.0957,3.1758,3.291,3.2734,3.2148,3.1172,2.9863,2.9062,2.8926,2.8262,2.7865,2.7728,2.8139,2.8652,2.9355,3.0078,3.0957,3.1953,3.215,3.2539,3.3285,3.4427,3.4821,3.4269,3.1781,3.0421,2.9933,2.818,2.8144,2.9004,0.0,0.0,0.0,0.0,0.0,0.0,0.0,0.0,0.0,0.0,0.0,0.0,0.0,0.0,0.0,0.0,0.0,0.0,0.0,0.0,0.0,0.0,0.0,0.0,0.0,0.0,0.0,0.0,0.0,0.0,0.0,0.0,0.0,0.0,1.9484,2.0708,2.0395,2.1719,2.2079,2.0663,2.0454,2.0441,2.0535,2.0895,2.1283,2.1683,2.1949,2.215,2.2271,2.2285,2.2325,2.2418,2.2124,2.1991,2.1977,2.1762,2.1443,2.132,2.3001,2.458,2.6106,2.7692,2.9335,3.0879,3.0723,3.0312,2.9707,2.8848,2.8491,2.8335,2.8144,2.7988,2.7891,0.0,0.0,0.0,0.0,0.0,2.2699,2.3023,2.3822,2.4414,2.4414,2.5605,2.7246,2.9411,3.041,3.1621,3.3301,3.1855,3.1055,3.1465,2.8652,2.7539,2.8809,2.8457,2.8066,2.7787,2.8926,2.9766,3.0215,3.0664,3.1113,3.1543,3.1973,3.2402,3.2851,3.3262,3.3457,3.3437,3.3008,3.2674,3.2323,3.0382,3.0117,3.0742,0.0,0.0,0.0,0.0,0.0,0.0,0.0,0.0,0.0,0.0,0.0,0.0,0.0,0.0,0.0,0.0,0.0,0.0,0.0,0.0,0.0,0.0,0.0,0.0,0.0,0.0,0.0,0.0,0.0,0.0,0.0,0.0,0.0,1.8009,2.1206,2.2821,2.0997,2.3681,2.454,2.1501,2.1964,2.2338,2.2058,2.2565,2.2886,2.2873,2.2873,2.2941,2.2928,2.2928,2.2712,2.2418,2.2138,2.1991,2.1964,2.1748,2.1614,2.173,2.3354,2.4782,2.6167,2.7811,2.9412,3.0859,3.0391,3.0195,3.0195,3.0176,2.9922,2.9492,2.9082,2.8652,2.8223,0.0,0.0,0.0,2.2784,2.3499,2.3837,2.2843,2.3672,2.4414,2.4414,2.6367,2.834,2.9863,3.1367,3.2715,3.3789,3.1758,3.0605,3.1035,2.7949,2.6523,2.75,2.7129,2.7578,2.9078,2.9082,2.9629,3.0703,3.082,3.1269,3.1992,3.2109,3.2715,3.373,3.3848,3.4062,3.4316,3.3906,3.3867,3.3806,3.1113,3.0371,3.0742,0.0,0.0,0.0,0.0,0.0,0.0,0.0,0.0,0.0,0.0,0.0,0.0,0.0,0.0,0.0,0.0,0.0,0.0,0.0,0.0,0.0,0.0,0.0,0.0,0.0,0.0,0.0,0.0,0.0,0.0,0.0,1.8318,1.9052,1.9501,2.2404,2.396,2.2714,2.5008,2.5746,2.359,2.338,2.3367,2.3287,2.3434,2.3434,2.3207,2.3193,2.31,2.2941,2.2928,2.2712,2.2418,2.2338,2.2084,2.1735,2.1655,2.2135,2.3097,2.4734,2.6266,2.7811,2.9471,3.045,3.0859,3.0391,3.0195,3.0176,2.9863,2.9473,2.9082,2.8965,2.8652,2.8223,0.0,0.0,0.0,2.3243,2.4137,2.4718,2.4242,2.4966,2.5461,2.5295,2.7821,2.9994,3.0913,3.2174,3.3176,3.388,3.1287,2.9726,2.9805,2.7754,2.6602,2.6738,2.7207,2.8027,2.9277,2.9394,2.9922,3.0898,3.1074,3.1504,3.2229,3.2519,3.3184,3.4082,3.4258,3.4473,3.4687,3.4434,3.459,3.4824,3.2871,3.2461,3.2812,3.0781,3.0684,3.1484,3.0332,3.0723,3.1562,3.0137,0.0,0.0,0.0,0.0,0.0,0.0,0.0,0.0,0.0,0.0,0.0,0.0,0.0,0.0,0.0,0.0,0.0,0.0,0.0,0.0,0.0,0.0,0.0,0.0,1.9386,2.0201,2.1029,2.4188,2.5911,2.4762,2.6858,2.732,2.4601,2.4235,2.4142,2.4142,2.4022,2.3821,2.3527,2.3394,2.318,2.2941,2.2928,2.2659,2.2245,2.2231,2.1951,2.1427,2.2115,2.2826,2.3698,2.5984,2.7512,0.0,3.0157,3.0898,3.084,3.0195,2.9941,0.0,0.0,0.0,0.0,0.0,2.8496,2.8223,0.0,0.0,0.0,2.417,2.4825,2.5543,2.63,2.68,2.6914,2.6461,2.9283,3.135,3.1462,3.2255,3.2895,3.3127,3.0369,2.8476,2.8105,2.7676,2.7226,2.6699,2.8164,2.9004,2.9062,2.9902,3.0547,3.0957,3.1328,3.1758,3.2246,3.3047,3.3672,3.416,3.4629,3.4844,3.4844,3.4844,3.5078,3.543,3.4961,3.5215,3.5586,3.2832,3.3184,3.4844,3.2871,3.2385,3.2441,3.1797,0.0,0.0,0.0,0.0,0.0,0.0,0.0,0.0,0.0,0.0,0.0,0.0,0.0,0.0,0.0,0.0,0.0,0.0,0.0,0.0,0.0,0.0,0.0,0.0,2.0883,2.152,2.2565,2.5952,2.7809,2.629,2.8617,2.8828,2.4991,2.4609,2.4596,2.4636,2.4342,2.4035,2.3781,0.0,0.0,0.0,0.0,2.2552,2.1991,2.1951,2.1657,2.1109,2.2779,2.3698,2.3993,2.703,2.8486,2.8783,3.0274,3.0898,3.082,2.998,2.959,2.9492,2.9434,2.918,2.8809,2.8437,2.8301,2.8223,0.0,0.0,0.0,2.4871,2.5975,2.6644,2.6057,2.6576,2.678,2.5887,2.8344,2.9544,2.7788,2.9459,3.0455,2.9853,2.8009,2.6836,2.6758,2.6348,2.6797,2.8359,2.9082,2.9609,2.9941,3.0801,3.1309,3.1406,3.1484,3.1914,3.2676,3.3184,3.3828,3.4609,3.541,3.5762,3.5762,3.5762,3.582,3.5859,3.543,3.5137,3.4844,3.3926,3.3457,3.3203,3.2441,3.3281,3.4492,3.2656,3.2969,3.3809,3.1894,3.0098,0.0,0.0,0.0,0.0,0.0,0.0,0.0,0.0,0.0,0.0,0.0,0.0,0.0,0.0,0.0,0.0,0.0,0.0,0.0,2.2662,2.3271,2.4078,2.4788,2.5899,2.607,2.4481,2.7854,2.8828,2.4991,2.4422,2.4382,2.4549,2.4155,2.3834,2.3768,2.3487,2.318,2.2941,2.2632,2.2338,2.1991,2.1815,2.1456,2.1109,0.0,0.0,2.5619,2.7512,2.9157,3.045,3.0762,3.0898,3.0859,3.0293,2.9668,2.9004,2.8672,2.8496,2.8398,2.832,2.8301,2.8184,0.0,0.0,0.0,2.5405,2.6244,2.6845,2.6611,2.7163,2.7423,2.6915,2.8853,2.9805,2.8679,2.9015,2.9078,2.8442,2.6755,2.5918,2.6367,2.6777,2.7773,2.9492,3.0195,3.0742,3.1172,3.1621,3.1836,3.1836,3.2051,3.248,3.3125,3.3769,3.4414,3.5078,3.5723,3.6133,3.6328,3.6113,3.6152,3.6309,3.5879,3.5566,3.5293,3.4629,3.4258,3.4004,3.3359,3.3672,3.4238,3.3164,3.3086,3.3223,3.1934,3.0625,2.9473,0.0,0.0,0.0,0.0,0.0,0.0,0.0,0.0,0.0,0.0,0.0,0.0,0.0,0.0,2.6087,2.6136,0.0,2.6483,2.6119,2.6294,2.6377,2.5884,2.6775,2.6876,2.5084,2.6964,2.7398,2.4688,2.4155,2.4168,2.4609,2.4235,2.3928,2.3781,2.3634,2.3273,2.2659,2.2498,2.2205,2.1777,2.1695,2.1403,2.1109,2.3621,2.5192,2.6106,2.8545,3.0079,3.0898,3.0898,3.0898,3.084,3.0156,2.9492,2.8887,2.8457,2.8301,2.8301,2.8301,2.8301,2.8203,0.0,0.0,0.0,2.5402,2.5906,2.6385,2.6917,2.7434,2.774,2.7622,2.8975,2.9824,2.9355,2.8517,2.7767,2.7259,2.5986,2.5644,2.668,2.7793,2.9023,3.0391,3.1367,3.2012,3.2285,3.2363,3.2461,3.26,3.2793,3.3164,3.3691,3.4473,3.5078,3.5527,3.6035,3.6465,3.6758,3.6426,3.6426,3.6641,3.6191,3.5976,3.5801,3.5,3.498,3.5273,3.4394,3.3691,3.3203,3.3359,3.2578,3.1484,3.1309,3.084,3.0117,2.8984,2.873,0.0,0.0,0.0,0.0,0.0,0.0,0.0,0.0,2.6875,2.7246,2.7676,2.8437,2.9063,2.9157,2.9604,2.9735,2.9026,2.9059,2.8327,2.5981,2.7155,2.7566,2.5559,2.6082,2.5976,2.4305,2.3861,2.3928,2.4516,2.4168,2.3888,2.3781,2.3661,2.3233,2.2445,2.2418,2.2138,2.1628,2.1614,2.1403,2.1172,2.4394,2.5984,2.6106,2.9412,3.0898,3.0898,3.0898,3.0898,3.082,3.0019,2.9434,2.9004,2.8574,2.8359,2.8301,2.8301,2.8301,2.8223,0.0,0.0,0.0,0.0,0.0,2.5357,2.5893,2.635,2.6467,2.5936,2.6915,2.6917,2.4954,2.5465,2.563,2.4835,2.533,2.6348,2.7969,2.8574,2.9609,3.1289,3.2559,3.3047,3.2734,3.3086,3.3476,3.3867,3.3516,3.3769,3.457,3.5078,3.5547,3.5996,3.6797,3.7187,3.7226,3.7168,3.6973,3.6641,3.6191,3.5801,3.541,3.4902,3.498,3.5273,3.4394,3.332,3.2422,3.3164,3.2578,3.1641,3.2363,3.1758,3.0703,3.0137,2.9219,2.8262,2.7787,2.7031,2.6621,2.7337,2.7226,2.748,0.0,2.9726,2.9902,3.0371,3.1133,3.1797,3.1791,3.2409,3.1944,2.9094,3.0371,2.9784,2.4372,2.527,2.5582,2.3105,2.506,2.5889,2.4022,2.3554,2.3621,2.4209,2.3487,2.3303,2.3741,2.326,2.2792,2.2432,2.2418,2.2138,2.1628,2.1614,2.1403,2.1172,2.4394,2.5984,2.6106,2.9412,3.0898,3.0898,3.0898,3.0898,3.0859,3.0332,2.9883,2.9453,2.9023,2.8613,2.8301,2.8301,2.8301,2.8223,0.0,0.0,0.0,0.0,0.0,2.4104,2.4298,2.5029,2.544,2.5182,2.5547,2.5486,2.4556,2.4272,2.4131,2.4049,2.4394,2.5547,2.7773,2.8789,3.0176,3.2168,3.3476,3.4082,3.3906,3.4082,3.4258,3.4434,3.4258,3.4492,3.5117,3.5547,3.5976,3.6426,3.7031,3.7441,3.7637,3.7148,3.6973,3.6973,3.6289,3.5762,3.5312,3.4609,3.3828,3.3125,3.3008,3.2461,0.0,3.1914,3.1758,3.1582,3.1934,3.1523,3.0801,3.0332,2.9648,2.8789,2.7598,2.7578,2.7832,2.7748,2.8476,2.9629,3.1035,3.1543,3.1914,3.2598,3.3437,3.4043,3.4043,3.4531,3.4099,3.1696,3.1883,3.0668,2.5868,2.5555,2.4882,2.2431,2.3211,2.372,2.3346,2.2979,2.3113,2.3888,2.3447,2.3247,2.35,2.3273,2.2913,2.2432,2.2418,2.2218,2.1804,2.1695,2.1997,2.2786,2.498,2.647,2.7494,2.9844,3.0898,3.0898,3.0898,3.0898,3.0859,3.0391,3.0098,2.9863,2.918,2.8809,2.8633,2.8379,2.8301,2.8223,0.0,0.0,0.0,0.0,0.0,2.2756,2.2879,2.3721,2.4339,2.4339,2.4339,2.4339,2.4339,2.3584,2.3276,2.375,2.3906,2.4922,2.7168,2.8613,3.0254,3.2187,3.3594,3.4394,3.4531,3.4648,3.4766,3.4883,3.4883,3.5117,3.5566,3.5879,3.6309,3.6855,3.7168,3.7598,3.8047,3.7207,3.6953,3.7051,3.6191,3.5449,3.4746,3.375,3.2441,3.1191,3.1504,3.0976,3.0137,3.0293,3.0312,3.0351,3.084,3.0781,3.043,2.998,2.9473,2.8828,2.7812,2.8223,2.8887,2.8769,3.0078,3.168,3.2637,3.3203,3.3691,3.4316,3.4941,3.5312,3.5078,3.5371,3.4882,3.2414,3.2271,3.0978,2.6479,2.5662,2.4648,2.22,2.1724,2.1817,2.2325,2.2325,2.2645,2.346,2.3247,2.3153,2.3313,2.3247,2.2953,2.2432,2.2498,2.2325,2.1871,2.1802,2.2415,2.3918,2.532,2.6832,2.8486,3.0157,3.0898,3.0898,3.0898,3.0898,3.0859,3.0527,3.0312,3.0137,2.9512,2.9121,2.8887,2.8574,2.8398,2.8242,0.0,0.0,0.0,0.0,0.0,2.1427,2.1858,2.264,2.3125,2.3125,2.3125,2.3125,2.3125,2.3144,2.3276,2.375,2.416,2.498,2.6328,2.8008,2.9531,3.0898,3.2559,3.3652,3.4082,3.4492,3.4922,3.5371,3.5371,3.5586,3.5996,3.6016,3.6465,3.7285,3.7285,3.7773,3.8496,3.7637,3.7051,3.6621,3.5762,3.4629,3.334,3.207,3.1035,3.0234,3.0254,2.8652,2.6797,2.8437,2.8164,2.7441,2.9101,2.9685,2.9531,2.9082,2.8379,2.7943,2.8652,2.8887,2.9316,3.0996,3.207,3.3066,3.4336,3.498,3.5332,3.5351,3.5371,3.5137,3.4277,3.4453,3.3501,2.9748,3.1011,3.0496,2.4705,2.4936,2.4694,2.193,2.1132,2.0828,0.0,2.167,2.2245,2.2914,2.2619,2.2699,2.33,2.3046,2.2739,2.2432,2.2699,2.2499,2.1641,2.1844,2.2512,2.3651,2.5208,2.6832,2.8486,3.0157,3.0898,3.0898,3.0898,3.0898,3.0898,3.0879,3.0605,3.0195,3.0176,2.9648,2.8926,2.8906,2.8633,2.8301,0.0,0.0,0.0,0.0,0.0,0.0,2.1385,2.2168,2.2789,2.3062,2.3101,0.0,0.0,0.0,0.0,0.0,2.3652,2.4212,2.5859,2.7285,2.8672,2.9961,3.1934,3.3086,3.3223,3.3926,3.4355,3.4512,3.4785,3.5,3.5156,3.5469,3.5762,3.6055,3.6328,3.6777,3.7246,3.6406,3.5957,3.5723,3.4551,3.3476,3.248,3.1484,3.0019,2.8677,0.0,2.8665,2.7226,2.7246,2.7129,2.707,2.7363,2.7656,2.7851,2.7695,2.7851,2.8203,2.8769,2.998,3.1426,3.2851,3.4082,3.5195,3.6191,3.6328,3.6074,3.5508,3.4687,3.3828,3.2969,3.293,3.1966,2.8727,2.9293,2.8696,2.4408,2.4145,2.3722,2.1827,2.1614,2.1349,2.0869,0.0,0.0,2.2512,2.2472,2.2592,2.2993,2.2926,2.2819,2.2712,2.2806,2.2619,2.2138,2.2031,2.3178,2.5482,2.8055,2.953,3.0079,3.0645,3.0898,3.0898,3.0898,3.0898,3.0898,3.0898,3.0801,3.0625,3.0312,2.9844,2.9316,2.9023,2.8652,2.8301,0.0,0.0,0.0,0.0,0.0,0.0,0.0,0.0,0.0,0.0,0.0,0.0,0.0,0.0,0.0,0.0,0.0,2.3627,2.4961,2.6113,2.7297,2.8379,3.0059,3.1035,3.1191,3.1875,3.2305,3.2461,3.2435,3.2801,3.3574,3.3399,3.3688,3.4473,3.4902,3.5332,3.5703,3.498,3.4609,3.4355,3.3047,3.2012,3.1113,2.9941,2.8652,0.0,2.8293,2.7903,2.6996,2.6873,2.6705,2.6504,2.625,2.6445,2.6875,2.7344,2.8086,2.9043,3.0391,3.1894,3.3457,3.5059,3.5976,3.6621,3.7168,3.6738,3.5879,3.4707,3.3418,3.2168,3.0996,3.0355,2.929,2.7104,2.6874,2.6218,2.4072,2.3407,2.2859,2.2177,2.1911,2.1603,2.1105,2.1162,0.0,2.2071,2.2298,2.2498,2.2699,2.2806,2.2928,2.2928,2.2928,2.2672,2.2271,2.2084,2.3422,2.6315,2.9405,3.0898,3.0898,3.0898,3.0898,3.0898,3.0898,3.0898,3.0898,3.0898,3.0898,3.0859,3.0566,3.0176,2.9766,2.9473,2.9004,2.8496,0.0,0.0,0.0,0.0,0.0,0.0,0.0,0.0,0.0,0.0,0.0,0.0,0.0,0.0,0.0,0.0,0.0,0.0,2.373,2.4597,2.541,2.625,2.718,2.7793,2.8184,2.8633,2.9062,2.9528,2.8613,2.9271,3.1288,2.998,3.0452,3.2516,3.2883,3.3374,3.3745,3.3398,3.2988,3.2519,3.1269,3.0234,2.9297,2.7637,2.7043,2.7069,2.7055,2.6539,2.6062,2.722,2.6784,2.5752,2.5732,2.6094,2.6738,2.8008,2.9023,3.0391,3.3359,3.4531,3.5391,3.7461,3.7656,3.7305,3.7246,3.6191,3.4746,3.3008,3.1601,3.0156,2.8476,2.6986,2.5792,2.4999,2.4065,2.3598,2.3782,2.2846,2.2338,2.2846,2.2258,2.1735,2.1695,2.1695,0.0,2.1681,0.0,2.2432,2.2445,2.2726,2.2886,2.2928,2.2928,2.2592,2.2017,2.2188,2.3577,2.6183,2.9372,3.0918,3.0898,3.0898,3.0898,3.0898,3.0898,3.0898,3.0898,3.0898,3.0898,3.0898,3.0898,3.0605,3.0195,3.0195,2.9648,2.8867,0.0,0.0,0.0,0.0,0.0,0.0,0.0,0.0,0.0,0.0,0.0,0.0,0.0,0.0,0.0,0.0,0.0,0.0,2.3257,2.4102,2.4687,2.4902,2.6074,2.6758,2.6875,2.7598,2.8047,2.8198,2.823,2.8559,2.9121,2.7865,2.7566,2.8127,2.8538,2.8948,2.9458,3.0238,3.0488,3.0312,2.9355,2.8633,2.8119,2.7305,2.7402,2.8007,2.8903,2.8924,2.8355,2.7767,2.7191,2.6641,2.6328,2.6953,2.8066,2.9336,3.0781,3.25,3.4883,3.6523,3.7793,3.8652,3.832,3.7519,3.6562,3.4609,3.2578,3.1152,2.9082,2.7305,2.6523,2.6563,2.6199,2.458,2.5338,2.5677,2.4317,2.4209,2.4102,2.3594,2.3527,2.326,2.266,2.2739,2.2779,0.0,2.2458,2.2512,2.2739,2.3033,2.31,2.2941,2.2928,2.2686,2.2311,2.46,2.6654,2.8314,3.0357,3.1191,3.0898,3.0898,3.0898,3.0898,3.0898,3.0898,3.0898,3.0898,3.0898,3.0898,3.0898,3.0605,3.0195,3.0195,2.9648,2.8906,0.0,0.0,0.0,0.0,0.0,0.0,0.0,0.0,0.0,0.0,0.0,0.0,0.0,0.0,0.0,0.0,0.0,0.0,0.0,2.3549,2.3803,2.3803,2.457,2.4961,2.4961,2.543,2.5781,2.5957,2.5645,2.5932,2.6875,2.5558,2.5393,2.6187,2.677,2.7166,2.7519,2.8381,2.8785,0.0,0.0,2.7305,2.7153,2.7252,2.7529,2.8148,2.9892,3.0056,2.9279,2.8402,2.7609,2.7129,2.7832,2.8809,3.0039,3.168,3.3144,3.4687,3.6836,3.8262,3.9219,3.9453,3.8437,3.6934,3.5254,3.3027,3.0781,2.8906,2.6934,2.5391,2.4961,2.4563,2.4102,2.3324,2.4032,2.4483,2.4083,2.4302,2.4516,2.4529,2.4569,2.4342,2.3701,2.3794,2.3781,0.0,2.318,2.3033,2.306,2.3233,2.3247,2.3073,2.2939,2.2712,2.2418,2.5538,2.7495,2.8226,3.0672,3.1582,3.1172,3.1172,3.1074,3.0898,0.0,3.0898,3.0898,3.0898,3.0898,3.0898,3.0898,3.0723,3.0508,3.0508,2.9941,2.9199,0.0,0.0,0.0,0.0,0.0,0.0,0.0,0.0,0.0,0.0,2.2539,2.2656,0.0,0.0,0.0,0.0,0.0,0.0,0.0,0.0,2.3101,2.3101,2.3101,2.3101,2.3101,2.3101,2.3276,2.3711,2.2545,2.2963,2.4805,2.3444,2.3666,2.5218,2.606,2.6447,2.6575,2.7175,2.7402,2.7344,2.6602,2.6309,2.6399,0.0,2.7673,2.819,3.0574,3.0551,2.9301,2.9272,2.8421,2.7793,2.9746,3.1133,3.2441,3.4453,3.5664,3.6797,3.8828,3.9726,4.0019,3.9844,3.8184,3.5996,3.3769,3.1445,2.9082,2.6621,2.5078,2.4043,2.3613,2.2328,2.1524,2.23,2.2063,2.2328,2.3954,2.4031,2.4369,2.5491,2.5411,2.513,2.4836,2.477,2.4636,2.4342,2.4088,2.3781,2.3407,2.342,2.342,2.338,2.3086,2.2929,2.2862,2.5547,2.7079,2.7537,3.0532,3.183,3.1601,3.1601,3.1406,3.1055,3.1055,0.0,3.0976,3.0976,3.0937,3.0898,3.0898,3.0898,3.0898,3.0898,3.0371,2.9648,0.0,0.0,0.0,0.0,0.0,0.0,0.0,0.0,0.0,0.0,2.2734,2.2539,0.0,0.0,0.0,0.0,0.0,0.0,0.0,0.0,0.0,2.3101,2.3101,2.3101,2.3101,2.3101,2.314,2.3198,2.2978,2.3055,2.3432,2.2168,2.1962,2.2648,2.3154,2.3607,2.4036,2.5438,2.6074,2.6005,2.5849,2.581,2.5937,2.7167,0.0,0.0,3.1865,3.1093,2.9149,3.0855,3.0641,2.9807,3.0957,3.2871,3.5,3.6426,3.7461,3.8457,3.9902,4.0625,4.0684,3.959,3.7715,3.5469,3.2969,2.9883,2.7031,2.5156,2.373,2.2715,2.2285,2.2819,2.3447,2.3894,2.3911,2.4362,2.593,2.5395,2.5197,2.6132,2.6186,2.6052,2.5758,2.5504,2.5237,0.0,2.4877,2.4516,2.3741,2.3915,2.3941,2.3701,2.3407,2.3887,2.5369,2.5636,2.7099,2.9644,3.0293,3.1108,3.2051,3.2051,3.2012,3.1953,3.1953,0.0,3.1406,3.1406,3.1211,3.0898,3.0898,3.0898,3.0898,3.0898,3.0547,3.0098,0.0,0.0,0.0,0.0,0.0,0.0,0.0,2.1621,2.2321,2.3588,2.3978,2.3926,2.3242,2.2969,2.2769,0.0,0.0,0.0,0.0,0.0,0.0,0.0,2.3101,2.3101,2.3101,2.3101,2.3101,2.3101,0.0,2.3101,2.3101,2.2492,2.2497,2.2975,2.3372,2.3787,2.4297,2.5054,2.5391,2.5391,2.5391,2.5391,2.5602,0.0,0.0,0.0,3.201,3.0889,2.9329,3.0745,3.0632,3.0234,3.2226,3.4336,3.6348,3.7851,3.8574,3.918,4.0508,4.1016,4.0859,3.9531,3.7246,3.459,3.1777,2.8652,2.581,2.4056,2.291,2.2187,2.2207,2.2539,2.2885,2.3113,2.3374,2.3917,2.5011,2.4918,2.519,2.6264,2.6386,2.6386,2.6413,2.6146,2.5785,2.5344,2.5304,2.4983,2.4262,2.4209,2.4075,2.3781,2.3634,2.3895,2.4608,2.6254,2.7799,2.9215,3.1029,3.2123,3.25,3.25,3.2383,3.2209,3.1934,0.0,3.1504,3.1289,3.1074,3.0898,3.0898,3.0898,3.0898,3.0898,3.0586,3.0195,0.0,0.0,0.0,0.0,0.0,0.0,2.168,2.2324,2.3144,2.4512,2.5265,2.5312,2.418,2.3457,2.291,0.0,0.0,0.0,0.0,0.0,0.0,0.0,0.0,0.0,0.0,0.0,0.0,2.3237,2.314,0.0,0.0,0.0,0.0,0.0,2.4375,2.4805,2.5215,2.5215,2.5215,0.0,0.0,2.5215,0.0,0.0,0.0,0.0,0.0,3.0295,2.9148,2.9705,2.9548,2.9665,3.2168,3.4551,3.668,3.8105,3.8848,3.9473,4.0703,4.1094,4.084,3.9414,3.6797,3.3769,3.0762,2.7754,2.5031,2.3198,2.2344,2.1934,2.207,2.1914,2.1863,2.2317,2.2664,2.3134,2.4104,2.4538,2.5186,2.6195,2.652,2.6707,2.6814,2.6613,0.0,2.5651,2.5491,2.5197,2.4663,2.4422,2.4195,2.3968,2.3901,2.3754,2.3514,2.6497,2.8091,2.8345,3.1359,3.2845,3.293,3.293,3.2754,3.2422,3.207,0.0,0.0,3.1309,3.1055,3.0898,3.0898,3.0898,3.0898,3.0898,3.0664,3.0351,0.0,0.0,0.0,0.0,0.0,0.0,2.1621,2.2621,2.3711,2.5343,2.5635,2.5527,2.5,2.493,2.4199,0.0,0.0,0.0,0.0,0.0,0.0,0.0,0.0,0.0,0.0,0.0,0.0,2.373,2.3296,0.0,0.0,0.0,0.0,0.0,0.0,2.5254,2.5635,2.5635,0.0,0.0,0.0,0.0,0.0,0.0,0.0,0.0,0.0,2.9526,2.8032,2.7904,2.7851,2.808,2.9062,3.2207,3.5625,3.6152,3.7676,3.9394,4.0332,4.0879,4.0762,3.9062,3.6367,3.334,3.0312,2.7337,2.4578,2.2441,2.1934,2.166,2.0918,2.1035,2.1773,2.3376,2.3062,2.3323,2.5333,2.5613,2.5798,2.6044,2.6934,2.7375,2.6867,2.68,2.6547,2.5959,2.5424,0.0,2.4649,2.4609,2.4583,2.4556,2.4302,2.4155,2.4128,2.556,2.7003,2.8575,3.0218,3.1881,3.3359,3.3359,3.334,3.3301,3.3262,0.0,0.0,3.207,3.1601,3.0898,3.0898,3.0898,3.0898,3.0898,3.0859,3.082,0.0,0.0,0.0,0.0,0.0,0.0,2.1621,2.266,2.3912,2.5859,2.6797,2.6914,2.5957,2.6094,2.5234,2.2734,0.0,0.0,0.0,0.0,0.0,0.0,0.0,0.0,0.0,0.0,2.3315,2.3789,2.3613,0.0,0.0,0.0,0.0,0.0,0.0,2.5312,2.5674,2.5449,0.0,0.0,0.0,0.0,0.0,0.0,0.0,0.0,0.0,0.0,2.6841,2.6433,2.6209,2.6113,2.6191,2.8105,3.0937,3.3965,3.582,3.7324,3.9219,4.043,4.0762,3.9004,3.5918,3.2656,3.0194,2.6836,2.3984,2.2871,2.2246,2.1777,2.1466,2.1074,2.097,2.1446,2.1036,2.131,2.3074,2.3466,2.4145,2.558,2.6528,2.7015,2.6841,0.0,2.6587,2.6077,2.5571,0.0,2.4917,2.473,2.4636,2.4636,2.4529,2.4302,2.3941,2.6514,2.7996,2.8378,3.1055,3.2765,3.3418,3.3418,3.3418,3.3398,3.2891,0.0,0.0,3.1601,3.1191,3.0898,3.0898,3.0898,3.0898,3.0898,3.0898,3.0898,0.0,0.0,0.0,0.0,0.0,1.9824,2.1445,2.2519,2.3789,2.5566,2.6934,2.7383,2.6484,2.6426,2.5586,2.3457,2.3184,0.0,0.0,0.0,0.0,0.0,0.0,0.0,0.0,0.0,2.3374,2.3984,2.3848,2.4082,0.0,0.0,2.4766,2.5125,0.0,0.0,0.0,0.0,0.0,0.0,0.0,0.0,0.0,0.0,0.0,0.0,0.0,0.0,0.0,0.0,0.0,2.4629,2.4336,2.5078,2.6875,3.0976,3.334,3.5098,3.7285,3.9023,3.9824,3.8223,3.5098,3.1855,2.9687,2.6387,2.3633,2.3023,2.248,2.1992,2.1738,2.1191,2.058,1.9983,1.9829,2.021,2.1456,2.1862,2.2739,2.4742,2.5426,2.5866,2.6251,2.6613,2.6613,2.6119,2.5812,0.0,2.5224,2.493,2.473,2.4562,2.4636,2.4615,2.466,2.7578,2.8991,2.9121,3.2038,3.3418,3.3418,3.3418,3.3418,3.3379,3.2793,0.0,0.0,3.1523,3.1113,3.0898,3.0898,3.0898,3.0898,3.0898,3.0898,3.0898,0.0,0.0,0.0,0.0,0.0,1.9727,2.0995,2.2282,2.3413,2.4316,2.5586,2.6406,2.6387,2.5605,2.5125,2.5086,2.3867,0.0,0.0,0.0,0.0,0.0,0.0,0.0,0.0,0.0,2.351,2.4414,2.4004,2.4219,2.5106,2.5106,2.5106,2.5125,0.0,0.0,0.0,0.0,0.0,0.0,0.0,0.0,2.76,0.0,0.0,0.0,0.0,0.0,0.0,0.0,0.0,0.0,0.0,2.3809,2.4336,2.6973,3.0156,3.3105,3.4394,3.6309,3.7656,3.6367,3.3769,3.0957,2.8789,2.5957,2.3555,2.2695,2.2519,2.2246,2.1366,2.119,2.0849,1.9798,2.0201,2.0897,2.1445,2.168,2.226,2.3491,2.347,2.3808,2.4983,2.6146,2.6694,2.6413,2.6119,0.0,2.5518,2.5237,2.4943,2.4649,2.4636,2.5267,2.6769,2.8243,2.9733,3.1187,3.2701,3.3418,3.3418,3.3418,3.3418,0.0,0.0,0.0,0.0,3.2209,3.166,3.0898,3.0898,3.0898,3.0898,3.0898,3.0898,3.0898,0.0,0.0,0.0,0.0,0.0,0.0,2.0625,2.1387,2.2204,2.3354,2.4414,2.5273,2.5879,2.5156,2.4746,2.5086,2.3887,0.0,0.0,0.0,0.0,0.0,0.0,0.0,0.0,2.3437,2.4004,2.4863,2.5039,2.541,2.5977,2.6269,2.625,2.5977,2.6113,2.6191,0.0,0.0,0.0,0.0,0.0,2.5788,2.5872,0.0,0.0,0.0,0.0,0.0,0.0,0.0,0.0,0.0,0.0,0.0,0.0,2.4336,2.6816,2.9629,3.1191,3.2773,3.375,3.2754,3.0684,2.8555,2.7285,2.5098,2.3218,2.2964,2.2672,2.2344,2.1777,2.1445,2.1096,2.0807,2.0959,2.1243,2.1578,2.2457,2.3821,2.6009,2.741,2.7756,0.0,0.0,2.6707,2.6413,0.0,0.0,2.5545,2.5424,2.5144,2.4649,2.4636,2.5243,2.6513,2.7022,2.8448,3.0905,3.1423,3.2237,3.3418,3.3418,3.3418,0.0,0.0,0.0,0.0,3.1543,3.1133,3.0898,3.0898,3.0898,3.0898,3.0898,3.0898,3.0898,0.0,0.0,0.0,0.0,0.0,0.0,2.0234,2.084,2.1541,2.2539,2.3262,2.416,2.5352,2.4551,2.4238,2.5047,2.3887,0.0,0.0,0.0,0.0,0.0,0.0,0.0,2.3101,2.3574,2.4297,2.5312,2.5918,2.6445,2.6875,2.7305,2.7109,2.6387,2.6562,2.6445,0.0,0.0,0.0,0.0,2.5615,2.5371,2.4844,0.0,0.0,0.0,0.0,0.0,0.0,0.0,0.0,0.0,0.0,0.0,0.0,0.0,2.4473,2.6367,2.8262,2.9824,3.0781,3.0078,2.8535,2.6953,2.6094,2.4473,2.3042,2.2886,2.2812,2.2519,2.1777,2.1562,2.1252,2.0534,2.0627,2.1087,2.179,2.2156,2.3142,2.5294,2.7467,0.0,0.0,2.6774,2.6827,2.6413,0.0,0.0,2.5545,2.5304,2.501,2.4649,2.5162,2.5999,2.7207,2.7261,2.8725,3.1771,3.1093,3.1707,3.3418,3.3418,3.3418,0.0,0.0,0.0,0.0,3.1406,3.1035,3.0898,3.0898,3.0898,3.0898,3.0898,3.0898,3.0898,0.0,0.0,0.0,0.0,0.0,0.0,0.0,2.0664,2.1348,2.1816,2.2227,2.3105,2.4746,2.3828,2.3594,2.4871,2.3809,0.0,0.0,0.0,0.0,0.0,0.0,0.0,2.3101,2.3594,2.4453,2.5693,2.6621,2.7285,2.7767,2.8184,2.7695,2.6504,2.6894,2.6562,2.5693,2.5693,2.5488,2.5156,2.5527,2.5148,0.0,0.0,0.0,0.0,0.0,0.0,0.0,0.0,0.0,0.0,0.0,0.0,0.0,0.0,0.0,0.0,0.0,2.7305,2.8418,2.8027,2.7031,2.5937,2.5117,2.4004,0.0,2.2598,2.2808,2.2711,2.1463,2.1559,2.125,1.9604,1.9846,2.0681,2.2015,2.1461,2.1467,2.2818,2.5079,0.0,2.5424,2.6465,2.6974,0.0,0.0,0.0,2.5504,2.4943,2.4609,2.4716,2.6171,2.7393,2.8405,2.8574,3.0184,3.3228,3.1561,3.1707,3.3418,3.3418,3.3398,0.0,0.0,0.0,0.0,3.166,3.125,3.0898,3.0898,3.0898,3.0898,3.0898,3.0898,3.0898,0.0,0.0,0.0,0.0,0.0,0.0,0.0,0.0,0.0,0.0,2.1973,2.2422,2.3477,2.2984,2.2867,0.0,0.0,0.0,0.0,0.0,0.0,0.0,0.0,0.0,2.3101,2.3842,2.4746,2.5693,2.6934,2.7734,2.8164,2.8906,2.8594,2.7415,2.7461,2.6855,2.5693,2.5693,2.5635,2.5566,2.5312,2.5098,0.0,0.0,0.0,0.0,2.3526,2.3413,0.0,0.0,0.0,0.0,0.0,0.0,0.0,0.0,2.3101,2.3198,2.3725,0.0,2.4426,2.4329,2.4075,2.3803,0.0,2.3315,2.2984,2.2598,2.2808,2.2808,2.1914,2.132,2.1349,2.2514,2.2277,2.2079,2.2384,2.5344,2.772,2.8546,3.0517,3.0732,2.8075,2.7102,2.644,0.0,0.0,2.5491,2.5197,2.4836,2.4993,2.5981,2.7438,2.7779,2.6924,2.8028,2.9573,3.1433,3.0964,3.1707,3.3418,3.3418,3.3242,0.0,0.0,0.0,3.1641,3.1211,3.0976,3.0898,3.0898,3.0898,3.0898,3.0898,3.0898,3.0898,0.0,0.0,0.0,0.0,0.0,0.0,0.0,0.0,0.0,0.0,2.1894,2.2207,2.3003,2.2711,2.2633,0.0,0.0,0.0,0.0,0.0,0.0,0.0,0.0,2.3101,2.3101,2.3939,2.5039,2.6328,2.7617,2.8555,2.918,2.9648,2.9082,2.7689,2.7051,2.6504,2.6016,2.5771,2.5577,2.543,2.5391,0.0,0.0,0.0,0.0,0.0,2.3398,2.343,0.0,2.3256,2.3101,2.3101,0.0,0.0,0.0,0.0,2.3101,2.3101,2.3101,2.3101,2.3101,2.3101,2.3101,2.3101,2.3101,2.3101,2.2984,2.2598,2.2808,2.2847,2.2031,2.1702,2.1887,2.3038,2.3171,2.3462,2.4299,2.6896,2.9123,3.0457,3.0434,2.9979,0.0,0.0,0.0,0.0,0.0,2.5184,2.489,2.4476,2.4925,2.6364,2.7713,2.841,2.8388,2.9209,3.0402,3.1963,3.1176,3.1707,3.3418,3.3418,3.3184,0.0,0.0,0.0,3.1484,3.1055,3.0898,3.0898,3.0898,3.0898,3.0898,3.0898,3.0898,3.0898,0.0,0.0,0.0,0.0,0.0,0.0,0.0,0.0,0.0,0.0,0.0,0.0,0.0,0.0,0.0,0.0,0.0,0.0,0.0,0.0,0.0,0.0,2.3062,2.3159,2.3296,2.3984,2.5176,2.6914,2.8203,2.9258,3.0098,3.0312,2.9453,2.7767,2.6484,2.6074,2.6269,2.5849,2.5527,2.5195,2.543,0.0,0.0,0.0,0.0,0.0,0.0,0.0,0.0,2.343,2.3101,2.3101,2.3101,0.0,0.0,0.0,0.0,0.0,2.3179,2.3296,2.3335,2.314,2.3101,2.3101,2.3101,2.3101,2.2984,2.2598,2.2808,2.2847,2.2129,2.2295,2.2597,2.2847,2.3706,2.5149,2.7422,2.7836,2.8682,3.08,2.8546,0.0,2.9394,0.0,0.0,0.0,0.0,2.4836,2.4583,2.4022,2.4665,2.6692,2.7439,2.8852,3.1084,3.1139,3.1835,3.2956,3.1771,3.1963,3.3418,3.3359,3.3105,3.2676,0.0,0.0,3.1387,3.1035,3.0898,3.0898,3.0898,3.0898,3.0898,3.0898,3.0898,3.0898,0.0,0.0,0.0,0.0,0.0,0.0,0.0,0.0,0.0,0.0,0.0,0.0,0.0,0.0,0.0,0.0,0.0,0.0,0.0,0.0,0.0,2.2617,2.2906,2.3432,2.4153,2.4004,2.4746,2.6484,2.7754,2.8828,2.9744,3.0801,3.0195,2.8164,2.7226,2.6445,2.5791,2.5713,2.5654,2.5518,2.4902,0.0,0.0,0.0,0.0,0.0,0.0,0.0,0.0,2.3188,2.3101,2.3101,2.3101,0.0,0.0,0.0,0.0,0.0,2.3594,2.4219,2.4512,2.3374,2.3101,2.3101,2.3101,2.3101,2.2984,2.2598,2.2808,2.2945,2.25,2.2478,2.3066,2.447,2.5872,2.8086,3.1869,0.0,3.0561,3.2844,0.0,2.8688,0.0,0.0,0.0,0.0,0.0,2.4315,2.4275,2.3714,2.4886,2.8183,2.6708,2.7998,3.2435,3.2845,3.2365,3.124,3.2428,3.3165,3.3418,3.3047,3.2656,0.0,0.0,3.1367,3.0976,3.0918,3.0898,3.0898,3.0898,3.0898,3.0898,3.0898,3.0898,3.0898,0.0,0.0,0.0,0.0,0.0,0.0,0.0,0.0,0.0,0.0,0.0,0.0,0.0,0.0,0.0,0.0,0.0,0.0,0.0,0.0,2.248,2.3164,2.3164,2.3555,2.4394,2.4687,2.5801,2.7754,2.9062,3.0019,3.0605,3.0039,2.9121,2.791,2.6816,2.6064,2.5693,2.5693,2.5557,2.5332,0.0,0.0,0.0,0.0,0.0,0.0,0.0,0.0,0.0,0.0,2.3101,2.3101,2.3101,0.0,0.0,0.0,0.0,0.0,2.3379,2.373,2.3984,2.3867,2.4153,2.4309,2.3652,2.3672,2.3725,2.3574,2.3516,2.3496,2.3535,2.3741,2.4802,2.7448,2.9201,3.107,3.3472,3.2496,3.2361,0.0,0.0,0.0,0.0,0.0,0.0,0.0,0.0,0.0,2.3981,2.3567,2.4868,2.8295,2.7208,2.8663,3.3062,3.2871,3.2459,3.1898,3.2922,3.3301,3.3066,3.2871,3.2441,3.1816,0.0,3.1269,3.0898,3.0898,3.0898,3.0898,3.0898,3.0898,3.0898,3.0898,3.0898,3.0898,0.0,0.0,0.0,0.0,0.0,0.0,0.0,0.0,0.0,0.0,0.0,0.0,0.0,0.0,0.0,0.0,0.0,0.0,0.0,2.168,2.2227,2.3301,2.3266,2.3834,2.5156,2.5644,2.6992,2.9219,3.0332,3.1152,3.1621,2.9551,2.8262,2.7669,2.6309,2.5635,2.5586,2.5586,2.5449,2.5215,0.0,0.0,0.0,0.0,0.0,0.0,0.0,0.0,0.0,0.0,0.0,0.0,0.0,0.0,0.0,2.3101,2.3101,2.3101,2.3101,2.3237,2.351,2.3958,2.4582,2.4972,2.4629,2.4629,2.4805,2.5117,2.4844,2.459,2.4707,2.5332,2.6855,3.0,3.2051,3.3535,3.4414,3.3655,3.367,3.5406,3.154,0.0,0.0,0.0,0.0,0.0,0.0,0.0,2.3674,2.338,2.4724,2.8114,2.7442,2.8965,3.3062,3.2189,3.2092,3.2793,3.3125,3.3066,3.2656,3.2656,3.2226,3.1504,3.1406,3.1191,3.0898,3.0898,3.0898,3.0898,3.0898,3.0898,3.0898,3.0898,3.0898,3.0898,0.0,0.0,0.0,0.0,0.0,0.0,0.0,0.0,0.0,0.0,0.0,0.0,0.0,0.0,0.0,0.0,0.0,0.0,0.0,2.1055,2.1504,2.1992,2.2797,2.4558,2.7415,2.6719,2.7578,3.0098,3.0625,3.1309,3.209,3.037,2.8883,2.7669,2.6309,2.5508,2.5117,2.5117,2.5332,2.5577,2.4805,0.0,0.0,0.0,0.0,0.0,0.0,0.0,0.0,0.0,0.0,0.0,0.0,0.0,2.3101,2.3101,2.3101,2.3101,2.3101,2.3666,2.4141,2.3374,2.3237,2.3881,2.625,2.6191,2.5977,2.7187,2.709,2.6543,2.5732,2.6973,2.8789,3.1055,3.3184,3.4863,3.5762,0.0,3.4144,3.4306,0.0,0.0,0.0,0.0,0.0,0.0,0.0,0.0,2.3367,2.306,2.4549,2.8098,2.6557,2.78,3.2266,3.0972,3.1139,3.2793,3.2832,3.2617,3.2207,3.2207,3.1953,3.1504,3.1113,3.0918,3.0898,3.0898,3.0898,3.0898,3.0898,3.0898,3.0898,3.0898,3.0898,3.0898,0.0,0.0,0.0,0.0,0.0,0.0,0.0,0.0,0.0,0.0,0.0,0.0,0.0,0.0,0.0,0.0,0.0,0.0,0.0,2.0723,2.125,2.2227,2.2578,2.3926,2.6406,2.6934,2.832,3.0625,3.0801,3.1191,3.1699,2.916,2.7734,2.7187,2.5625,2.498,2.5106,2.4785,2.4922,2.5234,2.4375,2.4023,0.0,0.0,0.0,0.0,0.0,0.0,0.0,0.0,2.3101,2.3101,2.3101,2.3101,2.3101,2.3101,2.2906,2.2711,2.2711,2.3574,2.4277,2.3691,2.4114,2.5109,2.666,2.7168,2.7617,2.8687,2.8926,2.873,2.7871,2.8672,3.0176,3.2344,3.4062,3.5527,3.666,3.6419,3.5925,0.0,0.0,0.0,0.0,0.0,0.0,0.0,0.0,0.0,2.3046,2.3744,2.5195,2.7439,2.7591,2.9092,3.2168,3.1175,3.1118,3.2012,3.2285,3.2187,3.1758,3.1758,3.1523,3.1113,3.0957,3.0898,3.0898,3.0898,3.0898,3.0898,3.0898,3.0898,3.0898,3.0898,3.0898,3.0898,0.0,0.0,0.0,0.0,0.0,0.0,0.0,0.0,0.0,0.0,0.0,0.0,0.0,0.0,0.0,0.0,0.0,0.0,2.0605,2.0605,2.1075,2.207,2.2246,2.3262,2.5226,2.6465,2.8184,3.0469,3.0762,3.0898,3.084,2.8379,2.7226,2.7148,2.5391,2.4941,2.543,2.4727,2.4668,2.5047,2.4141,2.3789,0.0,0.0,0.0,0.0,0.0,0.0,0.0,0.0,2.2906,2.2906,2.2906,2.2906,2.2906,2.2906,2.2734,2.2461,2.2187,2.2852,2.3613,2.3594,2.4453,2.584,2.7793,2.8476,2.9141,3.0664,3.0566,3.0059,2.9629,2.9785,3.0664,0.0,3.4355,3.5644,3.6367,3.6719,0.0,0.0,0.0,0.0,0.0,0.0,0.0,0.0,0.0,0.0,0.0,2.3966,2.5485,2.7044,2.8402,3.0026,3.1953,3.1387,3.1172,3.1328,3.1621,3.1601,3.1328,3.1445,3.1289,3.0898,3.0898,3.0898,3.0898,3.0898,3.0898,3.0898,3.0898,3.0898,3.0898,3.0898,3.0898,3.0898,0.0,0.0,0.0,0.0,0.0,0.0,0.0,0.0,1.9453,1.9863,2.0293,0.0,0.0,0.0,0.0,0.0,0.0,0.0,2.0605,2.0605,2.0762,2.1171,2.1641,2.2676,2.4355,2.5206,2.6973,2.9551,3.043,3.041,2.9567,2.8295,2.7708,2.7611,2.5889,2.5595,2.6289,2.4961,2.4668,2.5047,2.4141,2.3789,2.375,0.0,0.0,0.0,0.0,0.0,0.0,0.0,2.2519,2.25,2.2519,2.2519,2.2519,2.2519,2.2519,2.2324,2.1424,2.1562,2.2109,2.2906,2.3764,2.5586,2.9902,3.0215,3.0487,3.3457,3.2012,3.0371,3.082,3.0195,3.0213,3.1894,3.3984,3.5215,3.4766,0.0,0.0,0.0,0.0,0.0,0.0,0.0,0.0,0.0,0.0,0.0,0.0,2.3573,2.5239,2.709,2.8647,3.0156,3.1444,3.1504,3.1309,3.0898,3.0898,3.0898,3.0898,3.1328,3.1289,3.0898,3.0898,3.0898,3.0898,3.0898,3.0898,3.0898,3.0898,3.0898,3.0898,3.0898,3.0898,3.0898,0.0,0.0,0.0,0.0,0.0,0.0,0.0,0.0,1.9883,2.0312,2.0527,0.0,0.0,0.0,0.0,0.0,0.0,0.0,2.0605,2.0605,2.0664,2.0762,2.1191,2.1619,2.2126,2.3276,2.5332,2.8276,2.8496,2.8184,2.7376,2.7609,2.7053,2.5918,2.6296,2.5939,2.4961,2.4258,2.4394,2.5008,2.3809,2.3647,2.416,0.0,0.0,0.0,0.0,0.0,0.0,0.0,0.0,0.0,2.2422,2.2519,2.2519,2.2519,2.2519,2.2324,2.1424,2.2379,2.3652,2.3613,2.5605,2.8164,3.0391,3.0684,3.1269,3.3965,3.3184,3.207,3.2207,3.1777,3.166,3.248,3.3398,3.418,0.0,0.0,0.0,0.0,0.0,0.0,0.0,0.0,0.0,0.0,0.0,0.0,0.0,2.6694,2.7693,2.7982,2.9647,3.0699,3.1074,3.1074,3.1016,3.0898,3.0898,3.0898,3.0898,3.1016,3.1016,3.0898,3.0898,3.0898,3.0898,3.0898,3.0898,3.0898,3.0898,3.0898,3.0898,3.0898,3.0898,3.0898,0.0,0.0,0.0,0.0,0.0,0.0,0.0,0.0,2.0078,2.0546,2.0605,2.0605,0.0,0.0,0.0,0.0,0.0,0.0,2.0605,2.0605,2.0605,2.0605,2.082,2.1133,2.1484,2.2734,2.4219,2.5859,2.6436,2.6417,2.5908,2.6956,2.6867,2.5908,2.7037,2.6758,2.541,2.4824,2.457,2.4492,2.3711,2.3594,2.3867,0.0,0.0,0.0,0.0,0.0,0.0,0.0,0.0,0.0,2.2129,2.2266,2.2305,2.2461,2.2402,2.2148,2.1641,2.2676,2.4062,2.4668,2.7012,2.9609,3.1269,3.2305,3.332,3.4687,3.3945,3.3047,3.3047,3.2422,0.0,3.2695,3.3281,3.375,0.0,0.0,0.0,0.0,0.0,0.0,0.0,0.0,0.0,0.0,0.0,0.0,0.0,2.7783,2.8601,2.8426,3.002,3.0898,3.0898,3.0898,3.0898,3.0898,3.0898,3.0898,3.0898,3.0898,3.0898,3.0898,3.0898,3.0898,3.0898,3.0898,3.0898,3.0898,3.0898,3.0898,3.0898,3.0898,3.0898,3.0898,0.0,0.0,1.8656,1.8656,0.0,0.0,0.0,0.0,2.0117,2.0546,2.0605,2.0605,0.0,0.0,0.0,0.0,0.0,0.0,0.0,2.0605,2.0605,2.0605,2.0644,2.1055,2.1875,2.3027,2.3437,2.3042,2.4336,2.4988,2.4969,2.6418,2.6976,2.6875,2.7891,2.7741,2.6777,2.5869,2.4883,2.3789,2.375,2.3516,2.3198,2.3594,0.0,0.0,0.0,0.0,0.0,0.0,0.0,0.0,2.1758,2.1894,2.1953,2.2305,2.2148,2.1894,2.1934,2.2598,2.3854,2.6055,2.832,3.0508,3.2559,3.4492,3.5723,3.5293,3.4316,3.3535,3.3496,3.2539,3.1973,3.2676,3.3437,0.0,0.0,0.0,0.0,0.0,0.0,0.0,0.0,0.0,0.0,0.0,0.0,0.0,0.0,2.7811,2.8605,2.8605,3.0079,3.0898,3.0898,3.0898,3.0898,0.0,3.0898,3.0898,3.0898,3.0898,3.0898,3.0898,3.0898,3.0898,3.0898,3.0898,3.0898,3.0898,3.0898,3.0898,3.0898,3.0898,3.0898,3.0898,0.0,0.0,1.9141,1.9141,0.0,0.0,0.0,0.0,0.0,2.0586,2.0605,0.0,0.0,0.0,0.0,0.0,0.0,0.0,0.0,2.0605,2.0605,2.0605,2.0898,2.1348,2.1875,2.2148,2.2402,2.2656,2.3594,2.3887,2.3594,2.6309,2.6825,2.5575,2.7533,2.7305,2.543,2.457,2.4043,2.3769,2.3418,2.3437,2.3633,2.3335,2.3179,0.0,0.0,0.0,0.0,0.0,0.0,0.0,2.1758,2.1894,2.1836,2.1541,2.168,2.1953,2.2285,2.3242,2.4824,2.7676,3.0762,3.3398,3.457,3.4648,3.4375,3.3926,3.416,3.4316,3.3984,3.3711,3.3359,3.2871,3.2949,0.0,0.0,0.0,0.0,0.0,0.0,0.0,0.0,0.0,0.0,0.0,0.0,0.0,2.9844,3.0157,3.0333,3.0333,3.0704,3.0898,3.0898,3.0898,3.0898,0.0,3.0898,3.0898,3.0898,3.0898,3.0898,3.0898,3.0898,3.0898,3.0898,3.0898,3.0898,3.0898,3.0898,3.0898,3.0898,3.0898,3.0898,3.0898,0.0,0.0,0.0,0.0,0.0,0.0,0.0,0.0,0.0,0.0,0.0,0.0,0.0,0.0,0.0,0.0,0.0,0.0,0.0,2.0605,2.0605,2.0605,2.0996,2.123,2.129,2.1465,2.1777,2.2207,2.2656,2.3086,2.3477,2.5712,2.6408,2.5791,2.7381,2.7061,2.5352,2.4687,2.4043,2.3477,2.3457,2.3457,2.3477,2.3457,2.3276,2.3101,2.3101,0.0,0.0,0.0,0.0,0.0,0.0,0.0,2.1875,2.1855,2.1719,2.1719,2.2344,2.3594,2.5644,2.9512,3.2285,3.4141,3.4394,3.4101,3.3574,3.2949,3.334,3.3652,3.3242,3.3164,3.3008,3.2578,0.0,0.0,0.0,0.0,0.0,0.0,0.0,0.0,0.0,0.0,0.0,0.0,0.0,3.0801,3.0566,3.0566,3.0566,3.0566,3.0566,3.0664,3.0898,3.0898,3.0898,3.0898,3.0898,3.0898,3.0898,3.0898,3.0898,3.0898,3.0898,3.0898,3.0898,3.0898,3.0898,3.0898,3.0898,3.0898,3.0898,3.0898,3.0898,3.0898,0.0,0.0,0.0,0.0,0.0,0.0,0.0,0.0,0.0,0.0,0.0,0.0,0.0,0.0,0.0,0.0,0.0,0.0,0.0,0.0,0.0,2.0723,2.0957,2.1016,2.084,2.123,2.16,2.1992,2.207,2.2793,2.416,2.5234,2.6016,2.6523,2.709,2.6738,2.5635,2.5019,2.4121,2.312,2.3535,2.3457,2.314,2.3535,2.3457,2.3101,2.3101,2.2828,2.2519,2.2598,0.0,0.0,0.0,0.0,2.1934,2.2207,2.1738,2.1288,2.2266,2.4082,2.6719,3.082,3.2851,3.375,3.3398,3.3203,3.2891,3.2207,3.2402,3.2578,3.2226,3.2229,3.2148,0.0,0.0,0.0,0.0,0.0,0.0,0.0,0.0,0.0,0.0,0.0,0.0,0.0,0.0,3.0488,3.0117,3.0098,3.0117,3.0195,3.0137,3.0312,3.0762,3.0703,3.0703,3.0762,3.0859,3.0898,3.0898,3.0898,3.0898,3.0898,3.0898,3.0898,3.0898,3.0898,3.0898,3.0898,3.0898,3.0898,3.0898,3.0898,3.0898,3.0898,0.0,0.0,0.0,0.0,0.0,0.0,0.0,0.0,0.0,0.0,2.0605,2.0605,0.0,0.0,0.0,0.0,0.0,0.0,2.0,0.0,0.0,2.1073,2.082,2.1036,2.1699,2.2129,2.2363,2.2422,2.275,2.3783,2.544,2.5615,2.6172,2.6914,2.6269,2.5849,2.5577,2.4017,2.3257,2.3101,2.3159,2.314,2.3101,2.3159,2.314,2.3101,2.3101,2.2828,2.2559,2.2886,2.273,0.0,0.0,0.0,2.1816,2.1504,2.1055,2.0957,2.2168,2.5391,2.875,3.0137,3.1738,3.2949,3.2891,3.2305,3.1738,3.1621,3.1953,3.2226,3.2187,3.2229,3.2051,0.0,0.0,0.0,0.0,0.0,0.0,0.0,0.0,0.0,0.0,0.0,0.0,0.0,2.9746,2.9783,2.9648,2.9648,2.9824,3.0176,2.9844,2.9863,3.0293,2.9922,2.9922,3.0293,3.0703,3.0898,3.0898,3.0898,3.0898,3.0898,3.0898,3.0898,3.0898,3.0898,3.0898,3.0898,3.0898,3.0898,3.0898,3.0898,3.0898,3.0898,0.0,0.0,0.0,0.0,0.0,0.0,0.0,0.0,0.0,0.0,0.0,2.0605,0.0,0.0,0.0,2.0293,2.0059,1.9922,1.9922,2.0137,2.0449,2.084,2.0703,2.0781,2.1173,2.1328,2.166,2.2168,2.2344,2.3691,2.6113,2.6602,2.7266,2.8027,2.6699,2.6094,2.5977,2.3939,2.3101,2.3101,2.3101,2.3393,2.3809,2.3276,2.3393,2.3744,2.3276,2.2984,2.2847,2.3042,2.2964,2.2828,2.2828,0.0,0.0,0.0,2.1113,2.1055,2.3027,2.5137,2.7266,2.9355,3.043,3.1055,3.1289,3.1055,3.0703,3.0469,3.0586,3.0859,3.1367,3.1445,0.0,0.0,0.0,0.0,0.0,0.0,0.0,0.0,0.0,0.0,0.0,0.0,0.0,0.0,2.9626,2.9473,2.9219,2.9199,2.9297,2.9473,2.9297,2.9414,2.9844,2.9668,2.9668,2.9844,3.0059,3.0273,3.0508,3.0508,3.0644,3.0898,3.0898,3.0898,3.0898,3.0898,3.0898,3.0898,3.0898,3.0898,3.0898,3.0898,3.0898,3.0898,0.0,0.0,0.0,0.0,0.0,0.0,0.0,0.0,0.0,0.0,0.0,0.0,0.0,0.0,0.0,0.0,1.9941,1.9746,1.9746,2.0156,2.0488,2.0605,2.0507,2.0488,2.0605,2.0723,2.1055,2.1719,2.1934,2.3535,2.6406,2.7148,2.8184,2.9355,2.7851,2.6953,2.6426,2.4453,2.3647,2.3725,2.3276,2.3549,2.4199,2.3627,2.3822,2.429,2.3647,2.3354,2.3237,2.314,2.3101,2.3101,2.3101,2.2637,0.0,0.0,0.0,2.1055,2.3047,2.4082,2.5176,2.7637,2.8516,2.8906,2.9434,2.9629,2.9629,0.0,2.9336,2.957,3.0137,0.0,0.0,0.0,0.0,0.0,0.0,0.0,0.0,0.0,0.0,0.0,0.0,0.0,0.0,0.0,2.9238,2.9101,2.8769,2.8769,2.8809,2.8906,2.8809,2.8965,2.9394,2.9394,2.9394,2.9394,2.9512,2.9785,3.0195,3.0195,3.0449,3.0898,3.0898,3.0898,3.0898,3.0898,3.0898,3.0898,3.0898,3.0898,3.0898,3.0898,3.0898,3.0898,0.0,0.0,0.0,0.0,0.0,0.0,0.0,0.0,0.0,0.0,0.0,0.0,2.0605,2.0605,2.0273,1.9434,1.9336,1.9316,1.9316,1.9707,2.0137,2.0586,2.0176,0.0,2.0586,2.0977,2.119,2.1229,2.2048,2.3828,2.6406,2.6836,2.8379,3.0742,2.9824,2.8496,2.6894,2.5547,2.5215,2.5421,2.3764,2.3418,2.3867,2.4219,2.4375,2.4414,2.4355,2.4102,2.3691,2.3237,2.3101,2.3101,2.3101,2.2789,2.2402,0.0,0.0,0.0,2.121,2.2262,2.3432,2.4387,2.5625,2.6777,2.7669,2.8105,2.8379,2.8359,2.8672,2.8848,2.8496,0.0,0.0,0.0,0.0,0.0,0.0,0.0,0.0,0.0,0.0,0.0,0.0,0.0,0.0,0.0,2.8359,2.8359,2.832,2.832,2.8516,2.8906,2.8535,2.8535,2.8945,2.8945,2.8945,2.8965,2.9375,2.9785,3.0195,3.0195,3.0449,3.0898,3.0898,3.0898,3.0898,3.0898,3.0898,3.0898,3.0898,3.0898,3.0898,3.0898,3.0898,3.0898,0.0,0.0,0.0,0.0,0.0,0.0,0.0,0.0,0.0,0.0,0.0,0.0,0.0,2.0605,2.0488,2.0175,2.0136,2.0018,1.9707,2.0098,2.0429,2.0605,2.0449,2.0449,2.0605,2.0723,2.1074,2.166,2.1953,2.3281,2.5615,2.6543,2.7363,2.8008,2.7949,2.7734,2.7266,2.4863,2.4082,2.4414,2.3452,2.353,2.4141,2.3705,2.4121,2.4766,2.4219,2.3906,2.3769,2.3613,2.3379,2.3101,2.3101,2.2676,2.1973,2.129,2.086,2.0762,2.1465,2.1736,2.2204,2.3672,2.4375,2.4941,2.5849,2.6348,2.666,2.666,2.6992,2.7246,0.0,0.0,0.0,0.0,0.0,0.0,0.0,0.0,0.0,0.0,0.0,0.0,0.0,0.0,0.0,0.0,0.0,2.8008,2.8281,2.8301,2.8359,2.8516,2.8379,2.8359,2.8516,2.8516,2.8516,2.8516,2.8672,2.9121,2.9785,2.9785,3.0195,3.0898,3.0898,3.0898,3.0898,3.0898,3.0898,3.0898,3.0898,3.0898,3.0898,3.0898,3.0898,3.0898,0.0,0.0,0.0,2.0605,0.0,2.0605,2.0605,2.0605,2.0605,2.0605,0.0,0.0,0.0,0.0,2.0664,2.0371,2.039,2.0293,2.0137,2.0547,2.0859,2.1036,2.1055,2.0937,2.0801,2.0977,2.123,2.166,2.1953,2.3047,2.4863,2.5879,2.6445,2.6602,2.6426,2.6855,2.7591,2.5508,2.4746,2.4805,2.3926,2.418,2.5039,2.4766,2.5273,2.6074,2.5508,2.4922,2.4375,2.3945,2.3496,2.3101,2.3101,2.2656,2.1973,2.1387,2.1113,2.1173,2.1719,2.1562,2.1541,2.3008,2.3144,2.3203,2.4245,2.4648,2.4855,2.5011,2.543,2.5723,0.0,0.0,0.0,0.0,0.0,0.0,0.0,0.0,0.0,0.0,0.0,0.0,0.0,0.0,0.0,0.0,0.0,0.0,2.7851,2.7871,2.793,2.8066,2.8223,2.8301,2.8301,2.8301,2.8301,2.8301,2.8301,2.8672,2.9355,2.9355,2.9746,3.0449,3.0449,3.0625,3.0898,3.0898,3.0898,3.0898,3.0898,3.0898,3.0898,3.0898,3.0898,3.0898,2.0605,2.0605,2.0605,2.0625,2.0625,2.0625,2.0644,2.0644,2.0644,2.0644,0.0,0.0,0.0,0.0,0.0,2.0059,1.998,2.0176,2.0625,2.1016,2.1405,2.1875,2.1894,2.168,2.1229,2.166,2.168,2.1229,2.2109,2.3144,2.4394,2.4824,2.5723,2.6875,2.5625,2.6065,2.763,2.7611,2.7324,2.6816,2.5098,2.5215,2.6484,2.7337,2.7871,2.8262,2.8262,2.7187,2.5538,2.4297,2.3574,2.314,2.3101,2.2808,2.2519,2.25,2.2207,2.1894,0.0,0.0,0.0,2.2266,2.1814,2.1582,2.2875,2.3105,2.3179,2.3652,2.4082,2.4375,0.0,0.0,0.0,0.0,0.0,0.0,0.0,0.0,0.0,0.0,0.0,0.0,0.0,0.0,0.0,0.0,2.7012,2.7012,2.7012,2.7031,2.7226,2.7708,2.8066,2.8301,2.8301,2.8301,2.8301,2.8301,2.8301,2.8516,2.8926,2.8926,2.916,2.9626,2.9646,3.0078,3.0859,3.0859,3.0879,3.0898,3.0898,3.0898,3.0898,3.0898,3.0898,3.0898,2.0605,2.0605,2.0703,2.0996,2.1055,2.1152,2.1465,2.1564,2.1564,0.0,0.0,0.0,2.1699,2.1973,2.2051,2.1816,2.1797,2.1719,2.1543,2.1641,2.1758,2.1875,2.1894,2.1836,2.1699,2.1816,2.1973,2.2168,2.2402,2.2852,2.3452,2.3945,2.4492,2.5137,2.5078,2.538,2.5771,2.4785,2.5059,2.5908,2.4531,2.5117,2.6758,2.6055,2.6691,2.7793,2.748,2.707,2.6562,2.5898,2.5156,2.4375,2.3393,2.2808,2.2461,2.2148,2.1973,2.1894,2.1894,0.0,0.0,0.0,0.0,0.0,2.1758,2.2012,2.2266,2.2383,2.3032,2.3516,0.0,0.0,0.0,0.0,0.0,0.0,0.0,0.0,0.0,0.0,0.0,0.0,0.0,0.0,0.0,0.0,2.6738,2.6699,2.6992,2.7324,2.7591,2.7708,2.8066,2.8301,2.8301,2.8301,2.8301,2.8301,2.8301,2.8516,2.8926,2.8926,2.916,2.9646,2.9883,3.0156,3.0391,3.0391,3.0586,3.0898,3.0898,3.0898,3.0898,3.0898,3.0898,3.0898,2.0605,2.0762,2.0918,2.1151,2.1483,2.1797,2.1875,2.2031,2.209,0.0,0.0,0.0,2.2148,2.3008,2.3223,2.2324,2.2402,2.2402,2.2168,2.2148,2.2227,2.2402,2.2402,2.2324,2.2148,2.2324,2.2441,2.2519,2.2695,2.2847,2.3101,2.3398,2.3652,2.3842,2.4141,2.4258,2.4219,2.3413,2.3881,2.5128,2.4961,2.584,2.7285,2.7226,2.7949,2.8984,2.873,2.8398,2.793,2.6973,2.582,2.4609,2.3452,2.2925,2.2672,2.248,2.2402,2.2402,2.2402,2.2285,2.2129,2.2009,0.0,0.0,2.1562,2.1562,2.1621,0.0,2.2012,0.0,0.0,0.0,0.0,0.0,0.0,0.0,0.0,0.0,0.0,0.0,0.0,0.0,0.0,2.5879,2.5937,2.6191,2.6152,2.623,2.6465,2.6894,2.718,2.718,2.7715,2.8027,2.8027,2.8203,2.8301,2.8301,2.8301,2.8418,2.8652,2.8652,2.8789,2.9062,2.9473,2.9766,2.9941,3.0117,3.0469,3.0898,3.0898,3.0898,3.0898,3.0898,3.0898,3.0898,0.0,2.0996,2.1288,2.1385,2.207,2.25,2.2266,2.248,2.2598,0.0,2.2754,2.3027,2.3086,2.4316,2.4375,2.248,2.2519,2.2637,2.2578,2.2578,2.2754,2.3081,2.3101,2.2925,2.2598,2.2906,2.2906,2.2578,2.2906,2.3101,2.3101,2.3101,2.3101,2.3101,2.3101,2.3101,2.3101,2.3101,2.353,2.4394,2.5703,2.6875,2.7969,2.9434,3.0371,3.0879,3.084,3.0312,2.9375,2.7715,2.5977,2.4355,2.3549,2.3218,2.3101,2.3101,2.3101,2.3101,2.3101,2.2828,2.2656,2.2945,2.2539,0.0,2.1914,2.1582,2.1249,2.121,2.119,0.0,0.0,0.0,0.0,0.0,0.0,0.0,0.0,0.0,0.0,0.0,0.0,0.0,2.4414,2.4766,2.5047,2.5047,2.5371,2.5557,2.5615,2.6074,2.6348,2.6387,2.7278,2.7728,2.7728,2.8086,2.8301,2.8301,2.8301,2.8301,2.8301,2.8301,2.8301,2.832,2.873,2.916,2.9609,3.0019,3.0469,3.0898,3.0898,3.0898,3.0898,3.0898,3.0898,3.0898,2.1073,2.1465,2.1973,2.2719,2.2973,2.3403,2.4343,2.3926,2.4023,2.5332,2.5879,2.6269,2.6621,2.6035,2.5401,2.4972,2.4102,2.3398,2.3003,2.2984,2.3003,2.3081,2.3101,2.3062,2.2984,2.3062,2.3062,2.2984,2.3062,2.3101,2.3101,2.3101,2.3101,2.3101,2.3101,2.3101,2.3101,2.3101,2.3198,2.3452,2.4805,2.668,2.8672,2.8672,2.959,3.084,3.0469,3.0215,2.9863,2.8496,2.666,2.4922,2.4746,2.3984,2.3101,2.3101,2.3101,2.3101,2.3101,2.3042,2.2906,2.2695,2.2773,0.0,2.2051,2.1816,2.166,0.0,2.119,0.0,0.0,0.0,0.0,0.0,0.0,0.0,0.0,0.0,0.0,0.0,0.0,0.0,2.4414,2.4492,2.4551,2.4551,2.4629,2.4824,2.5176,2.5625,2.6035,2.6387,2.7278,2.7728,2.7728,2.8086,2.8301,2.8301,2.8301,2.8301,2.8301,2.8301,2.8301,2.832,2.873,2.916,2.9609,3.0019,3.0469,3.0898,3.0898,3.0898,3.0898,3.0898,3.0898,3.0898,2.119,2.1758,2.2402,2.309,2.3516,2.4082,2.4988,2.4883,2.5156,2.625,2.7305,2.7734,2.709,2.6448,2.5857,2.544,2.3568,2.2723,2.3407,2.2815,2.2631,2.3057,2.3101,2.3101,2.3101,2.3101,2.3101,2.3101,2.3101,2.3101,2.3101,2.3101,2.2984,2.2789,2.3003,2.2984,2.2789,2.3003,2.3218,2.3594,2.5117,2.6504,2.7773,2.8848,2.9648,3.0234,3.0195,2.9922,2.9355,2.8086,2.6934,2.5879,2.5019,2.4453,2.4062,0.0,2.3633,2.3418,0.0,0.0,0.0,2.3144,0.0,0.0,0.0,2.2344,2.207,2.1641,2.1346,2.119,2.119,0.0,0.0,0.0,0.0,0.0,0.0,0.0,0.0,0.0,0.0,0.0,2.3705,2.3984,2.418,2.4394,2.4414,2.4512,2.4727,2.4961,2.5273,2.5723,2.6367,2.6816,2.7031,2.7441,2.7773,2.7988,2.7988,2.8086,2.8301,2.8301,2.8301,2.832,2.873,2.9043,2.9297,2.9941,3.0332,3.0566,3.0801,3.0898,3.0898,3.0898,3.0898,3.0898,2.1444,2.2068,2.2773,2.3247,2.3848,2.4473,2.5047,2.5312,2.5762,2.6523,2.8105,2.8524,2.6904,2.6321,2.58,2.5026,2.2331,2.1508,2.3355,2.2354,2.208,2.2821,2.3008,2.3101,2.3101,2.3101,2.3101,2.3101,2.3101,2.3101,2.3101,2.3101,2.2906,2.2656,2.2945,2.2964,2.2773,2.3125,2.3516,2.4043,2.5625,2.6309,2.6641,2.8945,2.9668,2.9492,2.9922,2.957,2.8769,2.7734,2.7207,2.6758,2.5352,2.498,0.0,0.0,0.0,0.0,0.0,0.0,0.0,0.0,0.0,2.351,0.0,0.0,0.0,0.0,0.0,0.0,0.0,0.0,0.0,0.0,0.0,0.0,0.0,0.0,0.0,0.0,0.0,0.0,0.0,2.3457,2.3809,2.4141,2.418,2.4199,2.4297,2.4297,2.4531,2.5106,2.5508,2.5937,2.6387,2.6797,2.7187,2.7591,2.7669,2.7904,2.8184,2.8262,2.8301,2.832,2.8652,2.8848,2.8984,2.9766,3.0117,3.0234,3.0703,3.0898,3.0898,3.0898,3.0898,3.0898,2.2363,2.2711,2.3159,2.3652,2.3789,2.4141,2.4988,2.4785,2.5273,2.7317,2.9004,2.9507,2.7987,2.6318,2.5094,2.4611,2.1577,2.0423,2.2163,2.1722,2.1518,2.1934,2.2701,2.3101,2.3101,2.3101,2.3101,2.3101,2.3101,2.3101,2.3101,2.3101,2.3081,2.3023,2.3081,2.332,2.3652,2.3691,2.3965,2.4434,2.5362,2.6055,2.6543,2.7969,2.8711,2.9043,2.9492,2.9336,2.8906,0.0,2.7949,2.6973,0.0,2.5957,2.5184,2.5488,0.0,0.0,0.0,0.0,0.0,0.0,2.4629,0.0,0.0,0.0,2.2969,2.2539,0.0,0.0,0.0,0.0,0.0,0.0,0.0,0.0,0.0,0.0,0.0,0.0,0.0,0.0,0.0,2.314,2.3198,2.3237,2.3237,2.3413,2.3848,2.3867,2.4238,2.5086,2.5508,2.5937,2.6387,2.6797,2.7031,2.709,2.748,2.7748,2.7806,2.8125,2.8301,2.8301,2.834,2.8574,2.8945,2.9453,2.9863,3.0234,3.0703,3.0898,3.0898,3.0898,3.0898,3.0898,2.2519,2.2808,2.3237,2.3711,2.3789,2.4082,2.4988,2.6191,2.7363,2.8281,2.9902,3.0292,2.8576,2.6597,2.5508,2.5748,2.1587,2.044,2.3949,2.2127,2.1596,2.325,2.3647,2.3769,2.3516,2.3516,2.3354,2.3101,2.3101,2.3101,2.3101,2.3101,2.2964,2.275,2.2984,2.3062,2.3086,2.3574,2.4043,2.4473,2.5098,2.5625,2.6172,2.7715,2.8555,2.8906,2.8848,2.8711,2.8476,0.0,2.7793,0.0,0.0,0.0,0.0,2.6211,0.0,0.0,0.0,0.0,0.0,0.0,0.0,0.0,2.3997,0.0,2.3105,0.0,0.0,0.0,0.0,0.0,0.0,0.0,2.1366,0.0,0.0,0.0,0.0,0.0,0.0,0.0,0.0,0.0,0.0,0.0,0.0,2.3179,2.3354,2.3418,2.3809,2.4668,2.4883,2.5312,2.5996,2.6142,2.6523,2.7012,2.7207,2.7559,2.8027,2.8203,2.8301,2.8301,2.8301,2.8398,2.8613,2.9297,2.9668,2.9902,3.0625,3.0898,3.0898,3.0898,3.0898,3.0898,2.2633,2.2886,2.3198,2.3555,2.3613,2.3945,2.4969,2.6875,2.8218,2.8246,2.9413,2.9774,2.8298,2.6248,2.5299,2.6328,2.2142,2.0927,2.4485,2.2711,2.2148,2.3594,2.4171,2.4219,2.3809,2.3789,2.3633,2.3276,2.3159,2.3101,2.3101,2.3101,2.2925,2.2695,2.3081,2.3144,2.291,2.3769,2.4394,2.4805,2.5117,2.5527,2.6055,2.7305,2.8105,2.8516,2.8086,2.8086,2.8164,2.7305,2.7578,0.0,2.707,0.0,2.7591,0.0,0.0,0.0,2.5712,0.0,0.0,0.0,0.0,0.0,0.0,0.0,0.0,0.0,0.0,0.0,0.0,0.0,0.0,0.0,0.0,2.1327,0.0,0.0,0.0,0.0,0.0,0.0,0.0,0.0,0.0,0.0,0.0,0.0,2.3101,2.3101,2.3491,2.4394,2.4414,2.4844,2.5674,2.5693,2.6064,2.6836,2.6953,2.7402,2.8125,2.8242,2.8301,2.8301,2.8301,2.8301,2.8359,2.9219,2.9626,2.9704,3.0547,3.0898,3.0898,3.0898,3.0898,3.0898,2.3081,2.3081,2.3101,2.312,2.312,2.3594,2.493,2.5859,2.6487,2.6571,2.6981,2.714,2.6862,2.4684,2.3896,2.561,2.3278,2.181,2.2201,2.3241,2.3238,2.1959,2.3491,2.4219,2.3809,2.3789,2.3789,2.3769,2.3296,2.3101,2.3101,2.3101,2.3081,2.3101,2.3574,2.3769,2.3809,2.4715,2.5293,2.5654,2.5654,2.5977,2.6367,0.0,2.6973,2.7708,2.7207,0.0,0.0,2.7305,2.7578,0.0,0.0,0.0,0.0,0.0,0.0,0.0,0.0,0.0,0.0,2.5634,0.0,0.0,0.0,0.0,2.4812,0.0,0.0,0.0,0.0,0.0,0.0,2.248,0.0,0.0,0.0,0.0,0.0,0.0,0.0,0.0,0.0,0.0,0.0,0.0,0.0,0.0,2.3101,2.3101,2.3491,2.4394,2.4414,2.4844,2.5674,2.5693,2.5957,2.6406,2.6816,2.7246,2.7748,2.8105,2.8301,2.8301,2.8301,2.8301,2.8359,2.9219,2.9626,2.9704,3.0547,3.0898,3.0898,3.0898,3.0898,3.0898,2.3101,2.3379,2.3477,2.314,2.3379,2.4004,2.5312,2.6484,2.7336,2.7646,2.8516,2.8682,2.7393,2.6124,2.544,2.5559,2.4232,2.3927,2.5177,2.518,2.5182,2.5248,2.5808,2.5664,2.4695,2.4922,2.4648,2.3789,2.3633,2.3418,2.3101,2.3101,2.3101,2.3101,2.3257,2.3359,2.3374,2.4277,2.4727,2.4875,2.546,2.6172,2.6777,0.0,2.6738,2.7226,2.707,2.7207,0.0,2.7109,2.7207,2.7422,2.7285,2.7441,2.7728,2.7728,2.7871,0.0,0.0,0.0,2.791,2.6328,0.0,0.0,0.0,0.0,0.0,0.0,0.0,0.0,0.0,0.0,2.2886,2.2886,2.2578,0.0,0.0,0.0,0.0,0.0,0.0,0.0,0.0,0.0,0.0,0.0,0.0,0.0,0.0,2.3101,2.3491,2.4394,2.4414,2.4844,2.5674,2.5693,2.6044,2.6797,2.6953,2.7383,2.8086,2.8223,2.8301,2.8301,2.8301,2.8301,2.834,2.8906,2.9316,2.9685,3.0215,3.0625,3.0898,3.0898,3.0898,3.0898,2.351,2.3691,2.3691,2.3418,2.3984,2.4617,2.5047,2.6597,2.7466,2.6884,2.803,2.8514,2.7702,2.6561,2.6013,2.6158,2.5895,2.5801,2.609,2.6899,2.7191,2.6785,2.6934,2.6484,2.5332,2.5586,2.5176,2.4004,2.4004,2.3789,2.3379,2.3159,2.3101,2.3101,2.3257,2.3237,2.3159,2.4043,2.4512,2.4707,2.5449,2.5977,0.0,0.0,2.6328,2.7187,0.0,2.6758,2.6973,2.666,2.6758,2.7012,2.7012,2.7324,2.7728,2.7728,2.7969,2.8164,2.7598,2.7754,0.0,2.6855,2.6602,0.0,2.5703,0.0,0.0,0.0,0.0,0.0,0.0,0.0,0.0,2.3379,2.3008,2.2633,0.0,2.1914,0.0,0.0,0.0,0.0,0.0,0.0,0.0,0.0,0.0,0.0,0.0,0.0,2.3491,2.4394,2.4414,2.4844,2.5674,2.5693,2.6122,2.7012,2.7012,2.7461,2.8301,2.8301,2.8301,2.8301,2.8301,2.8301,2.832,2.875,2.918,2.9665,3.0039,3.0488,3.0898,3.0898,3.0898,3.0898,2.4336,2.4141,2.3887,2.3906,2.4922,2.5388,2.4412,2.6267,2.6956,2.4675,2.5727,2.698,2.7807,2.5992,2.5428,2.7245,2.8073,2.7458,2.4996,2.829,2.918,2.668,2.6914,2.6699,2.5771,2.5752,0.0,2.4453,2.4453,2.4238,2.3809,2.3335,2.312,2.314,2.3574,2.3535,2.314,2.3978,2.4648,2.5145,2.5508,2.5469,2.5165,2.4609,2.5742,2.7441,2.6152,2.625,2.6836,2.5966,2.622,2.6953,2.7012,2.7305,2.7689,2.7728,2.7988,2.8105,2.7305,2.7363,2.7559,2.7148,0.0,0.0,0.0,0.0,2.6699,0.0,0.0,0.0,0.0,0.0,0.0,2.3769,2.3418,2.2945,0.0,0.0,0.0,0.0,0.0,0.0,0.0,0.0,0.0,0.0,0.0,0.0,0.0,0.0,2.351,2.4394,2.4434,2.4816,2.5674,2.5693,2.6122,2.7012,2.7012,2.7461,2.8301,2.8301,2.8301,2.8301,2.8301,2.8301,2.832,2.875,2.918,2.9665,3.0039,3.0488,3.0898,3.0898,3.0898,3.0898,2.4394,2.4863,2.5332,2.5664,2.5723,2.5946,2.6685,2.8649,2.9331,2.7458,2.8909,2.9441,2.762,2.6554,2.5909,2.5758,2.7946,2.872,2.7246,2.9984,3.0937,2.9297,2.8711,2.7891,2.6719,2.6699,2.6094,2.4902,2.4902,2.4687,2.4238,2.3828,2.3633,2.3613,2.3398,2.3198,2.314,2.3711,2.4375,2.5106,2.4844,2.5469,2.6367,0.0,2.5371,2.6582,2.5586,2.5605,2.5986,2.5771,2.583,2.6122,2.6816,2.709,2.7305,2.7949,2.8203,2.8242,2.8027,2.7812,2.7689,2.7519,2.7266,2.6992,0.0,0.0,0.0,0.0,0.0,0.0,0.0,0.0,0.0,0.0,0.0,0.0,0.0,0.0,0.0,2.1777,0.0,0.0,0.0,0.0,0.0,0.0,0.0,0.0,0.0,0.0,0.0,2.4394,2.4727,2.5176,2.5674,2.5693,2.6122,2.7012,2.7012,2.7461,2.8301,2.8301,2.8301,2.8301,2.8301,2.8301,2.832,2.875,2.918,2.9665,3.0039,3.0488,3.0898,3.0898,3.0898,3.0898,2.5234,2.6133,2.6992,2.7422,2.7203,2.6809,2.6516,2.8048,2.8547,2.6517,2.8511,2.9121,2.6581,2.6132,2.6053,2.6304,2.8098,2.9109,2.8912,3.0934,3.1582,3.0254,2.9375,2.8418,2.7324,2.6934,0.0,2.5106,2.5106,2.4844,2.4414,2.3984,2.3691,2.3496,2.3198,2.3101,2.314,2.3809,2.4453,2.5086,2.4805,2.5176,0.0,2.459,2.4609,2.5215,2.4902,2.5078,2.5469,2.5615,2.5693,2.583,2.6738,2.7012,2.7187,2.8047,2.8164,2.8027,2.8027,2.7715,2.7383,2.7383,2.7344,2.7246,2.7051,2.7539,2.7715,0.0,0.0,0.0,0.0,0.0,0.0,0.0,0.0,0.0,0.0,0.0,0.0,0.0,2.2324,0.0,0.0,0.0,0.0,0.0,0.0,0.0,0.0,0.0,0.0,2.4414,2.5215,2.5684,2.5693,2.6289,2.6719,2.7012,2.7207,2.7656,2.8301,2.8301,2.8301,2.8301,2.8301,2.8398,2.8574,2.8828,2.9277,2.9883,3.0332,3.0664,3.0898,3.0898,3.0996,3.1172,2.6195,2.7259,2.8261,2.8793,2.84,2.7361,2.5587,2.6647,2.6801,2.4589,2.6851,2.7779,2.5531,2.5411,2.604,2.7378,2.8208,2.9043,2.9683,3.1332,3.168,3.043,2.9492,2.8613,2.7826,2.6914,2.6035,0.0,2.5156,2.4941,2.4492,2.4062,2.3633,2.3179,2.312,2.312,2.3237,2.4023,2.4609,2.5106,2.5047,2.4824,2.4531,2.4062,2.3906,2.4004,2.4375,2.4746,2.5184,2.5538,2.5693,2.583,2.668,2.6973,2.7168,2.7969,2.7949,2.7728,2.7728,2.7305,2.6953,2.7012,2.7305,2.748,2.7109,2.7344,2.7474,2.6562,2.6536,2.631,0.0,0.0,0.0,0.0,0.0,0.0,0.0,0.0,0.0,0.0,0.0,0.0,0.0,0.0,0.0,0.0,0.0,0.0,0.0,0.0,0.0,2.4414,2.5586,0.0,2.5849,0.0,2.7402,2.7187,2.7519,2.7891,2.8301,2.8301,2.8301,2.8301,2.8301,2.8496,2.8848,2.8945,2.9512,3.0332,3.0742,3.0898,3.0898,3.0898,3.1191,3.1601,2.5496,2.6227,2.7253,2.8687,2.6918,2.5847,2.7208,2.9061,2.9502,2.7302,2.8865,2.9137,2.6448,2.5772,2.5442,2.5187,2.7814,0.0,0.0,0.0,0.0,3.1328,3.0117,2.9062,2.8203,2.7344,2.6484,0.0,0.0,2.5391,2.4988,2.4512,2.4082,2.3652,2.3257,2.334,2.3691,2.3828,0.0,2.5086,2.4668,2.4922,2.5362,2.4609,2.4531,2.4891,2.4969,2.5047,2.5184,2.5538,2.5693,2.5771,2.6328,2.6738,2.7109,2.7637,2.7787,2.7728,2.7728,2.709,2.6582,2.6934,2.707,2.7109,2.7031,2.7344,2.7474,2.6562,2.7189,2.7324,2.5453,0.0,0.0,0.0,0.0,0.0,0.0,0.0,0.0,0.0,0.0,2.3062,0.0,0.0,0.0,0.0,0.0,0.0,0.0,0.0,0.0,0.0,2.5,0.0,0.0,0.0,2.7109,2.8066,2.7793,2.7891,2.8301,2.8301,2.8301,2.8301,2.8301,2.834,2.8457,2.916,2.998,3.0781,3.0859,3.0898,3.0898,3.0898,3.1387,3.2012,2.7749,2.7675,2.7948,2.9319,2.7621,2.6508,2.7992,2.8717,2.8409,2.657,2.7719,2.7821,2.5518,2.501,2.5073,2.5765,2.771,2.8977,2.9103,3.1227,3.209,3.123,3.0156,2.9277,2.8633,2.7363,2.6484,2.6074,0.0,2.5273,2.5106,2.4863,2.4414,2.3769,2.3296,2.3452,0.0,0.0,0.0,2.5391,2.5195,2.5215,2.5352,2.4922,2.4746,2.4766,2.5028,2.5106,2.5184,2.5538,2.5693,2.5771,2.625,2.6523,2.6816,2.7532,2.75,2.7324,2.7324,2.6875,2.6387,2.6367,2.6523,2.6699,2.6699,2.7012,2.7148,2.6523,2.6864,2.689,2.5624,2.4863,0.0,0.0,0.0,0.0,0.0,0.0,0.0,0.0,0.0,0.0,0.0,0.0,0.0,0.0,0.0,0.0,0.0,0.0,0.0,0.0,0.0,0.0,0.0,0.0,0.0,2.7969,2.7988,2.8105,2.8301,2.8301,2.8418,2.8613,2.8613,2.8867,2.9336,2.998,3.0508,3.0898,3.0898,3.0898,3.0898,3.0898,3.1289,3.1836,2.9409,2.8529,2.8206,2.9709,2.8302,2.7303,2.8154,2.7629,2.6667,2.5504,2.6262,2.6178,2.4475,2.4235,2.4778,2.6095,2.7426,2.857,2.9471,3.1106,3.1699,3.0918,3.0137,2.9453,2.8926,2.7441,2.6562,0.0,0.0,0.0,0.0,2.5106,2.4609,0.0,0.0,0.0,0.0,0.0,2.5019,2.5693,2.5693,2.5527,2.5215,2.5215,2.5,2.4746,2.5078,2.5215,2.5273,2.5577,2.5693,2.5752,2.6133,2.6309,2.6523,2.7187,2.7207,2.7012,2.7012,2.6699,2.6309,2.5957,2.6133,2.6367,2.6269,2.6582,2.6808,2.6675,2.6675,2.6625,2.6488,2.5488,0.0,0.0,0.0,0.0,0.0,0.0,0.0,0.0,0.0,0.0,2.3101,0.0,0.0,0.0,0.0,2.3101,2.3101,2.3457,0.0,0.0,0.0,2.6523,2.666,0.0,2.832,0.0,2.8184,2.8301,2.8301,2.8301,2.8516,2.8926,2.8926,2.9414,3.0234,3.0586,3.0801,3.0898,3.0898,3.0898,3.0898,3.0996,3.1289,3.1719,2.7289,2.6324,2.631,2.8744,2.7511,2.6515,2.7827,2.7142,2.6426,2.6279,2.6168,2.5747,2.469,2.4369,2.4053,2.3658,2.6366,2.7818,2.7253,2.9941,3.1367,3.0918,3.041,2.9746,2.8945,2.8008,2.7168,0.0,0.0,0.0,0.0,0.0,0.0,0.0,0.0,0.0,0.0,2.4844,2.5293,2.5693,2.5693,2.5654,2.5635,2.5635,2.5596,2.5577,2.5615,2.5635,2.5635,2.5674,2.5693,2.5693,2.5732,2.6074,2.6406,2.6484,2.6758,2.7012,2.7012,2.6699,2.6387,2.6328,2.6367,2.6289,2.5849,2.6133,2.6656,2.7338,2.7473,2.7831,2.8866,2.7138,2.5577,0.0,0.0,0.0,0.0,0.0,2.4355,2.4355,0.0,0.0,0.0,2.3101,0.0,0.0,2.3101,2.3101,2.3101,2.314,2.353,2.4394,0.0,2.5586,2.7571,2.7305,2.7734,2.8789,2.8457,2.8301,2.8301,2.8301,2.8516,2.8926,2.8926,2.9414,3.0195,3.0234,3.0508,3.0898,3.0898,3.0898,3.0937,3.1328,3.1738,3.2168,0.0,0.0,0.0,0.0,0.0,0.0,0.0,2.8564,2.8385,2.9276,2.8054,2.6983,2.6598,2.6013,2.5087,2.3749,2.6124,2.7506,2.6933,2.9806,3.1328,3.0918,3.0449,2.9922,2.9316,2.8476,2.7754,0.0,0.0,0.0,0.0,0.0,0.0,0.0,0.0,2.457,2.4824,2.5047,2.5332,2.5693,2.5693,2.5693,2.5693,2.5693,2.5693,2.5693,2.5693,2.5693,2.5693,2.5693,2.5693,2.5732,2.6055,2.625,2.6484,2.7012,2.7266,2.7402,2.7402,2.709,2.6699,2.6445,2.6191,2.5957,2.5732,2.583,2.6084,2.6372,2.6476,2.6839,2.8096,2.6887,2.5965,0.0,0.0,0.0,0.0,0.0,0.0,2.4414,0.0,2.3101,0.0,0.0,0.0,0.0,0.0,2.3101,2.3101,2.3379,0.0,2.4394,0.0,2.6133,2.7266,2.7617,2.8027,2.8535,2.8379,2.8301,2.8301,2.8555,2.9043,2.9707,2.998,3.0293,3.0605,3.0605,3.0723,3.0898,3.0898,3.0898,3.0937,3.1367,3.1621,3.1875,2.7689,0.0,2.5999,0.0,2.6529,2.6658,2.9311,2.9204,2.9593,3.1739,3.0404,2.88,2.7623,2.6978,2.6011,2.44,2.629,2.7534,2.7676,3.0069,3.1328,3.0918,3.0586,0.0,2.9766,2.8906,2.8262,2.7904,2.7285,0.0,0.0,0.0,0.0,0.0,2.4883,2.4902,2.5125,2.5215,2.5449,2.5693,2.5693,2.5693,2.5693,2.5693,2.5693,2.5693,2.5693,2.5693,2.5693,2.5693,2.5771,2.5977,2.6289,2.6465,2.6699,2.7305,2.7559,2.7728,2.7728,2.7344,2.6953,2.6641,2.625,2.5937,2.5937,2.5937,2.5977,2.6227,2.6255,2.6668,2.7908,2.669,2.5912,2.7202,0.0,0.0,0.0,0.0,0.0,0.0,2.3549,2.3101,2.3101,2.3101,0.0,0.0,0.0,0.0,0.0,0.0,0.0,0.0,0.0,0.0,0.0,2.7734,2.8164,2.8301,2.8301,2.8359,2.8496,2.9043,2.9629,3.0215,3.0684,3.0898,3.0898,3.0898,3.0898,3.0898,3.0898,3.0898,3.0957,3.1504,3.1699,3.1836,2.6713,2.5786,2.5407,2.6305,2.6373,2.6991,2.892,2.8476,2.9305,3.3109,3.2923,3.0978,2.7022,2.6628,2.6304,2.551,2.6722,2.8047,2.9368,3.0736,3.1328,0.0,0.0,3.0664,3.0195,2.9355,2.8711,2.8281,0.0,0.0,2.6387,0.0,2.5508,2.5125,2.5527,2.5488,2.5145,2.5547,2.5693,2.5693,2.5693,2.5693,2.5693,2.5693,2.5693,2.5693,2.5693,2.5693,2.5693,2.5693,2.6016,2.6387,2.6387,2.668,2.7012,2.7031,2.7324,2.7728,2.7728,2.7344,2.7012,2.7012,2.6699,2.6387,2.6387,2.6387,2.6646,2.7398,2.76,2.7955,2.9189,2.7061,2.5483,2.6722,0.0,0.0,0.0,0.0,0.0,2.3848,2.3398,2.3101,2.3101,2.3101,0.0,0.0,0.0,0.0,0.0,0.0,0.0,2.5086,2.5508,0.0,2.7012,2.7461,2.7943,2.8301,2.8301,2.8516,2.8945,2.9785,3.0176,3.0215,3.0684,3.0898,3.0898,3.0898,3.0898,3.0898,3.0898,3.0898,3.0996,3.1855,3.2168,3.2285,2.5744,2.5303,2.5237,2.5705,2.6836,2.8411,3.0403,3.1307,3.2736,3.535,3.5242,3.3805,3.1029,2.917,2.7489,0.0,2.554,2.6055,0.0,2.8742,2.9839,3.084,3.0898,3.0664,3.0215,2.9648,2.916,2.8711,0.0,0.0,0.0,2.668,2.623,2.5527,2.5635,2.5615,2.5527,2.5635,2.5693,2.5693,2.5693,2.5693,2.5693,2.5693,2.5693,2.5693,2.5693,2.5693,2.5693,2.5693,2.6035,2.6445,2.6719,2.7109,2.7519,2.7793,2.7988,2.8086,2.8086,2.7773,2.7461,2.7461,2.7129,2.6816,2.6816,2.6816,2.678,2.6794,2.6792,2.7303,2.9095,2.7644,2.6609,2.796,2.6841,0.0,0.0,0.0,0.0,2.3809,2.3672,2.3457,0.0,2.3398,0.0,0.0,0.0,0.0,0.0,0.0,0.0,0.0,2.623,0.0,2.7461,2.7871,2.8301,2.8711,2.8437,2.8672,2.9375,2.9941,3.0371,3.0684,3.082,3.0898,3.0898,3.0898,3.0898,3.0898,3.0898,3.0898,3.0996,3.1855,3.2229,3.2285,2.5289,2.4997,2.5144,2.5317,2.6979,2.8877,3.0892,3.2485,3.418,3.6131,3.6055,3.5259,3.3853,3.1385,0.0,2.7223,2.5616,2.5313,2.6853,2.8027,2.9067,2.9903,3.0587,3.0762,3.0469,0.0,0.0,2.916,2.8418,2.7793,2.7266,2.709,2.6641,2.5977,2.5977,2.5898,2.5693,2.5693,2.5693,2.5693,2.5693,2.5693,2.5693,2.5693,2.5693,2.5693,2.5693,2.5791,2.5957,2.5752,2.6133,2.6641,2.6738,2.7187,2.7806,2.8164,2.8301,2.8301,2.8301,2.7988,2.7728,2.7728,2.7461,2.7266,2.7266,2.7266,2.709,2.6504,2.6765,2.7378,2.8296,2.7412,2.6777,2.748,2.6243,2.4916,2.4055,0.0,0.0,0.0,0.0,0.0,0.0,2.3867,2.3848,0.0,0.0,0.0,0.0,0.0,0.0,2.5957,2.6816,0.0,2.7728,2.8086,2.8496,2.8926,2.8984,2.9297,2.9824,3.0254,3.0605,3.0898,3.0898,3.0898,3.0898,3.0898,3.0898,3.0898,3.0898,3.0898,3.0996,3.1855,3.2229,3.2285,2.529,2.4863,2.505,0.0,2.674,0.0,3.0493,3.228,3.402,3.5743,3.5684,3.543,3.543,3.3076,3.076,2.901,0.0,0.0,0.0,2.8174,2.8781,2.8426,3.002,3.0879,3.084,3.0,2.9607,2.9492,2.8335,2.7748,2.7708,2.7246,2.6836,2.6426,2.6426,2.6211,2.5771,2.5771,2.5752,2.5732,2.5732,2.5713,2.5693,2.5693,2.5713,2.5732,2.5732,2.6055,2.6367,2.5957,2.6348,2.6953,2.6582,2.7082,2.7787,2.8125,2.8262,2.8301,2.8301,2.8008,2.7767,2.7767,2.7767,2.7767,2.7767,2.7767,2.7532,2.6641,2.7348,2.7896,2.7159,2.6575,2.6159,2.5716,2.4666,2.3683,2.3159,0.0,0.0,0.0,0.0,0.0,0.0,2.4453,2.4277,0.0,0.0,0.0,0.0,0.0,2.6016,2.6426,2.7226,2.7728,2.7767,2.8105,2.8496,2.8926,2.9824,3.0234,3.0215,3.0684,3.0898,3.0898,3.0898,3.0898,3.0898,3.0898,3.0898,3.0898,3.0898,3.0918,3.1035,3.1855,3.2248,3.2324,0.0,0.0,2.481,2.5037,2.7701,2.9968,3.0677,3.3353,3.5519,3.5947,3.5937,3.5879,3.5879,3.3505,3.1233,2.9444,2.6737,2.5086,2.5077,2.6289,2.7469,2.8367,3.002,3.0723,3.0371,2.9844,2.9258,2.8594,2.8301,2.7988,2.7728,2.7611,2.7285,2.6875,2.6875,2.6816,2.6719,2.6719,2.6523,2.623,2.623,2.6035,2.5693,2.5693,2.5937,2.623,2.623,2.6504,2.6855,2.6758,2.6855,2.7051,2.7285,2.7552,2.7728,2.7793,2.8047,2.8301,2.8301,2.8223,2.8144,2.8144,2.8144,2.8144,2.8144,2.8144,2.7988,2.7532,2.7345,2.7412,2.78,2.6945,2.6151,2.6159,2.5242,2.4204,2.3232,2.3179,0.0,0.0,2.4082,2.4316,2.4414,2.4727,2.4727,0.0,0.0,0.0,0.0,2.625,2.6758,2.6855,2.7383,2.7865,2.8144,2.8242,2.8496,2.8926,3.0156,3.0547,3.0215,3.0684,3.0898,3.0898,3.0898,3.0898,3.0898,3.0898,3.0898,3.0898,3.0898,3.1094,3.1426,3.1973,3.2363,3.2715,2.5318,2.4636,2.469,2.485,2.7885,3.0376,3.0574,3.3663,3.5957,3.5762,3.5898,3.5937,3.5762,3.4299,3.2247,2.9646,2.6643,2.4414,2.3406,2.514,2.6549,2.7271,2.9589,3.0781,3.0527,3.0078,2.9434,2.8574,2.8398,2.8184,2.7949,2.7949,2.7715,2.7305,2.7305,2.7207,2.7012,2.7012,2.6875,2.668,2.668,2.6523,2.6278,2.6278,2.6465,2.668,2.668,2.6953,2.7285,2.709,2.7148,2.7324,2.7363,2.75,2.7728,2.7728,2.7969,2.8301,2.8301,2.8301,2.8301,2.8301,2.8301,2.8301,2.8301,2.8301,2.8184,2.7806,2.7768,2.7683,2.7134,2.6574,2.593,2.5251,2.4506,2.38,2.3188,2.3257,0.0,2.4023,2.4453,2.4805,2.5,2.5234,2.5195,2.4746,0.0,0.0,2.5693,2.6738,2.7305,2.7305,2.7734,2.8066,2.8301,2.8691,2.8984,2.9238,3.0351,3.0762,3.0527,3.0781,3.0898,3.0898,3.0898,3.0898,3.0898,3.0898,3.0898,3.0898,3.0898,3.1035,3.1309,3.1934,3.2305,3.2598,2.6137,2.5212,2.5152,2.5488,2.8429,3.0734,3.0734,3.3688,3.5781,3.5351,3.5664,3.5801,3.543,3.498,3.3397,3.0123,2.7178,2.4461,2.2175,2.4811,2.6405,2.6045,2.9157,3.0859,3.0781,3.0332,2.9746,2.9023,2.8594,2.8398,2.8379,2.832,2.8105,2.7806,2.7806,2.7559,2.7207,2.7207,2.7168,2.7109,2.7109,2.707,2.7012,2.7012,2.7051,2.7109,2.7109,2.7383,2.7695,2.7324,2.7461,2.7695,2.7324,2.75,2.7904,2.7826,2.8066,2.8379,2.832,2.834,2.8398,2.8476,2.8476,2.8476,2.8398,2.8398,2.8262,2.7851,2.8237,2.8052,2.6222,2.6074,2.5694,2.4146,2.3516,2.3179,2.3101,0.0,2.3965,2.4453,2.4902,2.5371,2.583,2.5888,2.5781,2.5391,2.6055,2.6348,0.0,2.707,2.7748,2.7806,2.8105,2.832,2.8379,2.918,2.9609,2.9668,3.0508,3.0898,3.0898,3.0898,3.0898,3.0898,3.0898,3.0898,3.0898,3.0898,3.0937,3.0996,3.0996,3.1055,3.1269,3.1992,3.2305,3.2461,2.9527,2.8125,2.7653,2.9495,3.1449,3.2735,3.2595,3.4221,3.5332,3.4863,3.5215,3.5469,3.541,3.498,3.3879,3.1846,3.0372,2.7388,2.232,2.6389,2.8052,2.6062,2.9157,3.0703,3.0312,2.9883,2.9609,2.9473,2.9043,2.8828,2.8809,2.8457,2.8262,2.8203,2.8203,2.8164,2.8086,2.8086,2.7891,2.7559,2.7559,2.7344,2.7012,2.7012,2.7246,2.7559,2.7559,2.7832,2.8184,2.8125,2.8144,2.8184,2.8105,2.8379,2.8652,2.8301,2.8496,2.875,2.8398,2.8555,2.8906,2.9277,2.9375,2.9277,2.8906,2.8828,2.8711,2.8281,2.8009,2.7661,2.6914,2.6261,2.5444,2.4453,2.3965,2.3555,2.314,0.0,2.4082,2.493,2.5371,2.5937,2.6738,2.6816,2.6797,2.6719,2.6836,2.7051,2.7344,2.7611,2.7885,2.8184,2.8262,2.8457,2.8809,2.9316,2.9746,3.0098,3.0644,3.0898,3.0898,3.0898,3.0898,3.0898,3.0898,3.0898,3.0898,3.0898,3.1094,3.1426,3.1426,3.1855,3.2519,3.2656,3.293,3.3242,3.0489,2.9615,2.9306,3.031,3.1999,3.317,3.3101,3.4576,3.5566,3.5137,3.5449,3.5644,3.541,3.498,3.403,3.2266,3.2069,2.9931,2.5092,2.7582,2.8806,2.7705,2.9721,3.0801,3.0566,3.0137,2.9902,2.9902,2.9473,2.9277,2.9258,2.8828,2.8633,2.8613,2.8398,2.8301,2.8301,2.8301,2.8184,2.8008,2.8008,2.7891,2.7695,2.7715,2.7832,2.8008,2.8008,2.8125,2.8301,2.8301,2.8301,2.834,2.8555,2.8769,2.8926,2.8965,2.8945,2.8887,2.8672,2.8945,2.9316,2.9531,2.9626,2.9453,2.9023,2.8926,2.8809,2.8379,2.7949,2.7598,2.7402,2.6465,2.5635,2.5508,2.4727,0.0,0.0,2.4355,2.4707,2.5352,2.582,2.6328,2.6953,2.7012,2.7012,2.7012,2.7226,2.7461,2.7708,2.7943,2.8203,2.8613,2.8633,2.8828,2.9258,2.9687,3.0,3.0195,3.0664,3.0898,3.0898,3.0898,3.0898,3.0898,3.1133,3.123,3.125,3.1484,3.1699,3.1875,3.1875,3.2109,3.248,3.2715,3.293,3.3105,3.16,3.1109,3.0986,3.151,3.2874,3.3845,3.3753,3.4937,3.5723,3.5293,3.5605,3.5742,3.543,3.498,3.4162,3.2799,3.3115,3.2036,2.8789,2.9375,2.9562,2.8938,3.0192,3.0898,3.0898,3.0547,3.0351,3.0351,2.9922,2.9726,2.9707,2.9277,2.9004,2.8906,2.8574,2.8379,2.8301,2.8301,2.8301,2.8301,2.8301,2.8301,2.8301,2.8301,2.8301,2.8301,2.8301,2.8301,2.8301,2.8301,2.8359,2.8496,2.8809,2.9062,2.9258,2.9492,2.9394,2.9199,2.9101,2.9375,2.9746,2.9844,2.9883,2.9766,2.9316,2.9219,2.9101,2.8672,2.834,2.8139,2.7969,2.707,2.6427,2.6765,0.0,0.0,0.0,2.5346,2.543,2.5927,2.6426,2.6855,2.7266,2.7305,2.7344,2.7441,2.7773,2.8008,2.8158,2.8418,2.8789,2.9199,2.9121,2.9277,2.9707,3.0039,3.0254,3.0371,3.0723,3.0898,3.0898,3.0996,3.1035,3.1055,3.1484,3.168,3.1699,3.2031,3.2287,3.2324,3.2324,3.2383,3.25,3.2832,3.2949,3.3008,3.4643,3.3601,3.3011,3.5237,3.5743,3.5675,3.5287,3.5363,3.5273,3.4805,3.5156,3.543,3.5391,3.498,3.4641,3.4491,3.3842,3.3272,3.2942,3.2312,3.0936,2.8558,3.0039,3.0898,3.0898,3.0859,3.084,3.084,3.0371,3.0156,3.0137,2.9726,2.9297,2.8926,2.8887,2.8652,2.8301,2.8301,2.8301,2.8301,2.8301,2.8301,2.8301,2.8301,2.8301,2.8301,2.8301,2.8301,2.8301,2.8301,2.8555,2.8887,2.8906,2.9473,3.0039,2.9668,2.9824,3.0019,2.9629,2.9824,3.0254,3.0684,3.0801,3.0664,3.0215,3.0098,2.998,2.957,2.9509,2.9316,2.8906,2.8437,2.8133,2.809,0.0,0.0,2.6671,2.6127,2.5947,2.6816,2.7305,2.7734,2.8164,2.8203,2.8359,2.875,2.8809,2.9004,2.947,2.9509,2.9668,3.0078,2.9726,2.9726,3.0137,3.0176,3.041,3.084,3.0879,3.0898,3.0898,3.1289,3.1465,3.1504,3.1934,3.2129,3.2129,3.2209,3.2402,3.2754,3.2754,3.2988,3.334,3.3359,3.3379,3.3437,3.5121,3.4604,3.4337,3.5743,3.5801,3.5664,3.5762,3.5781,3.5723,3.5547,3.5664,3.5684,3.543,3.498,3.459,3.4336,3.3769,3.332,3.3047,3.2734,3.1789,3.0019,3.0587,3.0898,3.0898,3.0898,3.0898,3.0898,3.0703,3.0625,3.0625,3.0176,2.9726,2.9316,2.9043,2.8691,2.8301,2.8301,2.8301,2.8301,2.8301,2.8301,2.8301,2.8301,2.8301,2.8301,2.8301,2.8457,2.8672,2.8672,2.8965,2.9375,2.9629,2.9941,3.0156,3.0,3.0273,3.0527,3.0078,3.0293,3.0664,3.084,3.0898,3.0762,3.0293,3.0195,3.0078,2.9648,2.9626,2.9567,2.9355,2.8769,2.8363,2.858,0.0,2.6713,2.7292,2.6883,2.6758,2.7344,2.7559,2.793,2.8613,2.8672,2.8867,2.9297,2.9316,2.9394,2.957,2.9824,3.0039,3.0195,3.0312,3.0469,3.0625,3.0625,3.0723,3.0898,3.0898,3.1035,3.1289,3.1445,3.166,3.1953,3.2363,3.2559,3.2578,3.2832,3.3047,3.3184,3.3184,3.3281,3.3457,3.373,3.3828,3.3887,3.5,3.4922,3.498,3.5859,3.5781,3.5684,3.5976,3.6016,3.6016,3.6016,3.5898,3.5723,3.543,3.4863,3.4394,3.4101,3.3672,3.3301,3.3008,3.2871,3.2285,3.1133,3.1094,3.1035,3.0898,3.0898,3.0898,3.0898,3.0898,3.0898,3.0879,3.0566,3.0176,2.9746,2.9453,2.9004,2.8496,2.8633,2.8613,2.8496,2.8633,2.8613,2.8496,2.8633,2.8613,2.8516,2.8652,2.8887,2.9121,2.9121,2.9414,2.9824,3.0098,3.0293,3.041,3.041,3.0644,3.082,3.0508,3.0644,3.0898,3.0898,3.0898,3.082,3.0488,3.041,3.0332,3.0039,2.998,2.998,2.998,2.9394,2.9055,2.961,2.841,2.7715,2.8548,2.7937,2.7637,2.8256,2.8315,2.8496,2.9062,2.9121,2.9297,2.9726,2.9766,2.9824,2.998,3.0254,3.041,3.041,3.0723,3.0898,3.0898,3.0898,3.0898,3.0898,3.1016,3.123,3.1523,3.1797,3.209,3.2383,3.2812,3.2988,3.3008,3.3301,3.3418,3.3418,3.3418,3.3418,3.3457,3.375,3.3867,3.3945,3.4531,3.4707,3.498,3.5859,3.6016,3.6016,3.6016,3.6016,3.6016,3.6016,3.5644,3.5391,3.5391,3.4609,3.4082,3.4062,3.3672,3.3418,3.3418,3.3027,3.2422,3.1562,3.1523,3.1328,3.0898,3.0898,3.0898,3.0898,3.0898,3.0898,3.0898,3.0898,3.0644,3.0195,3.0195,2.9726,2.8945,2.9394,2.9316,2.8965,2.9394,2.9316,2.8965,2.9394,2.9297,2.8984,2.9414,2.9626,2.957,2.957,2.9863,3.0195,3.0195,3.0527,3.0898,3.0898,3.0898,3.0898,3.0898,3.0898,3.0898,3.0898,3.0898,3.0898,3.0898,3.0898,3.0898,3.0898,3.0898,3.0898,3.0898,3.0508,3.0435,3.1264,2.9675,2.892,3.0586,2.934,2.8613,2.9528,2.9626,2.9626,2.957,2.957,2.9746,3.0176,3.0195,3.041,3.0859,3.0898,3.0898,3.0898,3.0898,3.0898,3.0898,3.0898,3.0898,3.0898,3.1328,3.1523,3.1562,3.2402,3.2793,3.2832,3.3242,3.3418,3.3418,3.3418,3.3418,3.3418,3.3418,3.3418,3.3418,3.3418,3.3437,3.3555,3.4531,3.4453,3.4629,3.582,3.5781,3.5684,3.5976,3.6016,3.5918,3.5625,3.5469,3.5156,3.4531,3.4238,3.3945,3.3633,3.3496,3.3418,3.3418,3.3301,3.2988,3.2441,3.1836,3.1465,3.1328,3.1035,3.0898,3.0898,3.0898,3.0898,3.0898,3.0898,3.0644,3.0195,3.0195,2.9883,2.9394,2.9512,2.9492,2.9394,2.9512,2.9492,2.9394,2.9531,2.9492,2.9394,2.9531,2.9766,3.0,3.0,3.0312,3.0684,3.0684,3.0781,3.0898,3.0898,3.0898,3.0898,3.0898,3.0898,3.0898,3.0898,3.0898,3.0898,3.0898,3.0898,3.0898,3.0898,3.0898,3.0898,3.0898,3.0508,3.027,3.0509,2.981,2.9384,2.9888,2.9534,2.9277,2.9607,2.9626,2.9687,2.998,3.0,3.0195,3.0644,3.0684,3.0742,3.0879,3.0898,3.0898,3.0898,3.0898,3.0898,3.0898,3.0898,3.1035,3.1328,3.1445,3.1836,3.2422,3.2676,3.2949,3.3242,3.3359,3.3418,3.3418,3.3418,3.3418,3.3418,3.3418,3.3418,3.3457,3.3769,3.3887,3.4004,3.457,3.4648,3.4902,3.5859,3.5801,3.5723,3.5976,3.6016,3.5937,3.5664,3.5332,3.4922,3.4375,3.4023,3.3711,3.3437,3.3574,3.3691,3.3691,3.3691,3.3574,3.3301,3.248,3.1953,3.1777,3.1523,3.1309,3.1133,3.1133,3.1055,3.0898,3.0898,3.0742,3.0469,3.0469,3.0234,2.9824,3.0019,2.998,2.9824,3.0019,2.998,2.9844,3.0019,2.998,2.9844,3.0019,3.0254,3.0469,3.0469,3.0664,3.0898,3.0898,3.0898,3.0898,3.0898,3.0898,3.0898,3.0898,3.0898,3.0898,3.0898,3.0898,3.0898,3.0898,3.1016,3.1094,3.0918,3.1016,3.1094,3.0918,3.0664,3.0469,3.0469,3.0098,2.9883,3.0059,2.9941,2.9883,3.0078,3.0098,3.0195,3.0449,3.0469,3.0586,3.0859,3.0898,3.0898,3.0898,3.0898,3.0898,3.0898,3.1055,3.1055,3.0898,3.123,3.1445,3.1523,3.1855,3.2305,3.2793,3.2969,3.3184,3.3418,3.3418,3.3418,3.3418,3.3418,3.3418,3.3418,3.3418,3.3418,3.3457,3.3711,3.3926,3.418,3.4668,3.5098,3.5527,3.5937,3.6016,3.6016,3.6016,3.6016,3.6016,3.5976,3.5234,3.4687,3.4648,3.3945,3.3476,3.3476,3.3887,3.4057,3.3927,3.4057,3.4057,3.3927,3.3277,3.2734,3.2405,3.2287,3.1953,3.1523,3.1523,3.1309,3.0898,3.0898,3.0898,3.0898,3.0898,3.0644,3.0293,3.0703,3.0644,3.0293,3.0723,3.0644,3.0312,3.0723,3.0625,3.0312,3.0742,3.0898,3.0898,3.0898,3.0898,3.0898,3.0898,3.0898,3.0898,3.0898,3.0898,3.0898,3.0898,3.0898,3.0898,3.0937,3.0937,3.0937,3.0937,3.1269,3.1465,3.1094,3.1269,3.1406,3.1016,3.0918,3.0898,3.0898,3.0527,3.041,3.084,3.0527,3.041,3.084,3.0898,3.0898,3.0898,3.0898,3.0898,3.0898,3.0898,3.0898,3.0898,3.0898,3.0898,3.0898,3.1309,3.1328,3.0957,3.1797,3.2012,3.1582,3.2402,3.2812,3.2871,3.3242,3.3418,3.3418,3.3418,3.3418,3.3418,3.3457,3.3457,3.3437,3.3516,3.3516,3.3496,3.3516,3.3789,3.418,3.5156,3.5332,3.5527,3.5937,3.6016,3.6016,3.6016,3.6016,3.5898,3.5566,3.5039,3.457,3.4238,3.4043,3.3926,3.3926,3.4316,3.3962,3.2471,3.3745,3.3896,3.2471,3.3268,3.375,3.3672,3.2676,3.1953,3.1523,3.1523,3.1309,3.0898,3.0898,3.0898,3.0898,3.0898,3.084,3.0742,3.0859,3.084,3.0762,3.0859,3.084,3.0762,3.0859,3.082,3.0762,3.0859,3.0898,3.0898,3.0898,3.0898,3.0898,3.0898,3.0898,3.0898,3.0898,3.0898,3.0898,3.0898,3.0898,3.0976,3.1309,3.1387,3.1387,3.1387,3.1719,3.2012,3.1914,3.1699,3.1484,3.1406,3.1113,3.0898,3.0898,3.0801,3.0781,3.0879,3.0801,3.0781,3.0879,3.0898,3.0898,3.0898,3.0898,3.0898,3.0898,3.0898,3.0898,3.0898,3.0898,3.0898,3.0898,3.1309,3.1465,3.1387,3.2226,3.2441,3.2031,3.2559,3.2969,3.3281,3.3379,3.3418,3.3418,3.3418,3.3418,3.3437,3.3789,3.373,3.3496,3.416,3.4219,3.3965,3.4297,3.4473,3.4629,3.5351,3.5547,3.5762,3.5976,3.6016,3.6016,3.6016,3.6016,3.5937,3.5723,3.5312,3.4941,3.4726,3.4512,3.4375,3.4375,3.4766,3.4622,3.365,3.3632,3.365,3.3583,3.3256,3.3413,3.4082,3.3418,3.2773,3.2129,3.2129,3.1914,3.1504,3.1289,3.1191,3.1191,3.0976,3.0898,3.0898,3.0898,3.0898,3.0898,3.0898,3.0898,3.0898,3.0898,3.0898,3.0898,3.0898,3.0898,3.0898,3.0898,3.0898,3.0898,3.0898,3.0898,3.0898,3.0898,3.0898,3.0937,3.1133,3.1191,3.1289,3.1719,3.1973,3.207,3.1875,3.2168,3.2402,3.2268,3.2148,3.207,3.1875,3.1641,3.1504,3.1504,3.1504,3.1426,3.1211,3.1191,3.1113,3.0918,3.0898,3.0898,3.0898,3.0898,3.0898,3.0898,3.1074,3.1191,3.1191,3.1387,3.1504,3.1504,3.1914,3.2031,3.1836,3.2676,3.2871,3.248,3.2891,3.3203,3.3418,3.3418,3.3535,3.373,3.3516,3.3652,3.4023,3.4062,3.4062,3.4082,3.4531,3.457,3.4394,3.4609,3.4844,3.5098,3.5508,3.5781,3.6016,3.6016,3.6016,3.6016,3.6016,3.6016,3.6016,3.6016,3.5664,3.5391,3.5391,3.5117,3.4961,3.5019,3.5449,3.5549,3.5114,3.3904,3.3731,3.4931,3.342,3.3095,3.4297,3.4141,3.3652,3.2793,3.2793,3.2578,3.2168,3.1797,3.1582,3.1504,3.1152,3.0957,3.0898,3.0898,3.0898,3.0898,3.0976,3.0957,3.0898,3.0976,3.0957,3.0898,3.0898,3.0898,3.0898,3.0898,3.0898,3.0898,3.0898,3.0937,3.0996,3.0996,3.1055,3.1191,3.1543,3.1621,3.1738,3.2168,3.2539,3.2715,3.2441,3.2656,3.2793,3.2461,3.2598,3.2695,3.2344,3.2268,3.2229,3.2229,3.2229,3.2051,3.168,3.1621,3.1504,3.1152,3.1113,3.1074,3.0996,3.1074,3.1055,3.0898,3.1348,3.1601,3.1523,3.1934,3.2229,3.2229,3.2578,3.2637,3.2346,3.3047,3.3281,3.3008,3.3359,3.3535,3.3535,3.3613,3.3828,3.416,3.3789,3.4043,3.4668,3.4414,3.4453,3.4707,3.4863,3.4883,3.4824,3.4902,3.5176,3.5547,3.5937,3.5976,3.6016,3.6016,3.6016,3.6016,3.6016,3.6016,3.6016,3.6016,3.5664,3.5391,3.5391,3.5664,3.5996,3.6367,3.6797,3.6157,3.4113,3.5338,3.5325,3.3601,3.441,3.5006,3.5215,3.4473,3.3652,3.2793,3.2793,3.2578,3.2229,3.2109,3.1875,3.1523,3.1465,3.123,3.0898,3.0898,3.0898,3.0918,3.1289,3.1211,3.0937,3.1289,3.1211,3.0898,3.0898,3.0898,3.0898,3.0898,3.0898,3.0898,3.0898,3.1133,3.1426,3.1426,3.1699,3.2072,3.207,3.209,3.2187,3.2598,3.2754,3.2871,3.3184,3.3301,3.332,3.3262,3.3008,3.2773,3.2715,3.2422,3.2229,3.2229,3.2229,3.2148,3.209,3.209,3.2111,3.1992,3.1992,3.1836,3.1465,3.1777,3.168,3.0957,3.1621,3.1914,3.1543,3.1934,3.2229,3.2229,3.2578,3.2773,3.2715,3.3184,3.3574,3.3906,3.3965,3.3984,3.4004,3.4355,3.4551,3.4609,3.4551,3.459,3.4726,3.5078,3.5019,3.4766,3.5547,3.5625,3.5351,3.5703,3.5879,3.5937,3.6016,3.6016,3.6094,3.6348,3.6387,3.6465,3.6699,3.6543,3.6387,3.6387,3.6016,3.5742,3.5742,3.6133,3.6562,3.6992,3.7187,3.6739,3.5527,3.521,3.5022,3.4746,3.4352,3.4573,3.5391,3.5,3.4375,3.3516,3.3262,3.3047,3.2871,3.2637,3.2285,3.1875,3.1621,3.1289,3.0898,3.0898,3.1035,3.125,3.1445,3.1543,3.1621,3.1816,3.1621,3.1211,3.0976,3.0898,3.0918,3.1172,3.125,3.1289,3.1523,3.1738,3.1875,3.1875,3.2012,3.2226,3.2461,3.2519,3.2617,3.3047,3.3144,3.3184,3.3379,3.3418,3.3418,3.3418,3.3281,3.3144,3.3144,3.2988,3.2871,3.2871,3.2871,3.2793,3.2559,3.2519,3.2422,3.2268,3.2229,3.209,3.1894,3.2051,3.2012,3.1641,3.2168,3.2441,3.2246,3.2637,3.2871,3.2871,3.3281,3.3516,3.3516,3.3926,3.4238,3.4434,3.4687,3.4668,3.4434,3.4609,3.4844,3.5078,3.4805,3.498,3.543,3.541,3.541,3.5469,3.5859,3.5898,3.5762,3.5957,3.6016,3.6016]}]]